<?xml version="1.0" encoding="UTF-8" standalone="no" ?>
<gpx xmlns="http://www.topografix.com/GPX/1/1" xmlns:xsi="http://www.w3.org/2001/XMLSchema-instance" xsi:schemaLocation="http://www.topografix.com/GPX/1/1 http://www.topografix.com/GPX/1/1/gpx.xsd" version="1.1" creator="VisuGPX - https://www.visugpx.com">
  <metadata>
    <name>GR20</name>
    <desc><![CDATA[GR20 - Juin 2015]]></desc>
  </metadata>
  <trk>
    <name><![CDATA[GR20 Asinau - Usciolu]]></name>
    <trkseg>
      <trkpt lat="41.84176" lon="9.21395">
        <ele>1543.4</ele>
        <time>2015-06-20T04:41:16Z</time>
      </trkpt>
      <trkpt lat="41.84176" lon="9.21388">
        <ele>1544.6</ele>
        <time>2015-06-20T04:41:33Z</time>
      </trkpt>
      <trkpt lat="41.84177" lon="9.21379">
        <ele>1544.8</ele>
        <time>2015-06-20T04:41:45Z</time>
      </trkpt>
      <trkpt lat="41.84171" lon="9.21362">
        <ele>1545.6</ele>
        <time>2015-06-20T04:41:52Z</time>
      </trkpt>
      <trkpt lat="41.84173" lon="9.21362">
        <ele>1546</ele>
        <time>2015-06-20T04:41:55Z</time>
      </trkpt>
      <trkpt lat="41.84174" lon="9.21359">
        <ele>1546.8</ele>
        <time>2015-06-20T04:42:01Z</time>
      </trkpt>
      <trkpt lat="41.84177" lon="9.21362">
        <ele>1547</ele>
        <time>2015-06-20T04:42:03Z</time>
      </trkpt>
      <trkpt lat="41.8418" lon="9.21365">
        <ele>1547.2</ele>
        <time>2015-06-20T04:42:07Z</time>
      </trkpt>
      <trkpt lat="41.84183" lon="9.21366">
        <ele>1547.8</ele>
        <time>2015-06-20T04:42:13Z</time>
      </trkpt>
      <trkpt lat="41.84184" lon="9.21364">
        <ele>1548.4</ele>
        <time>2015-06-20T04:42:20Z</time>
      </trkpt>
      <trkpt lat="41.84187" lon="9.21362">
        <ele>1549.6</ele>
        <time>2015-06-20T04:42:30Z</time>
      </trkpt>
      <trkpt lat="41.84188" lon="9.21356">
        <ele>1551</ele>
        <time>2015-06-20T04:42:41Z</time>
      </trkpt>
      <trkpt lat="41.84189" lon="9.21355">
        <ele>1551.8</ele>
        <time>2015-06-20T04:42:51Z</time>
      </trkpt>
      <trkpt lat="41.84191" lon="9.21341">
        <ele>1553</ele>
        <time>2015-06-20T04:43:12Z</time>
      </trkpt>
      <trkpt lat="41.84189" lon="9.21311">
        <ele>1553.6</ele>
        <time>2015-06-20T04:44:03Z</time>
      </trkpt>
      <trkpt lat="41.84189" lon="9.21296">
        <ele>1554.8</ele>
        <time>2015-06-20T04:44:29Z</time>
      </trkpt>
      <trkpt lat="41.84188" lon="9.21283">
        <ele>1555.4</ele>
        <time>2015-06-20T04:44:44Z</time>
      </trkpt>
      <trkpt lat="41.84191" lon="9.21276">
        <ele>1556.2</ele>
        <time>2015-06-20T04:44:57Z</time>
      </trkpt>
      <trkpt lat="41.84192" lon="9.21274">
        <ele>1556.8</ele>
        <time>2015-06-20T04:45:04Z</time>
      </trkpt>
      <trkpt lat="41.84191" lon="9.21268">
        <ele>1558.6</ele>
        <time>2015-06-20T04:45:15Z</time>
      </trkpt>
      <trkpt lat="41.84191" lon="9.21267">
        <ele>1558.8</ele>
        <time>2015-06-20T04:45:17Z</time>
      </trkpt>
      <trkpt lat="41.8419" lon="9.21263">
        <ele>1559</ele>
        <time>2015-06-20T04:45:24Z</time>
      </trkpt>
      <trkpt lat="41.84189" lon="9.21258">
        <ele>1560.2</ele>
        <time>2015-06-20T04:45:35Z</time>
      </trkpt>
      <trkpt lat="41.8419" lon="9.21251">
        <ele>1561.6</ele>
        <time>2015-06-20T04:45:52Z</time>
      </trkpt>
      <trkpt lat="41.8419" lon="9.21247">
        <ele>1562.2</ele>
        <time>2015-06-20T04:46:00Z</time>
      </trkpt>
      <trkpt lat="41.84189" lon="9.21244">
        <ele>1563</ele>
        <time>2015-06-20T04:46:07Z</time>
      </trkpt>
      <trkpt lat="41.84187" lon="9.21239">
        <ele>1564.4</ele>
        <time>2015-06-20T04:46:18Z</time>
      </trkpt>
      <trkpt lat="41.84187" lon="9.21236">
        <ele>1565</ele>
        <time>2015-06-20T04:46:26Z</time>
      </trkpt>
      <trkpt lat="41.84183" lon="9.21231">
        <ele>1566.6</ele>
        <time>2015-06-20T04:46:37Z</time>
      </trkpt>
      <trkpt lat="41.8418" lon="9.21223">
        <ele>1567.4</ele>
        <time>2015-06-20T04:46:50Z</time>
      </trkpt>
      <trkpt lat="41.84171" lon="9.21209">
        <ele>1568.6</ele>
        <time>2015-06-20T04:47:10Z</time>
      </trkpt>
      <trkpt lat="41.84172" lon="9.21204">
        <ele>1569.2</ele>
        <time>2015-06-20T04:47:20Z</time>
      </trkpt>
      <trkpt lat="41.8417" lon="9.21196">
        <ele>1570.4</ele>
        <time>2015-06-20T04:47:30Z</time>
      </trkpt>
      <trkpt lat="41.84171" lon="9.21192">
        <ele>1571</ele>
        <time>2015-06-20T04:47:39Z</time>
      </trkpt>
      <trkpt lat="41.84171" lon="9.21187">
        <ele>1572.4</ele>
        <time>2015-06-20T04:47:50Z</time>
      </trkpt>
      <trkpt lat="41.8417" lon="9.21183">
        <ele>1573.4</ele>
        <time>2015-06-20T04:47:59Z</time>
      </trkpt>
      <trkpt lat="41.84172" lon="9.21179">
        <ele>1574.6</ele>
        <time>2015-06-20T04:48:09Z</time>
      </trkpt>
      <trkpt lat="41.84172" lon="9.21175">
        <ele>1575.2</ele>
        <time>2015-06-20T04:48:17Z</time>
      </trkpt>
      <trkpt lat="41.84173" lon="9.21169">
        <ele>1576.6</ele>
        <time>2015-06-20T04:48:29Z</time>
      </trkpt>
      <trkpt lat="41.84175" lon="9.21168">
        <ele>1577.4</ele>
        <time>2015-06-20T04:48:37Z</time>
      </trkpt>
      <trkpt lat="41.84177" lon="9.21167">
        <ele>1578.2</ele>
        <time>2015-06-20T04:48:45Z</time>
      </trkpt>
      <trkpt lat="41.84178" lon="9.21163">
        <ele>1579.8</ele>
        <time>2015-06-20T04:48:57Z</time>
      </trkpt>
      <trkpt lat="41.84178" lon="9.2115">
        <ele>1580.8</ele>
        <time>2015-06-20T04:49:13Z</time>
      </trkpt>
      <trkpt lat="41.84179" lon="9.21144">
        <ele>1581.6</ele>
        <time>2015-06-20T04:49:23Z</time>
      </trkpt>
      <trkpt lat="41.84181" lon="9.2114">
        <ele>1582.8</ele>
        <time>2015-06-20T04:49:33Z</time>
      </trkpt>
      <trkpt lat="41.84183" lon="9.21139">
        <ele>1583.4</ele>
        <time>2015-06-20T04:49:40Z</time>
      </trkpt>
      <trkpt lat="41.84185" lon="9.21137">
        <ele>1584.6</ele>
        <time>2015-06-20T04:49:48Z</time>
      </trkpt>
      <trkpt lat="41.84186" lon="9.21136">
        <ele>1585.6</ele>
        <time>2015-06-20T04:49:56Z</time>
      </trkpt>
      <trkpt lat="41.8419" lon="9.21136">
        <ele>1586.6</ele>
        <time>2015-06-20T04:50:07Z</time>
      </trkpt>
      <trkpt lat="41.8419" lon="9.21132">
        <ele>1587.8</ele>
        <time>2015-06-20T04:50:15Z</time>
      </trkpt>
      <trkpt lat="41.84194" lon="9.21131">
        <ele>1589</ele>
        <time>2015-06-20T04:50:27Z</time>
      </trkpt>
      <trkpt lat="41.84196" lon="9.21132">
        <ele>1589.6</ele>
        <time>2015-06-20T04:50:33Z</time>
      </trkpt>
      <trkpt lat="41.84199" lon="9.21134">
        <ele>1590.8</ele>
        <time>2015-06-20T04:50:41Z</time>
      </trkpt>
      <trkpt lat="41.84199" lon="9.21136">
        <ele>1592</ele>
        <time>2015-06-20T04:50:49Z</time>
      </trkpt>
      <trkpt lat="41.84199" lon="9.21138">
        <ele>1593</ele>
        <time>2015-06-20T04:50:57Z</time>
      </trkpt>
      <trkpt lat="41.84202" lon="9.21135">
        <ele>1594</ele>
        <time>2015-06-20T04:51:14Z</time>
      </trkpt>
      <trkpt lat="41.84203" lon="9.21131">
        <ele>1594.8</ele>
        <time>2015-06-20T04:51:22Z</time>
      </trkpt>
      <trkpt lat="41.84205" lon="9.21128">
        <ele>1596.2</ele>
        <time>2015-06-20T04:51:33Z</time>
      </trkpt>
      <trkpt lat="41.84206" lon="9.21131">
        <ele>1597.2</ele>
        <time>2015-06-20T04:51:43Z</time>
      </trkpt>
      <trkpt lat="41.84208" lon="9.21129">
        <ele>1598.4</ele>
        <time>2015-06-20T04:52:02Z</time>
      </trkpt>
      <trkpt lat="41.8421" lon="9.21124">
        <ele>1599.4</ele>
        <time>2015-06-20T04:52:20Z</time>
      </trkpt>
      <trkpt lat="41.84214" lon="9.21125">
        <ele>1600.2</ele>
        <time>2015-06-20T04:52:32Z</time>
      </trkpt>
      <trkpt lat="41.84216" lon="9.21126">
        <ele>1601.2</ele>
        <time>2015-06-20T04:52:40Z</time>
      </trkpt>
      <trkpt lat="41.84216" lon="9.21126">
        <ele>1601.4</ele>
        <time>2015-06-20T04:52:42Z</time>
      </trkpt>
      <trkpt lat="41.84215" lon="9.21123">
        <ele>1602.4</ele>
        <time>2015-06-20T04:52:51Z</time>
      </trkpt>
      <trkpt lat="41.84216" lon="9.21118">
        <ele>1603.6</ele>
        <time>2015-06-20T04:53:01Z</time>
      </trkpt>
      <trkpt lat="41.84219" lon="9.2112">
        <ele>1604.2</ele>
        <time>2015-06-20T04:53:09Z</time>
      </trkpt>
      <trkpt lat="41.8422" lon="9.21124">
        <ele>1605.8</ele>
        <time>2015-06-20T04:53:18Z</time>
      </trkpt>
      <trkpt lat="41.84223" lon="9.21122">
        <ele>1606.8</ele>
        <time>2015-06-20T04:53:30Z</time>
      </trkpt>
      <trkpt lat="41.84225" lon="9.21122">
        <ele>1607.4</ele>
        <time>2015-06-20T04:53:38Z</time>
      </trkpt>
      <trkpt lat="41.84226" lon="9.21122">
        <ele>1608.2</ele>
        <time>2015-06-20T04:53:44Z</time>
      </trkpt>
      <trkpt lat="41.84227" lon="9.21123">
        <ele>1609.4</ele>
        <time>2015-06-20T04:53:51Z</time>
      </trkpt>
      <trkpt lat="41.84228" lon="9.21126">
        <ele>1610.8</ele>
        <time>2015-06-20T04:54:02Z</time>
      </trkpt>
      <trkpt lat="41.84231" lon="9.21125">
        <ele>1612</ele>
        <time>2015-06-20T04:54:17Z</time>
      </trkpt>
      <trkpt lat="41.84233" lon="9.21123">
        <ele>1613</ele>
        <time>2015-06-20T04:54:28Z</time>
      </trkpt>
      <trkpt lat="41.84234" lon="9.21123">
        <ele>1614</ele>
        <time>2015-06-20T04:54:40Z</time>
      </trkpt>
      <trkpt lat="41.84238" lon="9.21124">
        <ele>1615.2</ele>
        <time>2015-06-20T04:54:53Z</time>
      </trkpt>
      <trkpt lat="41.8424" lon="9.21125">
        <ele>1616</ele>
        <time>2015-06-20T04:55:02Z</time>
      </trkpt>
      <trkpt lat="41.84242" lon="9.21126">
        <ele>1616.8</ele>
        <time>2015-06-20T04:55:09Z</time>
      </trkpt>
      <trkpt lat="41.84242" lon="9.2112">
        <ele>1618.6</ele>
        <time>2015-06-20T04:55:29Z</time>
      </trkpt>
      <trkpt lat="41.84246" lon="9.21125">
        <ele>1619.4</ele>
        <time>2015-06-20T04:55:52Z</time>
      </trkpt>
      <trkpt lat="41.84247" lon="9.21123">
        <ele>1619.8</ele>
        <time>2015-06-20T04:55:59Z</time>
      </trkpt>
      <trkpt lat="41.84248" lon="9.21119">
        <ele>1621.4</ele>
        <time>2015-06-20T04:56:10Z</time>
      </trkpt>
      <trkpt lat="41.84249" lon="9.21119">
        <ele>1621.6</ele>
        <time>2015-06-20T04:56:13Z</time>
      </trkpt>
      <trkpt lat="41.84249" lon="9.21118">
        <ele>1622.4</ele>
        <time>2015-06-20T04:56:22Z</time>
      </trkpt>
      <trkpt lat="41.84251" lon="9.21117">
        <ele>1623.4</ele>
        <time>2015-06-20T04:56:30Z</time>
      </trkpt>
      <trkpt lat="41.84251" lon="9.21114">
        <ele>1624.6</ele>
        <time>2015-06-20T04:56:39Z</time>
      </trkpt>
      <trkpt lat="41.84253" lon="9.21111">
        <ele>1625.8</ele>
        <time>2015-06-20T04:56:49Z</time>
      </trkpt>
      <trkpt lat="41.84256" lon="9.21112">
        <ele>1626.6</ele>
        <time>2015-06-20T04:56:59Z</time>
      </trkpt>
      <trkpt lat="41.84257" lon="9.21114">
        <ele>1628</ele>
        <time>2015-06-20T04:57:09Z</time>
      </trkpt>
      <trkpt lat="41.84258" lon="9.21117">
        <ele>1628.6</ele>
        <time>2015-06-20T04:57:17Z</time>
      </trkpt>
      <trkpt lat="41.84261" lon="9.21117">
        <ele>1630.2</ele>
        <time>2015-06-20T04:57:34Z</time>
      </trkpt>
      <trkpt lat="41.84263" lon="9.2112">
        <ele>1631</ele>
        <time>2015-06-20T04:57:44Z</time>
      </trkpt>
      <trkpt lat="41.84265" lon="9.21118">
        <ele>1632.2</ele>
        <time>2015-06-20T04:57:59Z</time>
      </trkpt>
      <trkpt lat="41.84267" lon="9.21115">
        <ele>1633.2</ele>
        <time>2015-06-20T04:58:08Z</time>
      </trkpt>
      <trkpt lat="41.84269" lon="9.21114">
        <ele>1634</ele>
        <time>2015-06-20T04:58:17Z</time>
      </trkpt>
      <trkpt lat="41.8427" lon="9.21111">
        <ele>1635.2</ele>
        <time>2015-06-20T04:58:29Z</time>
      </trkpt>
      <trkpt lat="41.8427" lon="9.21108">
        <ele>1636</ele>
        <time>2015-06-20T04:58:36Z</time>
      </trkpt>
      <trkpt lat="41.84274" lon="9.21104">
        <ele>1637.4</ele>
        <time>2015-06-20T04:58:48Z</time>
      </trkpt>
      <trkpt lat="41.84276" lon="9.21104">
        <ele>1638.6</ele>
        <time>2015-06-20T04:58:58Z</time>
      </trkpt>
      <trkpt lat="41.84278" lon="9.21104">
        <ele>1639.6</ele>
        <time>2015-06-20T04:59:08Z</time>
      </trkpt>
      <trkpt lat="41.84279" lon="9.21105">
        <ele>1640.4</ele>
        <time>2015-06-20T04:59:21Z</time>
      </trkpt>
      <trkpt lat="41.84281" lon="9.21106">
        <ele>1642</ele>
        <time>2015-06-20T04:59:35Z</time>
      </trkpt>
      <trkpt lat="41.84282" lon="9.21107">
        <ele>1642.8</ele>
        <time>2015-06-20T04:59:45Z</time>
      </trkpt>
      <trkpt lat="41.84283" lon="9.21106">
        <ele>1644</ele>
        <time>2015-06-20T04:59:55Z</time>
      </trkpt>
      <trkpt lat="41.84284" lon="9.21107">
        <ele>1645.2</ele>
        <time>2015-06-20T05:00:09Z</time>
      </trkpt>
      <trkpt lat="41.84287" lon="9.21109">
        <ele>1646.8</ele>
        <time>2015-06-20T05:00:31Z</time>
      </trkpt>
      <trkpt lat="41.8429" lon="9.21107">
        <ele>1647.6</ele>
        <time>2015-06-20T05:00:48Z</time>
      </trkpt>
      <trkpt lat="41.84291" lon="9.21106">
        <ele>1648.4</ele>
        <time>2015-06-20T05:00:55Z</time>
      </trkpt>
      <trkpt lat="41.84291" lon="9.21103">
        <ele>1649.4</ele>
        <time>2015-06-20T05:01:02Z</time>
      </trkpt>
      <trkpt lat="41.84293" lon="9.21104">
        <ele>1650.6</ele>
        <time>2015-06-20T05:01:12Z</time>
      </trkpt>
      <trkpt lat="41.84296" lon="9.21105">
        <ele>1651.6</ele>
        <time>2015-06-20T05:01:22Z</time>
      </trkpt>
      <trkpt lat="41.84297" lon="9.21105">
        <ele>1652.6</ele>
        <time>2015-06-20T05:01:30Z</time>
      </trkpt>
      <trkpt lat="41.84301" lon="9.211">
        <ele>1653.8</ele>
        <time>2015-06-20T05:02:05Z</time>
      </trkpt>
      <trkpt lat="41.84302" lon="9.21098">
        <ele>1655.2</ele>
        <time>2015-06-20T05:02:13Z</time>
      </trkpt>
      <trkpt lat="41.84303" lon="9.21099">
        <ele>1656</ele>
        <time>2015-06-20T05:02:23Z</time>
      </trkpt>
      <trkpt lat="41.84301" lon="9.21095">
        <ele>1657.2</ele>
        <time>2015-06-20T05:02:30Z</time>
      </trkpt>
      <trkpt lat="41.84304" lon="9.21094">
        <ele>1658.2</ele>
        <time>2015-06-20T05:02:38Z</time>
      </trkpt>
      <trkpt lat="41.84304" lon="9.21097">
        <ele>1659.4</ele>
        <time>2015-06-20T05:02:47Z</time>
      </trkpt>
      <trkpt lat="41.84307" lon="9.21096">
        <ele>1661</ele>
        <time>2015-06-20T05:02:58Z</time>
      </trkpt>
      <trkpt lat="41.84307" lon="9.21094">
        <ele>1662</ele>
        <time>2015-06-20T05:03:07Z</time>
      </trkpt>
      <trkpt lat="41.8431" lon="9.21093">
        <ele>1663</ele>
        <time>2015-06-20T05:03:19Z</time>
      </trkpt>
      <trkpt lat="41.84312" lon="9.21093">
        <ele>1664.6</ele>
        <time>2015-06-20T05:03:30Z</time>
      </trkpt>
      <trkpt lat="41.84312" lon="9.2109">
        <ele>1665.4</ele>
        <time>2015-06-20T05:03:39Z</time>
      </trkpt>
      <trkpt lat="41.84315" lon="9.21087">
        <ele>1666.8</ele>
        <time>2015-06-20T05:03:50Z</time>
      </trkpt>
      <trkpt lat="41.84317" lon="9.21089">
        <ele>1667.8</ele>
        <time>2015-06-20T05:04:01Z</time>
      </trkpt>
      <trkpt lat="41.84317" lon="9.21093">
        <ele>1668.8</ele>
        <time>2015-06-20T05:04:09Z</time>
      </trkpt>
      <trkpt lat="41.8432" lon="9.21094">
        <ele>1669.8</ele>
        <time>2015-06-20T05:05:08Z</time>
      </trkpt>
      <trkpt lat="41.84322" lon="9.21092">
        <ele>1671</ele>
        <time>2015-06-20T05:05:16Z</time>
      </trkpt>
      <trkpt lat="41.84324" lon="9.21089">
        <ele>1672</ele>
        <time>2015-06-20T05:05:25Z</time>
      </trkpt>
      <trkpt lat="41.84327" lon="9.21088">
        <ele>1673.4</ele>
        <time>2015-06-20T05:05:34Z</time>
      </trkpt>
      <trkpt lat="41.84328" lon="9.21091">
        <ele>1674.4</ele>
        <time>2015-06-20T05:05:44Z</time>
      </trkpt>
      <trkpt lat="41.8433" lon="9.21096">
        <ele>1675.4</ele>
        <time>2015-06-20T05:05:53Z</time>
      </trkpt>
      <trkpt lat="41.84333" lon="9.21096">
        <ele>1676.6</ele>
        <time>2015-06-20T05:06:04Z</time>
      </trkpt>
      <trkpt lat="41.84336" lon="9.211">
        <ele>1677.8</ele>
        <time>2015-06-20T05:06:13Z</time>
      </trkpt>
      <trkpt lat="41.84339" lon="9.21101">
        <ele>1678.8</ele>
        <time>2015-06-20T05:06:23Z</time>
      </trkpt>
      <trkpt lat="41.8434" lon="9.21101">
        <ele>1679.8</ele>
        <time>2015-06-20T05:06:33Z</time>
      </trkpt>
      <trkpt lat="41.84344" lon="9.21101">
        <ele>1681</ele>
        <time>2015-06-20T05:06:45Z</time>
      </trkpt>
      <trkpt lat="41.84343" lon="9.21097">
        <ele>1681.8</ele>
        <time>2015-06-20T05:06:54Z</time>
      </trkpt>
      <trkpt lat="41.84343" lon="9.21092">
        <ele>1683</ele>
        <time>2015-06-20T05:07:03Z</time>
      </trkpt>
      <trkpt lat="41.84344" lon="9.21089">
        <ele>1684</ele>
        <time>2015-06-20T05:07:12Z</time>
      </trkpt>
      <trkpt lat="41.84346" lon="9.21087">
        <ele>1685</ele>
        <time>2015-06-20T05:07:21Z</time>
      </trkpt>
      <trkpt lat="41.84346" lon="9.21084">
        <ele>1686.2</ele>
        <time>2015-06-20T05:07:30Z</time>
      </trkpt>
      <trkpt lat="41.84346" lon="9.2108">
        <ele>1686.8</ele>
        <time>2015-06-20T05:07:38Z</time>
      </trkpt>
      <trkpt lat="41.84348" lon="9.21078">
        <ele>1688.4</ele>
        <time>2015-06-20T05:07:48Z</time>
      </trkpt>
      <trkpt lat="41.84352" lon="9.21075">
        <ele>1689.2</ele>
        <time>2015-06-20T05:08:01Z</time>
      </trkpt>
      <trkpt lat="41.84354" lon="9.21076">
        <ele>1690</ele>
        <time>2015-06-20T05:08:09Z</time>
      </trkpt>
      <trkpt lat="41.84358" lon="9.21074">
        <ele>1691.8</ele>
        <time>2015-06-20T05:08:42Z</time>
      </trkpt>
      <trkpt lat="41.84361" lon="9.21071">
        <ele>1692.2</ele>
        <time>2015-06-20T05:08:51Z</time>
      </trkpt>
      <trkpt lat="41.84363" lon="9.21069">
        <ele>1693</ele>
        <time>2015-06-20T05:08:59Z</time>
      </trkpt>
      <trkpt lat="41.84364" lon="9.21069">
        <ele>1693.2</ele>
        <time>2015-06-20T05:09:00Z</time>
      </trkpt>
      <trkpt lat="41.84365" lon="9.21068">
        <ele>1694.2</ele>
        <time>2015-06-20T05:09:09Z</time>
      </trkpt>
      <trkpt lat="41.8437" lon="9.2106">
        <ele>1695.6</ele>
        <time>2015-06-20T05:09:23Z</time>
      </trkpt>
      <trkpt lat="41.84371" lon="9.21056">
        <ele>1696.4</ele>
        <time>2015-06-20T05:09:31Z</time>
      </trkpt>
      <trkpt lat="41.84374" lon="9.21052">
        <ele>1697.6</ele>
        <time>2015-06-20T05:09:41Z</time>
      </trkpt>
      <trkpt lat="41.84378" lon="9.21039">
        <ele>1698.6</ele>
        <time>2015-06-20T05:09:58Z</time>
      </trkpt>
      <trkpt lat="41.8438" lon="9.21038">
        <ele>1699</ele>
        <time>2015-06-20T05:10:02Z</time>
      </trkpt>
      <trkpt lat="41.84381" lon="9.21035">
        <ele>1699.2</ele>
        <time>2015-06-20T05:10:10Z</time>
      </trkpt>
      <trkpt lat="41.84385" lon="9.21026">
        <ele>1700.8</ele>
        <time>2015-06-20T05:10:25Z</time>
      </trkpt>
      <trkpt lat="41.84387" lon="9.21023">
        <ele>1701.8</ele>
        <time>2015-06-20T05:10:33Z</time>
      </trkpt>
      <trkpt lat="41.84389" lon="9.21022">
        <ele>1702.6</ele>
        <time>2015-06-20T05:10:43Z</time>
      </trkpt>
      <trkpt lat="41.84393" lon="9.21017">
        <ele>1704</ele>
        <time>2015-06-20T05:10:54Z</time>
      </trkpt>
      <trkpt lat="41.84396" lon="9.21013">
        <ele>1704.8</ele>
        <time>2015-06-20T05:11:04Z</time>
      </trkpt>
      <trkpt lat="41.84398" lon="9.21009">
        <ele>1706</ele>
        <time>2015-06-20T05:11:14Z</time>
      </trkpt>
      <trkpt lat="41.84399" lon="9.21005">
        <ele>1706.8</ele>
        <time>2015-06-20T05:11:24Z</time>
      </trkpt>
      <trkpt lat="41.84401" lon="9.21002">
        <ele>1707.8</ele>
        <time>2015-06-20T05:11:31Z</time>
      </trkpt>
      <trkpt lat="41.84403" lon="9.20999">
        <ele>1708.8</ele>
        <time>2015-06-20T05:11:38Z</time>
      </trkpt>
      <trkpt lat="41.84406" lon="9.20993">
        <ele>1710.2</ele>
        <time>2015-06-20T05:11:52Z</time>
      </trkpt>
      <trkpt lat="41.84408" lon="9.20988">
        <ele>1711</ele>
        <time>2015-06-20T05:12:02Z</time>
      </trkpt>
      <trkpt lat="41.8441" lon="9.20984">
        <ele>1711.8</ele>
        <time>2015-06-20T05:12:10Z</time>
      </trkpt>
      <trkpt lat="41.84411" lon="9.20978">
        <ele>1713</ele>
        <time>2015-06-20T05:12:24Z</time>
      </trkpt>
      <trkpt lat="41.84412" lon="9.20968">
        <ele>1714.6</ele>
        <time>2015-06-20T05:12:37Z</time>
      </trkpt>
      <trkpt lat="41.84415" lon="9.20961">
        <ele>1715</ele>
        <time>2015-06-20T05:12:49Z</time>
      </trkpt>
      <trkpt lat="41.84417" lon="9.20959">
        <ele>1716</ele>
        <time>2015-06-20T05:12:58Z</time>
      </trkpt>
      <trkpt lat="41.84419" lon="9.20958">
        <ele>1717</ele>
        <time>2015-06-20T05:13:09Z</time>
      </trkpt>
      <trkpt lat="41.84422" lon="9.20956">
        <ele>1718</ele>
        <time>2015-06-20T05:13:19Z</time>
      </trkpt>
      <trkpt lat="41.84423" lon="9.20957">
        <ele>1719</ele>
        <time>2015-06-20T05:13:26Z</time>
      </trkpt>
      <trkpt lat="41.84426" lon="9.20953">
        <ele>1720.2</ele>
        <time>2015-06-20T05:13:36Z</time>
      </trkpt>
      <trkpt lat="41.84428" lon="9.2095">
        <ele>1721.2</ele>
        <time>2015-06-20T05:13:46Z</time>
      </trkpt>
      <trkpt lat="41.84432" lon="9.20942">
        <ele>1722.4</ele>
        <time>2015-06-20T05:13:59Z</time>
      </trkpt>
      <trkpt lat="41.84435" lon="9.20938">
        <ele>1723.2</ele>
        <time>2015-06-20T05:14:08Z</time>
      </trkpt>
      <trkpt lat="41.84436" lon="9.20936">
        <ele>1724.4</ele>
        <time>2015-06-20T05:14:18Z</time>
      </trkpt>
      <trkpt lat="41.84437" lon="9.2092">
        <ele>1725.2</ele>
        <time>2015-06-20T05:14:54Z</time>
      </trkpt>
      <trkpt lat="41.84436" lon="9.20916">
        <ele>1726</ele>
        <time>2015-06-20T05:15:02Z</time>
      </trkpt>
      <trkpt lat="41.84438" lon="9.20912">
        <ele>1727.2</ele>
        <time>2015-06-20T05:15:12Z</time>
      </trkpt>
      <trkpt lat="41.84437" lon="9.20907">
        <ele>1728.2</ele>
        <time>2015-06-20T05:15:20Z</time>
      </trkpt>
      <trkpt lat="41.84441" lon="9.20904">
        <ele>1729.2</ele>
        <time>2015-06-20T05:15:32Z</time>
      </trkpt>
      <trkpt lat="41.84443" lon="9.209">
        <ele>1730</ele>
        <time>2015-06-20T05:15:41Z</time>
      </trkpt>
      <trkpt lat="41.84444" lon="9.20899">
        <ele>1731.2</ele>
        <time>2015-06-20T05:15:50Z</time>
      </trkpt>
      <trkpt lat="41.84446" lon="9.20895">
        <ele>1732.2</ele>
        <time>2015-06-20T05:16:01Z</time>
      </trkpt>
      <trkpt lat="41.84447" lon="9.20896">
        <ele>1733</ele>
        <time>2015-06-20T05:16:08Z</time>
      </trkpt>
      <trkpt lat="41.84452" lon="9.20896">
        <ele>1734.2</ele>
        <time>2015-06-20T05:16:28Z</time>
      </trkpt>
      <trkpt lat="41.84456" lon="9.20896">
        <ele>1735.6</ele>
        <time>2015-06-20T05:16:58Z</time>
      </trkpt>
      <trkpt lat="41.8446" lon="9.20898">
        <ele>1736.2</ele>
        <time>2015-06-20T05:17:06Z</time>
      </trkpt>
      <trkpt lat="41.84462" lon="9.20896">
        <ele>1737.2</ele>
        <time>2015-06-20T05:17:13Z</time>
      </trkpt>
      <trkpt lat="41.84464" lon="9.20896">
        <ele>1738.2</ele>
        <time>2015-06-20T05:17:20Z</time>
      </trkpt>
      <trkpt lat="41.84465" lon="9.20895">
        <ele>1739.4</ele>
        <time>2015-06-20T05:17:27Z</time>
      </trkpt>
      <trkpt lat="41.84466" lon="9.20893">
        <ele>1740.4</ele>
        <time>2015-06-20T05:17:35Z</time>
      </trkpt>
      <trkpt lat="41.84466" lon="9.20892">
        <ele>1741.4</ele>
        <time>2015-06-20T05:17:43Z</time>
      </trkpt>
      <trkpt lat="41.84468" lon="9.20889">
        <ele>1742.8</ele>
        <time>2015-06-20T05:17:54Z</time>
      </trkpt>
      <trkpt lat="41.84469" lon="9.20888">
        <ele>1743.6</ele>
        <time>2015-06-20T05:18:03Z</time>
      </trkpt>
      <trkpt lat="41.84472" lon="9.20888">
        <ele>1744.6</ele>
        <time>2015-06-20T05:18:16Z</time>
      </trkpt>
      <trkpt lat="41.84473" lon="9.20888">
        <ele>1745.8</ele>
        <time>2015-06-20T05:18:25Z</time>
      </trkpt>
      <trkpt lat="41.84475" lon="9.20884">
        <ele>1746.6</ele>
        <time>2015-06-20T05:18:35Z</time>
      </trkpt>
      <trkpt lat="41.84478" lon="9.20885">
        <ele>1747.8</ele>
        <time>2015-06-20T05:18:44Z</time>
      </trkpt>
      <trkpt lat="41.84481" lon="9.20887">
        <ele>1749</ele>
        <time>2015-06-20T05:18:56Z</time>
      </trkpt>
      <trkpt lat="41.84483" lon="9.20891">
        <ele>1749.6</ele>
        <time>2015-06-20T05:19:04Z</time>
      </trkpt>
      <trkpt lat="41.84486" lon="9.20888">
        <ele>1751.2</ele>
        <time>2015-06-20T05:19:17Z</time>
      </trkpt>
      <trkpt lat="41.84486" lon="9.20885">
        <ele>1751.6</ele>
        <time>2015-06-20T05:19:25Z</time>
      </trkpt>
      <trkpt lat="41.84485" lon="9.20882">
        <ele>1753</ele>
        <time>2015-06-20T05:19:35Z</time>
      </trkpt>
      <trkpt lat="41.84489" lon="9.20885">
        <ele>1754.4</ele>
        <time>2015-06-20T05:20:01Z</time>
      </trkpt>
      <trkpt lat="41.84489" lon="9.20884">
        <ele>1755.2</ele>
        <time>2015-06-20T05:20:11Z</time>
      </trkpt>
      <trkpt lat="41.8449" lon="9.20881">
        <ele>1756.2</ele>
        <time>2015-06-20T05:20:28Z</time>
      </trkpt>
      <trkpt lat="41.84491" lon="9.2088">
        <ele>1757.2</ele>
        <time>2015-06-20T05:20:38Z</time>
      </trkpt>
      <trkpt lat="41.8449" lon="9.20876">
        <ele>1758.2</ele>
        <time>2015-06-20T05:20:48Z</time>
      </trkpt>
      <trkpt lat="41.84491" lon="9.20873">
        <ele>1759.4</ele>
        <time>2015-06-20T05:20:59Z</time>
      </trkpt>
      <trkpt lat="41.84491" lon="9.20872">
        <ele>1760</ele>
        <time>2015-06-20T05:21:09Z</time>
      </trkpt>
      <trkpt lat="41.84491" lon="9.2087">
        <ele>1761</ele>
        <time>2015-06-20T05:21:15Z</time>
      </trkpt>
      <trkpt lat="41.84491" lon="9.20868">
        <ele>1762.4</ele>
        <time>2015-06-20T05:21:26Z</time>
      </trkpt>
      <trkpt lat="41.84494" lon="9.20868">
        <ele>1763.6</ele>
        <time>2015-06-20T05:21:35Z</time>
      </trkpt>
      <trkpt lat="41.84497" lon="9.20867">
        <ele>1764.4</ele>
        <time>2015-06-20T05:21:46Z</time>
      </trkpt>
      <trkpt lat="41.84498" lon="9.20867">
        <ele>1765.2</ele>
        <time>2015-06-20T05:21:52Z</time>
      </trkpt>
      <trkpt lat="41.84501" lon="9.20865">
        <ele>1767</ele>
        <time>2015-06-20T05:22:03Z</time>
      </trkpt>
      <trkpt lat="41.84501" lon="9.20864">
        <ele>1767.6</ele>
        <time>2015-06-20T05:22:09Z</time>
      </trkpt>
      <trkpt lat="41.84504" lon="9.20864">
        <ele>1769.2</ele>
        <time>2015-06-20T05:22:27Z</time>
      </trkpt>
      <trkpt lat="41.84507" lon="9.20863">
        <ele>1770</ele>
        <time>2015-06-20T05:22:36Z</time>
      </trkpt>
      <trkpt lat="41.84507" lon="9.2086">
        <ele>1771.4</ele>
        <time>2015-06-20T05:22:44Z</time>
      </trkpt>
      <trkpt lat="41.84504" lon="9.20851">
        <ele>1772.8</ele>
        <time>2015-06-20T05:23:11Z</time>
      </trkpt>
      <trkpt lat="41.84505" lon="9.2085">
        <ele>1773.6</ele>
        <time>2015-06-20T05:23:18Z</time>
      </trkpt>
      <trkpt lat="41.84506" lon="9.20847">
        <ele>1774.8</ele>
        <time>2015-06-20T05:23:27Z</time>
      </trkpt>
      <trkpt lat="41.84507" lon="9.20844">
        <ele>1775.6</ele>
        <time>2015-06-20T05:23:35Z</time>
      </trkpt>
      <trkpt lat="41.84507" lon="9.20841">
        <ele>1776.6</ele>
        <time>2015-06-20T05:23:42Z</time>
      </trkpt>
      <trkpt lat="41.8451" lon="9.20839">
        <ele>1777.8</ele>
        <time>2015-06-20T05:23:50Z</time>
      </trkpt>
      <trkpt lat="41.84512" lon="9.20842">
        <ele>1779</ele>
        <time>2015-06-20T05:24:00Z</time>
      </trkpt>
      <trkpt lat="41.84515" lon="9.20842">
        <ele>1780</ele>
        <time>2015-06-20T05:24:10Z</time>
      </trkpt>
      <trkpt lat="41.84516" lon="9.20839">
        <ele>1781.2</ele>
        <time>2015-06-20T05:24:22Z</time>
      </trkpt>
      <trkpt lat="41.84516" lon="9.20836">
        <ele>1782</ele>
        <time>2015-06-20T05:24:30Z</time>
      </trkpt>
      <trkpt lat="41.84516" lon="9.20831">
        <ele>1783.6</ele>
        <time>2015-06-20T05:24:44Z</time>
      </trkpt>
      <trkpt lat="41.84519" lon="9.20833">
        <ele>1784.4</ele>
        <time>2015-06-20T05:24:54Z</time>
      </trkpt>
      <trkpt lat="41.8452" lon="9.2083">
        <ele>1785.6</ele>
        <time>2015-06-20T05:25:04Z</time>
      </trkpt>
      <trkpt lat="41.84522" lon="9.20829">
        <ele>1786.6</ele>
        <time>2015-06-20T05:25:13Z</time>
      </trkpt>
      <trkpt lat="41.84524" lon="9.20827">
        <ele>1788</ele>
        <time>2015-06-20T05:25:28Z</time>
      </trkpt>
      <trkpt lat="41.84525" lon="9.20825">
        <ele>1788.6</ele>
        <time>2015-06-20T05:25:37Z</time>
      </trkpt>
      <trkpt lat="41.84527" lon="9.20823">
        <ele>1789.8</ele>
        <time>2015-06-20T05:25:46Z</time>
      </trkpt>
      <trkpt lat="41.84527" lon="9.20821">
        <ele>1791</ele>
        <time>2015-06-20T05:25:58Z</time>
      </trkpt>
      <trkpt lat="41.84528" lon="9.20818">
        <ele>1792</ele>
        <time>2015-06-20T05:26:08Z</time>
      </trkpt>
      <trkpt lat="41.8453" lon="9.20818">
        <ele>1793</ele>
        <time>2015-06-20T05:26:17Z</time>
      </trkpt>
      <trkpt lat="41.84532" lon="9.20818">
        <ele>1794</ele>
        <time>2015-06-20T05:26:28Z</time>
      </trkpt>
      <trkpt lat="41.84534" lon="9.20819">
        <ele>1795.2</ele>
        <time>2015-06-20T05:26:36Z</time>
      </trkpt>
      <trkpt lat="41.84536" lon="9.2082">
        <ele>1796.4</ele>
        <time>2015-06-20T05:26:44Z</time>
      </trkpt>
      <trkpt lat="41.84537" lon="9.20818">
        <ele>1797.8</ele>
        <time>2015-06-20T05:26:57Z</time>
      </trkpt>
      <trkpt lat="41.84538" lon="9.20817">
        <ele>1798.8</ele>
        <time>2015-06-20T05:27:07Z</time>
      </trkpt>
      <trkpt lat="41.8454" lon="9.20818">
        <ele>1799.6</ele>
        <time>2015-06-20T05:27:18Z</time>
      </trkpt>
      <trkpt lat="41.84542" lon="9.20818">
        <ele>1800.4</ele>
        <time>2015-06-20T05:27:29Z</time>
      </trkpt>
      <trkpt lat="41.84545" lon="9.20817">
        <ele>1802</ele>
        <time>2015-06-20T05:27:45Z</time>
      </trkpt>
      <trkpt lat="41.84544" lon="9.20813">
        <ele>1803.2</ele>
        <time>2015-06-20T05:27:56Z</time>
      </trkpt>
      <trkpt lat="41.84549" lon="9.20814">
        <ele>1804.2</ele>
        <time>2015-06-20T05:28:10Z</time>
      </trkpt>
      <trkpt lat="41.84551" lon="9.20814">
        <ele>1804.8</ele>
        <time>2015-06-20T05:28:17Z</time>
      </trkpt>
      <trkpt lat="41.84555" lon="9.20816">
        <ele>1806.2</ele>
        <time>2015-06-20T05:28:28Z</time>
      </trkpt>
      <trkpt lat="41.84557" lon="9.20816">
        <ele>1807.2</ele>
        <time>2015-06-20T05:28:37Z</time>
      </trkpt>
      <trkpt lat="41.84559" lon="9.20816">
        <ele>1808.2</ele>
        <time>2015-06-20T05:28:45Z</time>
      </trkpt>
      <trkpt lat="41.84565" lon="9.20817">
        <ele>1809.8</ele>
        <time>2015-06-20T05:29:23Z</time>
      </trkpt>
      <trkpt lat="41.84566" lon="9.20818">
        <ele>1810.8</ele>
        <time>2015-06-20T05:29:34Z</time>
      </trkpt>
      <trkpt lat="41.84569" lon="9.20816">
        <ele>1811.8</ele>
        <time>2015-06-20T05:29:45Z</time>
      </trkpt>
      <trkpt lat="41.84572" lon="9.20814">
        <ele>1812.6</ele>
        <time>2015-06-20T05:29:55Z</time>
      </trkpt>
      <trkpt lat="41.84572" lon="9.2082">
        <ele>1814</ele>
        <time>2015-06-20T05:30:10Z</time>
      </trkpt>
      <trkpt lat="41.84573" lon="9.20816">
        <ele>1815</ele>
        <time>2015-06-20T05:30:27Z</time>
      </trkpt>
      <trkpt lat="41.84574" lon="9.20814">
        <ele>1816.2</ele>
        <time>2015-06-20T05:30:39Z</time>
      </trkpt>
      <trkpt lat="41.84575" lon="9.20812">
        <ele>1817.2</ele>
        <time>2015-06-20T05:30:51Z</time>
      </trkpt>
      <trkpt lat="41.84576" lon="9.20811">
        <ele>1818.2</ele>
        <time>2015-06-20T05:30:58Z</time>
      </trkpt>
      <trkpt lat="41.84579" lon="9.20812">
        <ele>1819.6</ele>
        <time>2015-06-20T05:31:09Z</time>
      </trkpt>
      <trkpt lat="41.8458" lon="9.2081">
        <ele>1820.8</ele>
        <time>2015-06-20T05:31:18Z</time>
      </trkpt>
      <trkpt lat="41.84582" lon="9.20809">
        <ele>1822</ele>
        <time>2015-06-20T05:31:30Z</time>
      </trkpt>
      <trkpt lat="41.84584" lon="9.20808">
        <ele>1822.8</ele>
        <time>2015-06-20T05:31:39Z</time>
      </trkpt>
      <trkpt lat="41.84584" lon="9.20806">
        <ele>1824</ele>
        <time>2015-06-20T05:31:54Z</time>
      </trkpt>
      <trkpt lat="41.84585" lon="9.20804">
        <ele>1825.2</ele>
        <time>2015-06-20T05:32:05Z</time>
      </trkpt>
      <trkpt lat="41.84586" lon="9.20802">
        <ele>1826.4</ele>
        <time>2015-06-20T05:32:15Z</time>
      </trkpt>
      <trkpt lat="41.84587" lon="9.208">
        <ele>1827.6</ele>
        <time>2015-06-20T05:32:26Z</time>
      </trkpt>
      <trkpt lat="41.84589" lon="9.20799">
        <ele>1828.6</ele>
        <time>2015-06-20T05:32:38Z</time>
      </trkpt>
      <trkpt lat="41.84591" lon="9.20801">
        <ele>1829.8</ele>
        <time>2015-06-20T05:32:50Z</time>
      </trkpt>
      <trkpt lat="41.84595" lon="9.20797">
        <ele>1830.8</ele>
        <time>2015-06-20T05:33:04Z</time>
      </trkpt>
      <trkpt lat="41.84593" lon="9.2079">
        <ele>1832.2</ele>
        <time>2015-06-20T05:33:14Z</time>
      </trkpt>
      <trkpt lat="41.84596" lon="9.20794">
        <ele>1833.4</ele>
        <time>2015-06-20T05:33:26Z</time>
      </trkpt>
      <trkpt lat="41.846" lon="9.20793">
        <ele>1834.4</ele>
        <time>2015-06-20T05:33:38Z</time>
      </trkpt>
      <trkpt lat="41.84604" lon="9.20792">
        <ele>1835.8</ele>
        <time>2015-06-20T05:33:53Z</time>
      </trkpt>
      <trkpt lat="41.84604" lon="9.2079">
        <ele>1836.6</ele>
        <time>2015-06-20T05:34:04Z</time>
      </trkpt>
      <trkpt lat="41.84606" lon="9.20791">
        <ele>1837.4</ele>
        <time>2015-06-20T05:34:10Z</time>
      </trkpt>
      <trkpt lat="41.84609" lon="9.20791">
        <ele>1838.8</ele>
        <time>2015-06-20T05:34:23Z</time>
      </trkpt>
      <trkpt lat="41.8461" lon="9.20791">
        <ele>1840</ele>
        <time>2015-06-20T05:34:34Z</time>
      </trkpt>
      <trkpt lat="41.84612" lon="9.20788">
        <ele>1841</ele>
        <time>2015-06-20T05:34:44Z</time>
      </trkpt>
      <trkpt lat="41.84614" lon="9.20789">
        <ele>1841.6</ele>
        <time>2015-06-20T05:34:53Z</time>
      </trkpt>
      <trkpt lat="41.84616" lon="9.20789">
        <ele>1842.8</ele>
        <time>2015-06-20T05:35:01Z</time>
      </trkpt>
      <trkpt lat="41.84621" lon="9.20789">
        <ele>1844.6</ele>
        <time>2015-06-20T05:35:31Z</time>
      </trkpt>
      <trkpt lat="41.84623" lon="9.2079">
        <ele>1845</ele>
        <time>2015-06-20T05:35:38Z</time>
      </trkpt>
      <trkpt lat="41.84628" lon="9.20793">
        <ele>1846.8</ele>
        <time>2015-06-20T05:35:55Z</time>
      </trkpt>
      <trkpt lat="41.84631" lon="9.20792">
        <ele>1847.6</ele>
        <time>2015-06-20T05:36:04Z</time>
      </trkpt>
      <trkpt lat="41.84633" lon="9.20791">
        <ele>1848.8</ele>
        <time>2015-06-20T05:36:14Z</time>
      </trkpt>
      <trkpt lat="41.84635" lon="9.20793">
        <ele>1850</ele>
        <time>2015-06-20T05:36:24Z</time>
      </trkpt>
      <trkpt lat="41.84636" lon="9.20796">
        <ele>1851</ele>
        <time>2015-06-20T05:36:33Z</time>
      </trkpt>
      <trkpt lat="41.84637" lon="9.208">
        <ele>1852.4</ele>
        <time>2015-06-20T05:36:48Z</time>
      </trkpt>
      <trkpt lat="41.8464" lon="9.20798">
        <ele>1852.8</ele>
        <time>2015-06-20T05:36:56Z</time>
      </trkpt>
      <trkpt lat="41.84642" lon="9.20796">
        <ele>1854.4</ele>
        <time>2015-06-20T05:37:12Z</time>
      </trkpt>
      <trkpt lat="41.84644" lon="9.20797">
        <ele>1855.6</ele>
        <time>2015-06-20T05:37:24Z</time>
      </trkpt>
      <trkpt lat="41.84644" lon="9.20799">
        <ele>1856.6</ele>
        <time>2015-06-20T05:37:36Z</time>
      </trkpt>
      <trkpt lat="41.84647" lon="9.20796">
        <ele>1857.6</ele>
        <time>2015-06-20T05:37:49Z</time>
      </trkpt>
      <trkpt lat="41.84649" lon="9.20795">
        <ele>1858.6</ele>
        <time>2015-06-20T05:38:00Z</time>
      </trkpt>
      <trkpt lat="41.84649" lon="9.2079">
        <ele>1859.8</ele>
        <time>2015-06-20T05:38:13Z</time>
      </trkpt>
      <trkpt lat="41.8465" lon="9.20788">
        <ele>1860.6</ele>
        <time>2015-06-20T05:38:22Z</time>
      </trkpt>
      <trkpt lat="41.8465" lon="9.20787">
        <ele>1862.4</ele>
        <time>2015-06-20T05:38:36Z</time>
      </trkpt>
      <trkpt lat="41.8465" lon="9.20785">
        <ele>1863.2</ele>
        <time>2015-06-20T05:38:48Z</time>
      </trkpt>
      <trkpt lat="41.8465" lon="9.20782">
        <ele>1864.2</ele>
        <time>2015-06-20T05:39:02Z</time>
      </trkpt>
      <trkpt lat="41.84651" lon="9.20777">
        <ele>1865.2</ele>
        <time>2015-06-20T05:39:13Z</time>
      </trkpt>
      <trkpt lat="41.84651" lon="9.20775">
        <ele>1866</ele>
        <time>2015-06-20T05:39:23Z</time>
      </trkpt>
      <trkpt lat="41.84653" lon="9.20769">
        <ele>1867.4</ele>
        <time>2015-06-20T05:39:39Z</time>
      </trkpt>
      <trkpt lat="41.84653" lon="9.20767">
        <ele>1868.4</ele>
        <time>2015-06-20T05:39:47Z</time>
      </trkpt>
      <trkpt lat="41.84652" lon="9.20766">
        <ele>1869.8</ele>
        <time>2015-06-20T05:39:58Z</time>
      </trkpt>
      <trkpt lat="41.84654" lon="9.20764">
        <ele>1871.2</ele>
        <time>2015-06-20T05:40:13Z</time>
      </trkpt>
      <trkpt lat="41.84656" lon="9.20765">
        <ele>1871.6</ele>
        <time>2015-06-20T05:40:21Z</time>
      </trkpt>
      <trkpt lat="41.84661" lon="9.20761">
        <ele>1873.4</ele>
        <time>2015-06-20T05:40:36Z</time>
      </trkpt>
      <trkpt lat="41.84661" lon="9.2076">
        <ele>1873.4</ele>
        <time>2015-06-20T05:40:38Z</time>
      </trkpt>
      <trkpt lat="41.84662" lon="9.20763">
        <ele>1874.4</ele>
        <time>2015-06-20T05:40:47Z</time>
      </trkpt>
      <trkpt lat="41.84664" lon="9.20768">
        <ele>1875.4</ele>
        <time>2015-06-20T05:40:57Z</time>
      </trkpt>
      <trkpt lat="41.84672" lon="9.20777">
        <ele>1876.2</ele>
        <time>2015-06-20T05:41:41Z</time>
      </trkpt>
      <trkpt lat="41.84672" lon="9.2077">
        <ele>1877.8</ele>
        <time>2015-06-20T05:41:50Z</time>
      </trkpt>
      <trkpt lat="41.84674" lon="9.20769">
        <ele>1878.6</ele>
        <time>2015-06-20T05:41:58Z</time>
      </trkpt>
      <trkpt lat="41.84676" lon="9.20768">
        <ele>1879.8</ele>
        <time>2015-06-20T05:42:05Z</time>
      </trkpt>
      <trkpt lat="41.84678" lon="9.20768">
        <ele>1881</ele>
        <time>2015-06-20T05:42:14Z</time>
      </trkpt>
      <trkpt lat="41.84678" lon="9.20765">
        <ele>1882.2</ele>
        <time>2015-06-20T05:42:23Z</time>
      </trkpt>
      <trkpt lat="41.84678" lon="9.20764">
        <ele>1883.8</ele>
        <time>2015-06-20T05:42:27Z</time>
      </trkpt>
      <trkpt lat="41.84596" lon="9.20364">
        <ele>2001</ele>
        <time>2015-06-20T06:22:47Z</time>
      </trkpt>
      <trkpt lat="41.84593" lon="9.20363">
        <ele>2001.2</ele>
        <time>2015-06-20T06:23:43Z</time>
      </trkpt>
      <trkpt lat="41.84593" lon="9.20361">
        <ele>2001.8</ele>
        <time>2015-06-20T06:24:19Z</time>
      </trkpt>
      <trkpt lat="41.84591" lon="9.20363">
        <ele>2001.6</ele>
        <time>2015-06-20T06:25:40Z</time>
      </trkpt>
      <trkpt lat="41.84598" lon="9.20361">
        <ele>2001.2</ele>
        <time>2015-06-20T06:26:56Z</time>
      </trkpt>
      <trkpt lat="41.846" lon="9.2036">
        <ele>2001</ele>
        <time>2015-06-20T06:28:28Z</time>
      </trkpt>
      <trkpt lat="41.84604" lon="9.20367">
        <ele>2001</ele>
        <time>2015-06-20T06:29:59Z</time>
      </trkpt>
      <trkpt lat="41.84608" lon="9.20369">
        <ele>2001.4</ele>
        <time>2015-06-20T06:30:05Z</time>
      </trkpt>
      <trkpt lat="41.84608" lon="9.20368">
        <ele>2001.6</ele>
        <time>2015-06-20T06:30:09Z</time>
      </trkpt>
      <trkpt lat="41.84601" lon="9.20366">
        <ele>2002.2</ele>
        <time>2015-06-20T06:30:25Z</time>
      </trkpt>
      <trkpt lat="41.84601" lon="9.20365">
        <ele>2001.4</ele>
        <time>2015-06-20T06:30:41Z</time>
      </trkpt>
      <trkpt lat="41.84594" lon="9.20366">
        <ele>2001.2</ele>
        <time>2015-06-20T06:32:10Z</time>
      </trkpt>
      <trkpt lat="41.84594" lon="9.20366">
        <ele>2001.2</ele>
        <time>2015-06-20T06:32:12Z</time>
      </trkpt>
      <trkpt lat="41.84614" lon="9.20372">
        <ele>2001</ele>
        <time>2015-06-20T06:33:16Z</time>
      </trkpt>
      <trkpt lat="41.84622" lon="9.20373">
        <ele>2001.8</ele>
        <time>2015-06-20T06:33:23Z</time>
      </trkpt>
      <trkpt lat="41.84629" lon="9.20375">
        <ele>2002</ele>
        <time>2015-06-20T06:33:30Z</time>
      </trkpt>
      <trkpt lat="41.84634" lon="9.20377">
        <ele>2002</ele>
        <time>2015-06-20T06:33:36Z</time>
      </trkpt>
      <trkpt lat="41.84638" lon="9.20377">
        <ele>2002.2</ele>
        <time>2015-06-20T06:33:40Z</time>
      </trkpt>
      <trkpt lat="41.84651" lon="9.20377">
        <ele>2003.2</ele>
        <time>2015-06-20T06:33:57Z</time>
      </trkpt>
      <trkpt lat="41.84651" lon="9.20378">
        <ele>2003.2</ele>
        <time>2015-06-20T06:34:00Z</time>
      </trkpt>
      <trkpt lat="41.84656" lon="9.20376">
        <ele>2003.4</ele>
        <time>2015-06-20T06:34:07Z</time>
      </trkpt>
      <trkpt lat="41.8467" lon="9.20374">
        <ele>2004.2</ele>
        <time>2015-06-20T06:34:26Z</time>
      </trkpt>
      <trkpt lat="41.84687" lon="9.20382">
        <ele>2002.6</ele>
        <time>2015-06-20T06:34:51Z</time>
      </trkpt>
      <trkpt lat="41.84698" lon="9.20384">
        <ele>2003.8</ele>
        <time>2015-06-20T06:35:07Z</time>
      </trkpt>
      <trkpt lat="41.84706" lon="9.20386">
        <ele>2004.4</ele>
        <time>2015-06-20T06:35:22Z</time>
      </trkpt>
      <trkpt lat="41.84709" lon="9.20391">
        <ele>2005</ele>
        <time>2015-06-20T06:35:33Z</time>
      </trkpt>
      <trkpt lat="41.84711" lon="9.20392">
        <ele>2005.8</ele>
        <time>2015-06-20T06:35:38Z</time>
      </trkpt>
      <trkpt lat="41.84712" lon="9.20392">
        <ele>2006</ele>
        <time>2015-06-20T06:35:41Z</time>
      </trkpt>
      <trkpt lat="41.84719" lon="9.20396">
        <ele>2007.4</ele>
        <time>2015-06-20T06:36:02Z</time>
      </trkpt>
      <trkpt lat="41.84719" lon="9.20398">
        <ele>2007.8</ele>
        <time>2015-06-20T06:36:09Z</time>
      </trkpt>
      <trkpt lat="41.84722" lon="9.20399">
        <ele>2009</ele>
        <time>2015-06-20T06:36:18Z</time>
      </trkpt>
      <trkpt lat="41.84728" lon="9.204">
        <ele>2010.2</ele>
        <time>2015-06-20T06:36:29Z</time>
      </trkpt>
      <trkpt lat="41.84731" lon="9.20403">
        <ele>2010.8</ele>
        <time>2015-06-20T06:36:38Z</time>
      </trkpt>
      <trkpt lat="41.84736" lon="9.20404">
        <ele>2012</ele>
        <time>2015-06-20T06:36:45Z</time>
      </trkpt>
      <trkpt lat="41.84742" lon="9.204">
        <ele>2012</ele>
        <time>2015-06-20T06:36:58Z</time>
      </trkpt>
      <trkpt lat="41.84743" lon="9.20399">
        <ele>2012.2</ele>
        <time>2015-06-20T06:37:00Z</time>
      </trkpt>
      <trkpt lat="41.84747" lon="9.204">
        <ele>2011</ele>
        <time>2015-06-20T06:37:07Z</time>
      </trkpt>
      <trkpt lat="41.84754" lon="9.20399">
        <ele>2009.6</ele>
        <time>2015-06-20T06:37:20Z</time>
      </trkpt>
      <trkpt lat="41.84762" lon="9.20402">
        <ele>2009.4</ele>
        <time>2015-06-20T06:37:38Z</time>
      </trkpt>
      <trkpt lat="41.84768" lon="9.20408">
        <ele>2009.6</ele>
        <time>2015-06-20T06:37:57Z</time>
      </trkpt>
      <trkpt lat="41.84769" lon="9.20411">
        <ele>2010.8</ele>
        <time>2015-06-20T06:38:05Z</time>
      </trkpt>
      <trkpt lat="41.84771" lon="9.20415">
        <ele>2012</ele>
        <time>2015-06-20T06:38:14Z</time>
      </trkpt>
      <trkpt lat="41.84775" lon="9.20416">
        <ele>2013.2</ele>
        <time>2015-06-20T06:38:22Z</time>
      </trkpt>
      <trkpt lat="41.84778" lon="9.20419">
        <ele>2014</ele>
        <time>2015-06-20T06:38:31Z</time>
      </trkpt>
      <trkpt lat="41.84777" lon="9.20423">
        <ele>2015.2</ele>
        <time>2015-06-20T06:38:41Z</time>
      </trkpt>
      <trkpt lat="41.84777" lon="9.20424">
        <ele>2015.8</ele>
        <time>2015-06-20T06:38:47Z</time>
      </trkpt>
      <trkpt lat="41.84781" lon="9.20427">
        <ele>2017.2</ele>
        <time>2015-06-20T06:38:59Z</time>
      </trkpt>
      <trkpt lat="41.84781" lon="9.2043">
        <ele>2017.8</ele>
        <time>2015-06-20T06:39:10Z</time>
      </trkpt>
      <trkpt lat="41.8478" lon="9.20433">
        <ele>2019.6</ele>
        <time>2015-06-20T06:39:21Z</time>
      </trkpt>
      <trkpt lat="41.8478" lon="9.20436">
        <ele>2020.4</ele>
        <time>2015-06-20T06:39:34Z</time>
      </trkpt>
      <trkpt lat="41.84781" lon="9.2044">
        <ele>2021.4</ele>
        <time>2015-06-20T06:39:44Z</time>
      </trkpt>
      <trkpt lat="41.8478" lon="9.20442">
        <ele>2022.2</ele>
        <time>2015-06-20T06:39:53Z</time>
      </trkpt>
      <trkpt lat="41.84779" lon="9.20443">
        <ele>2023.4</ele>
        <time>2015-06-20T06:40:03Z</time>
      </trkpt>
      <trkpt lat="41.84781" lon="9.20443">
        <ele>2024.6</ele>
        <time>2015-06-20T06:40:29Z</time>
      </trkpt>
      <trkpt lat="41.84774" lon="9.20448">
        <ele>2024.8</ele>
        <time>2015-06-20T06:40:52Z</time>
      </trkpt>
      <trkpt lat="41.84772" lon="9.20449">
        <ele>2025.4</ele>
        <time>2015-06-20T06:40:57Z</time>
      </trkpt>
      <trkpt lat="41.8477" lon="9.20451">
        <ele>2026.6</ele>
        <time>2015-06-20T06:41:03Z</time>
      </trkpt>
      <trkpt lat="41.84767" lon="9.20455">
        <ele>2028.2</ele>
        <time>2015-06-20T06:41:14Z</time>
      </trkpt>
      <trkpt lat="41.84769" lon="9.20457">
        <ele>2028.8</ele>
        <time>2015-06-20T06:41:20Z</time>
      </trkpt>
      <trkpt lat="41.84769" lon="9.2046">
        <ele>2030</ele>
        <time>2015-06-20T06:41:28Z</time>
      </trkpt>
      <trkpt lat="41.84771" lon="9.20463">
        <ele>2031.4</ele>
        <time>2015-06-20T06:41:37Z</time>
      </trkpt>
      <trkpt lat="41.8477" lon="9.20466">
        <ele>2032</ele>
        <time>2015-06-20T06:41:43Z</time>
      </trkpt>
      <trkpt lat="41.84773" lon="9.20468">
        <ele>2033.2</ele>
        <time>2015-06-20T06:41:50Z</time>
      </trkpt>
      <trkpt lat="41.84773" lon="9.20472">
        <ele>2034.4</ele>
        <time>2015-06-20T06:41:57Z</time>
      </trkpt>
      <trkpt lat="41.84771" lon="9.20473">
        <ele>2035.4</ele>
        <time>2015-06-20T06:42:04Z</time>
      </trkpt>
      <trkpt lat="41.84777" lon="9.20477">
        <ele>2036.6</ele>
        <time>2015-06-20T06:42:14Z</time>
      </trkpt>
      <trkpt lat="41.84783" lon="9.20483">
        <ele>2037.6</ele>
        <time>2015-06-20T06:42:28Z</time>
      </trkpt>
      <trkpt lat="41.84793" lon="9.20487">
        <ele>2038.8</ele>
        <time>2015-06-20T06:42:41Z</time>
      </trkpt>
      <trkpt lat="41.84799" lon="9.20492">
        <ele>2039.6</ele>
        <time>2015-06-20T06:42:53Z</time>
      </trkpt>
      <trkpt lat="41.848" lon="9.20497">
        <ele>2040.6</ele>
        <time>2015-06-20T06:43:01Z</time>
      </trkpt>
      <trkpt lat="41.84801" lon="9.20502">
        <ele>2041.4</ele>
        <time>2015-06-20T06:43:10Z</time>
      </trkpt>
      <trkpt lat="41.84803" lon="9.20505">
        <ele>2042.6</ele>
        <time>2015-06-20T06:43:17Z</time>
      </trkpt>
      <trkpt lat="41.84807" lon="9.20509">
        <ele>2044</ele>
        <time>2015-06-20T06:43:25Z</time>
      </trkpt>
      <trkpt lat="41.84809" lon="9.20513">
        <ele>2044.8</ele>
        <time>2015-06-20T06:43:33Z</time>
      </trkpt>
      <trkpt lat="41.8481" lon="9.20516">
        <ele>2046</ele>
        <time>2015-06-20T06:43:41Z</time>
      </trkpt>
      <trkpt lat="41.84811" lon="9.20521">
        <ele>2047</ele>
        <time>2015-06-20T06:43:51Z</time>
      </trkpt>
      <trkpt lat="41.84813" lon="9.20521">
        <ele>2047.8</ele>
        <time>2015-06-20T06:43:58Z</time>
      </trkpt>
      <trkpt lat="41.84817" lon="9.20525">
        <ele>2049.6</ele>
        <time>2015-06-20T06:44:10Z</time>
      </trkpt>
      <trkpt lat="41.84819" lon="9.20529">
        <ele>2050.4</ele>
        <time>2015-06-20T06:44:47Z</time>
      </trkpt>
      <trkpt lat="41.84821" lon="9.20535">
        <ele>2051</ele>
        <time>2015-06-20T06:45:00Z</time>
      </trkpt>
      <trkpt lat="41.84822" lon="9.20535">
        <ele>2051.2</ele>
        <time>2015-06-20T06:45:01Z</time>
      </trkpt>
      <trkpt lat="41.84822" lon="9.2054">
        <ele>2051.8</ele>
        <time>2015-06-20T06:45:09Z</time>
      </trkpt>
      <trkpt lat="41.84827" lon="9.20541">
        <ele>2052.8</ele>
        <time>2015-06-20T06:45:16Z</time>
      </trkpt>
      <trkpt lat="41.8484" lon="9.2055">
        <ele>2053.6</ele>
        <time>2015-06-20T06:45:37Z</time>
      </trkpt>
      <trkpt lat="41.84843" lon="9.20564">
        <ele>2054.8</ele>
        <time>2015-06-20T06:45:56Z</time>
      </trkpt>
      <trkpt lat="41.84844" lon="9.20569">
        <ele>2055.4</ele>
        <time>2015-06-20T06:46:02Z</time>
      </trkpt>
      <trkpt lat="41.84847" lon="9.20571">
        <ele>2056</ele>
        <time>2015-06-20T06:46:06Z</time>
      </trkpt>
      <trkpt lat="41.84851" lon="9.20572">
        <ele>2056.6</ele>
        <time>2015-06-20T06:46:10Z</time>
      </trkpt>
      <trkpt lat="41.84856" lon="9.20575">
        <ele>2057.8</ele>
        <time>2015-06-20T06:46:24Z</time>
      </trkpt>
      <trkpt lat="41.84859" lon="9.20575">
        <ele>2058.8</ele>
        <time>2015-06-20T06:46:33Z</time>
      </trkpt>
      <trkpt lat="41.84861" lon="9.20576">
        <ele>2059.6</ele>
        <time>2015-06-20T06:46:43Z</time>
      </trkpt>
      <trkpt lat="41.8487" lon="9.20588">
        <ele>2060</ele>
        <time>2015-06-20T06:47:11Z</time>
      </trkpt>
      <trkpt lat="41.84875" lon="9.20609">
        <ele>2059.2</ele>
        <time>2015-06-20T06:47:45Z</time>
      </trkpt>
      <trkpt lat="41.84874" lon="9.20614">
        <ele>2060.2</ele>
        <time>2015-06-20T06:47:53Z</time>
      </trkpt>
      <trkpt lat="41.84875" lon="9.20617">
        <ele>2061.4</ele>
        <time>2015-06-20T06:48:02Z</time>
      </trkpt>
      <trkpt lat="41.84877" lon="9.20617">
        <ele>2062.6</ele>
        <time>2015-06-20T06:48:14Z</time>
      </trkpt>
      <trkpt lat="41.84883" lon="9.20614">
        <ele>2063.4</ele>
        <time>2015-06-20T06:48:29Z</time>
      </trkpt>
      <trkpt lat="41.84886" lon="9.20616">
        <ele>2064.2</ele>
        <time>2015-06-20T06:48:40Z</time>
      </trkpt>
      <trkpt lat="41.84885" lon="9.20618">
        <ele>2065.4</ele>
        <time>2015-06-20T06:48:53Z</time>
      </trkpt>
      <trkpt lat="41.84887" lon="9.20619">
        <ele>2066.2</ele>
        <time>2015-06-20T06:49:00Z</time>
      </trkpt>
      <trkpt lat="41.84889" lon="9.20623">
        <ele>2067.6</ele>
        <time>2015-06-20T06:49:11Z</time>
      </trkpt>
      <trkpt lat="41.84891" lon="9.20625">
        <ele>2068.6</ele>
        <time>2015-06-20T06:49:18Z</time>
      </trkpt>
      <trkpt lat="41.8489" lon="9.20628">
        <ele>2069.6</ele>
        <time>2015-06-20T06:49:28Z</time>
      </trkpt>
      <trkpt lat="41.84893" lon="9.20629">
        <ele>2070.4</ele>
        <time>2015-06-20T06:49:36Z</time>
      </trkpt>
      <trkpt lat="41.84898" lon="9.20631">
        <ele>2071.8</ele>
        <time>2015-06-20T06:49:47Z</time>
      </trkpt>
      <trkpt lat="41.84903" lon="9.2063">
        <ele>2072.6</ele>
        <time>2015-06-20T06:49:57Z</time>
      </trkpt>
      <trkpt lat="41.84906" lon="9.20638">
        <ele>2074</ele>
        <time>2015-06-20T06:50:14Z</time>
      </trkpt>
      <trkpt lat="41.84903" lon="9.20638">
        <ele>2074.8</ele>
        <time>2015-06-20T06:50:22Z</time>
      </trkpt>
      <trkpt lat="41.84903" lon="9.20642">
        <ele>2075.8</ele>
        <time>2015-06-20T06:50:31Z</time>
      </trkpt>
      <trkpt lat="41.84907" lon="9.20643">
        <ele>2077</ele>
        <time>2015-06-20T06:50:40Z</time>
      </trkpt>
      <trkpt lat="41.84908" lon="9.20644">
        <ele>2077</ele>
        <time>2015-06-20T06:50:41Z</time>
      </trkpt>
      <trkpt lat="41.84911" lon="9.20641">
        <ele>2078.4</ele>
        <time>2015-06-20T06:50:54Z</time>
      </trkpt>
      <trkpt lat="41.84911" lon="9.20642">
        <ele>2079.2</ele>
        <time>2015-06-20T06:51:05Z</time>
      </trkpt>
      <trkpt lat="41.84913" lon="9.20644">
        <ele>2079.8</ele>
        <time>2015-06-20T06:51:13Z</time>
      </trkpt>
      <trkpt lat="41.84912" lon="9.20646">
        <ele>2080.8</ele>
        <time>2015-06-20T06:51:21Z</time>
      </trkpt>
      <trkpt lat="41.84915" lon="9.20648">
        <ele>2082</ele>
        <time>2015-06-20T06:51:30Z</time>
      </trkpt>
      <trkpt lat="41.8492" lon="9.20649">
        <ele>2083.2</ele>
        <time>2015-06-20T06:51:42Z</time>
      </trkpt>
      <trkpt lat="41.84927" lon="9.20657">
        <ele>2084.6</ele>
        <time>2015-06-20T06:51:57Z</time>
      </trkpt>
      <trkpt lat="41.84932" lon="9.20666">
        <ele>2085.4</ele>
        <time>2015-06-20T06:52:16Z</time>
      </trkpt>
      <trkpt lat="41.8494" lon="9.20671">
        <ele>2086.4</ele>
        <time>2015-06-20T06:52:29Z</time>
      </trkpt>
      <trkpt lat="41.8494" lon="9.20673">
        <ele>2086.8</ele>
        <time>2015-06-20T06:52:37Z</time>
      </trkpt>
      <trkpt lat="41.84936" lon="9.20675">
        <ele>2088</ele>
        <time>2015-06-20T06:52:45Z</time>
      </trkpt>
      <trkpt lat="41.84933" lon="9.20678">
        <ele>2089.2</ele>
        <time>2015-06-20T06:52:55Z</time>
      </trkpt>
      <trkpt lat="41.84931" lon="9.2068">
        <ele>2090</ele>
        <time>2015-06-20T06:53:08Z</time>
      </trkpt>
      <trkpt lat="41.84935" lon="9.20685">
        <ele>2091.2</ele>
        <time>2015-06-20T06:53:20Z</time>
      </trkpt>
      <trkpt lat="41.84938" lon="9.20688">
        <ele>2092</ele>
        <time>2015-06-20T06:53:32Z</time>
      </trkpt>
      <trkpt lat="41.84942" lon="9.20695">
        <ele>2093.4</ele>
        <time>2015-06-20T06:53:43Z</time>
      </trkpt>
      <trkpt lat="41.84945" lon="9.20702">
        <ele>2094.2</ele>
        <time>2015-06-20T06:53:55Z</time>
      </trkpt>
      <trkpt lat="41.8495" lon="9.20706">
        <ele>2095</ele>
        <time>2015-06-20T06:54:04Z</time>
      </trkpt>
      <trkpt lat="41.84956" lon="9.20712">
        <ele>2096.2</ele>
        <time>2015-06-20T06:54:18Z</time>
      </trkpt>
      <trkpt lat="41.84963" lon="9.2072">
        <ele>2097.8</ele>
        <time>2015-06-20T06:54:31Z</time>
      </trkpt>
      <trkpt lat="41.84969" lon="9.20724">
        <ele>2098.4</ele>
        <time>2015-06-20T06:54:42Z</time>
      </trkpt>
      <trkpt lat="41.84975" lon="9.2073">
        <ele>2099</ele>
        <time>2015-06-20T06:54:53Z</time>
      </trkpt>
      <trkpt lat="41.84978" lon="9.20741">
        <ele>2100.2</ele>
        <time>2015-06-20T06:55:06Z</time>
      </trkpt>
      <trkpt lat="41.84974" lon="9.20747">
        <ele>2101</ele>
        <time>2015-06-20T06:55:18Z</time>
      </trkpt>
      <trkpt lat="41.84973" lon="9.20748">
        <ele>2101.2</ele>
        <time>2015-06-20T06:55:21Z</time>
      </trkpt>
      <trkpt lat="41.8497" lon="9.20756">
        <ele>2102.4</ele>
        <time>2015-06-20T06:55:35Z</time>
      </trkpt>
      <trkpt lat="41.84968" lon="9.20759">
        <ele>2103</ele>
        <time>2015-06-20T06:55:41Z</time>
      </trkpt>
      <trkpt lat="41.84965" lon="9.2076">
        <ele>2104.4</ele>
        <time>2015-06-20T06:55:50Z</time>
      </trkpt>
      <trkpt lat="41.84971" lon="9.20766">
        <ele>2104.8</ele>
        <time>2015-06-20T06:58:10Z</time>
      </trkpt>
      <trkpt lat="41.84971" lon="9.20765">
        <ele>2104.4</ele>
        <time>2015-06-20T07:00:00Z</time>
      </trkpt>
      <trkpt lat="41.84989" lon="9.20771">
        <ele>2103.2</ele>
        <time>2015-06-20T07:00:21Z</time>
      </trkpt>
      <trkpt lat="41.84991" lon="9.20771">
        <ele>2103</ele>
        <time>2015-06-20T07:00:24Z</time>
      </trkpt>
      <trkpt lat="41.84999" lon="9.2077">
        <ele>2101.2</ele>
        <time>2015-06-20T07:00:32Z</time>
      </trkpt>
      <trkpt lat="41.85004" lon="9.20771">
        <ele>2100.4</ele>
        <time>2015-06-20T07:00:37Z</time>
      </trkpt>
      <trkpt lat="41.85017" lon="9.20766">
        <ele>2098.4</ele>
        <time>2015-06-20T07:00:49Z</time>
      </trkpt>
      <trkpt lat="41.85023" lon="9.20768">
        <ele>2098</ele>
        <time>2015-06-20T07:00:55Z</time>
      </trkpt>
      <trkpt lat="41.85028" lon="9.20769">
        <ele>2097.8</ele>
        <time>2015-06-20T07:01:00Z</time>
      </trkpt>
      <trkpt lat="41.85029" lon="9.20769">
        <ele>2098</ele>
        <time>2015-06-20T07:01:02Z</time>
      </trkpt>
      <trkpt lat="41.85036" lon="9.20764">
        <ele>2097</ele>
        <time>2015-06-20T07:01:27Z</time>
      </trkpt>
      <trkpt lat="41.85037" lon="9.20759">
        <ele>2096.2</ele>
        <time>2015-06-20T07:01:36Z</time>
      </trkpt>
      <trkpt lat="41.8504" lon="9.20759">
        <ele>2095.2</ele>
        <time>2015-06-20T07:01:42Z</time>
      </trkpt>
      <trkpt lat="41.85043" lon="9.20759">
        <ele>2094</ele>
        <time>2015-06-20T07:01:49Z</time>
      </trkpt>
      <trkpt lat="41.85045" lon="9.20755">
        <ele>2092.6</ele>
        <time>2015-06-20T07:01:59Z</time>
      </trkpt>
      <trkpt lat="41.85049" lon="9.20753">
        <ele>2091.8</ele>
        <time>2015-06-20T07:02:06Z</time>
      </trkpt>
      <trkpt lat="41.85052" lon="9.20756">
        <ele>2091.2</ele>
        <time>2015-06-20T07:02:10Z</time>
      </trkpt>
      <trkpt lat="41.85054" lon="9.20758">
        <ele>2090.4</ele>
        <time>2015-06-20T07:02:13Z</time>
      </trkpt>
      <trkpt lat="41.85057" lon="9.2076">
        <ele>2089.6</ele>
        <time>2015-06-20T07:02:16Z</time>
      </trkpt>
      <trkpt lat="41.85059" lon="9.20761">
        <ele>2089.4</ele>
        <time>2015-06-20T07:02:18Z</time>
      </trkpt>
      <trkpt lat="41.85069" lon="9.20761">
        <ele>2088.8</ele>
        <time>2015-06-20T07:02:32Z</time>
      </trkpt>
      <trkpt lat="41.85075" lon="9.20762">
        <ele>2088.2</ele>
        <time>2015-06-20T07:02:40Z</time>
      </trkpt>
      <trkpt lat="41.85082" lon="9.20762">
        <ele>2086.8</ele>
        <time>2015-06-20T07:02:56Z</time>
      </trkpt>
      <trkpt lat="41.85086" lon="9.20763">
        <ele>2085.6</ele>
        <time>2015-06-20T07:03:04Z</time>
      </trkpt>
      <trkpt lat="41.85089" lon="9.20762">
        <ele>2084.6</ele>
        <time>2015-06-20T07:03:15Z</time>
      </trkpt>
      <trkpt lat="41.85093" lon="9.20764">
        <ele>2083.8</ele>
        <time>2015-06-20T07:03:20Z</time>
      </trkpt>
      <trkpt lat="41.85094" lon="9.20765">
        <ele>2083.2</ele>
        <time>2015-06-20T07:03:22Z</time>
      </trkpt>
      <trkpt lat="41.851" lon="9.2077">
        <ele>2081.6</ele>
        <time>2015-06-20T07:03:37Z</time>
      </trkpt>
      <trkpt lat="41.85101" lon="9.20767">
        <ele>2081.4</ele>
        <time>2015-06-20T07:03:42Z</time>
      </trkpt>
      <trkpt lat="41.85105" lon="9.20767">
        <ele>2079.8</ele>
        <time>2015-06-20T07:03:49Z</time>
      </trkpt>
      <trkpt lat="41.85108" lon="9.20766">
        <ele>2078.4</ele>
        <time>2015-06-20T07:03:59Z</time>
      </trkpt>
      <trkpt lat="41.85112" lon="9.20766">
        <ele>2077.4</ele>
        <time>2015-06-20T07:04:07Z</time>
      </trkpt>
      <trkpt lat="41.85116" lon="9.20771">
        <ele>2076.2</ele>
        <time>2015-06-20T07:04:14Z</time>
      </trkpt>
      <trkpt lat="41.8512" lon="9.20769">
        <ele>2074.8</ele>
        <time>2015-06-20T07:04:28Z</time>
      </trkpt>
      <trkpt lat="41.85123" lon="9.20768">
        <ele>2074.2</ele>
        <time>2015-06-20T07:04:34Z</time>
      </trkpt>
      <trkpt lat="41.85128" lon="9.20768">
        <ele>2072.8</ele>
        <time>2015-06-20T07:04:41Z</time>
      </trkpt>
      <trkpt lat="41.85135" lon="9.2077">
        <ele>2071.6</ele>
        <time>2015-06-20T07:04:49Z</time>
      </trkpt>
      <trkpt lat="41.85142" lon="9.20778">
        <ele>2070.2</ele>
        <time>2015-06-20T07:05:00Z</time>
      </trkpt>
      <trkpt lat="41.8516" lon="9.20783">
        <ele>2068.8</ele>
        <time>2015-06-20T07:05:19Z</time>
      </trkpt>
      <trkpt lat="41.85166" lon="9.20784">
        <ele>2068.6</ele>
        <time>2015-06-20T07:05:25Z</time>
      </trkpt>
      <trkpt lat="41.85167" lon="9.20785">
        <ele>2068.4</ele>
        <time>2015-06-20T07:05:27Z</time>
      </trkpt>
      <trkpt lat="41.85172" lon="9.20784">
        <ele>2068</ele>
        <time>2015-06-20T07:05:35Z</time>
      </trkpt>
      <trkpt lat="41.85176" lon="9.20781">
        <ele>2066.8</ele>
        <time>2015-06-20T07:05:50Z</time>
      </trkpt>
      <trkpt lat="41.85182" lon="9.20781">
        <ele>2066</ele>
        <time>2015-06-20T07:05:58Z</time>
      </trkpt>
      <trkpt lat="41.85183" lon="9.20782">
        <ele>2065.6</ele>
        <time>2015-06-20T07:05:59Z</time>
      </trkpt>
      <trkpt lat="41.85185" lon="9.20784">
        <ele>2065.4</ele>
        <time>2015-06-20T07:06:02Z</time>
      </trkpt>
      <trkpt lat="41.85187" lon="9.20785">
        <ele>2064.6</ele>
        <time>2015-06-20T07:06:08Z</time>
      </trkpt>
      <trkpt lat="41.85197" lon="9.20788">
        <ele>2063.2</ele>
        <time>2015-06-20T07:06:22Z</time>
      </trkpt>
      <trkpt lat="41.85198" lon="9.20789">
        <ele>2063</ele>
        <time>2015-06-20T07:06:24Z</time>
      </trkpt>
      <trkpt lat="41.85201" lon="9.20788">
        <ele>2062.8</ele>
        <time>2015-06-20T07:06:28Z</time>
      </trkpt>
      <trkpt lat="41.85203" lon="9.20786">
        <ele>2062.2</ele>
        <time>2015-06-20T07:06:31Z</time>
      </trkpt>
      <trkpt lat="41.85205" lon="9.20786">
        <ele>2061.8</ele>
        <time>2015-06-20T07:06:34Z</time>
      </trkpt>
      <trkpt lat="41.85208" lon="9.2078">
        <ele>2060.2</ele>
        <time>2015-06-20T07:06:43Z</time>
      </trkpt>
      <trkpt lat="41.85213" lon="9.20776">
        <ele>2059.4</ele>
        <time>2015-06-20T07:06:51Z</time>
      </trkpt>
      <trkpt lat="41.85219" lon="9.20778">
        <ele>2058.2</ele>
        <time>2015-06-20T07:06:59Z</time>
      </trkpt>
      <trkpt lat="41.85224" lon="9.20776">
        <ele>2057</ele>
        <time>2015-06-20T07:07:08Z</time>
      </trkpt>
      <trkpt lat="41.85227" lon="9.20773">
        <ele>2055.8</ele>
        <time>2015-06-20T07:07:18Z</time>
      </trkpt>
      <trkpt lat="41.8523" lon="9.20772">
        <ele>2055</ele>
        <time>2015-06-20T07:07:24Z</time>
      </trkpt>
      <trkpt lat="41.85232" lon="9.20769">
        <ele>2053.6</ele>
        <time>2015-06-20T07:07:32Z</time>
      </trkpt>
      <trkpt lat="41.85234" lon="9.20764">
        <ele>2052.4</ele>
        <time>2015-06-20T07:07:41Z</time>
      </trkpt>
      <trkpt lat="41.85238" lon="9.20763">
        <ele>2051.6</ele>
        <time>2015-06-20T07:07:47Z</time>
      </trkpt>
      <trkpt lat="41.85237" lon="9.20758">
        <ele>2050.6</ele>
        <time>2015-06-20T07:07:57Z</time>
      </trkpt>
      <trkpt lat="41.85235" lon="9.20752">
        <ele>2049.4</ele>
        <time>2015-06-20T07:08:05Z</time>
      </trkpt>
      <trkpt lat="41.8524" lon="9.20751">
        <ele>2048</ele>
        <time>2015-06-20T07:08:14Z</time>
      </trkpt>
      <trkpt lat="41.85244" lon="9.2075">
        <ele>2047</ele>
        <time>2015-06-20T07:08:22Z</time>
      </trkpt>
      <trkpt lat="41.8525" lon="9.2075">
        <ele>2046</ele>
        <time>2015-06-20T07:08:30Z</time>
      </trkpt>
      <trkpt lat="41.85251" lon="9.20752">
        <ele>2045.8</ele>
        <time>2015-06-20T07:08:32Z</time>
      </trkpt>
      <trkpt lat="41.85251" lon="9.20754">
        <ele>2045.4</ele>
        <time>2015-06-20T07:08:34Z</time>
      </trkpt>
      <trkpt lat="41.85253" lon="9.20755">
        <ele>2045.2</ele>
        <time>2015-06-20T07:08:36Z</time>
      </trkpt>
      <trkpt lat="41.85258" lon="9.20749">
        <ele>2045</ele>
        <time>2015-06-20T07:08:45Z</time>
      </trkpt>
      <trkpt lat="41.85262" lon="9.20747">
        <ele>2043.8</ele>
        <time>2015-06-20T07:08:53Z</time>
      </trkpt>
      <trkpt lat="41.85267" lon="9.20745">
        <ele>2042.6</ele>
        <time>2015-06-20T07:09:02Z</time>
      </trkpt>
      <trkpt lat="41.85269" lon="9.20743">
        <ele>2041.8</ele>
        <time>2015-06-20T07:09:10Z</time>
      </trkpt>
      <trkpt lat="41.85273" lon="9.20742">
        <ele>2040.8</ele>
        <time>2015-06-20T07:09:15Z</time>
      </trkpt>
      <trkpt lat="41.85291" lon="9.20735">
        <ele>2038.8</ele>
        <time>2015-06-20T07:09:36Z</time>
      </trkpt>
      <trkpt lat="41.85294" lon="9.20736">
        <ele>2038.6</ele>
        <time>2015-06-20T07:09:40Z</time>
      </trkpt>
      <trkpt lat="41.85304" lon="9.20731">
        <ele>2038</ele>
        <time>2015-06-20T07:09:52Z</time>
      </trkpt>
      <trkpt lat="41.85317" lon="9.20729">
        <ele>2038.2</ele>
        <time>2015-06-20T07:10:09Z</time>
      </trkpt>
      <trkpt lat="41.85327" lon="9.20732">
        <ele>2037</ele>
        <time>2015-06-20T07:10:19Z</time>
      </trkpt>
      <trkpt lat="41.85329" lon="9.20732">
        <ele>2036.8</ele>
        <time>2015-06-20T07:10:22Z</time>
      </trkpt>
      <trkpt lat="41.85338" lon="9.20726">
        <ele>2036.6</ele>
        <time>2015-06-20T07:10:40Z</time>
      </trkpt>
      <trkpt lat="41.85341" lon="9.20726">
        <ele>2036.4</ele>
        <time>2015-06-20T07:10:45Z</time>
      </trkpt>
      <trkpt lat="41.85344" lon="9.20727">
        <ele>2035</ele>
        <time>2015-06-20T07:10:52Z</time>
      </trkpt>
      <trkpt lat="41.85348" lon="9.20726">
        <ele>2033.2</ele>
        <time>2015-06-20T07:11:05Z</time>
      </trkpt>
      <trkpt lat="41.85353" lon="9.20726">
        <ele>2032.6</ele>
        <time>2015-06-20T07:11:17Z</time>
      </trkpt>
      <trkpt lat="41.85357" lon="9.20724">
        <ele>2031.4</ele>
        <time>2015-06-20T07:11:28Z</time>
      </trkpt>
      <trkpt lat="41.85358" lon="9.20722">
        <ele>2031</ele>
        <time>2015-06-20T07:11:32Z</time>
      </trkpt>
      <trkpt lat="41.85359" lon="9.20722">
        <ele>2029.6</ele>
        <time>2015-06-20T07:11:38Z</time>
      </trkpt>
      <trkpt lat="41.8536" lon="9.20722">
        <ele>2028.2</ele>
        <time>2015-06-20T07:11:45Z</time>
      </trkpt>
      <trkpt lat="41.85362" lon="9.2072">
        <ele>2027.2</ele>
        <time>2015-06-20T07:11:54Z</time>
      </trkpt>
      <trkpt lat="41.85369" lon="9.20722">
        <ele>2025.4</ele>
        <time>2015-06-20T07:12:15Z</time>
      </trkpt>
      <trkpt lat="41.85371" lon="9.20718">
        <ele>2025.2</ele>
        <time>2015-06-20T07:12:21Z</time>
      </trkpt>
      <trkpt lat="41.85373" lon="9.20722">
        <ele>2023.6</ele>
        <time>2015-06-20T07:12:29Z</time>
      </trkpt>
      <trkpt lat="41.85377" lon="9.20721">
        <ele>2022.8</ele>
        <time>2015-06-20T07:12:39Z</time>
      </trkpt>
      <trkpt lat="41.85381" lon="9.20719">
        <ele>2021.6</ele>
        <time>2015-06-20T07:12:45Z</time>
      </trkpt>
      <trkpt lat="41.85385" lon="9.20715">
        <ele>2020.6</ele>
        <time>2015-06-20T07:12:51Z</time>
      </trkpt>
      <trkpt lat="41.85386" lon="9.20713">
        <ele>2020</ele>
        <time>2015-06-20T07:12:54Z</time>
      </trkpt>
      <trkpt lat="41.85387" lon="9.20709">
        <ele>2019.2</ele>
        <time>2015-06-20T07:13:01Z</time>
      </trkpt>
      <trkpt lat="41.85392" lon="9.20707">
        <ele>2018.4</ele>
        <time>2015-06-20T07:13:08Z</time>
      </trkpt>
      <trkpt lat="41.85396" lon="9.20703">
        <ele>2017</ele>
        <time>2015-06-20T07:13:18Z</time>
      </trkpt>
      <trkpt lat="41.85401" lon="9.207">
        <ele>2015.6</ele>
        <time>2015-06-20T07:13:31Z</time>
      </trkpt>
      <trkpt lat="41.85405" lon="9.20698">
        <ele>2014.6</ele>
        <time>2015-06-20T07:13:40Z</time>
      </trkpt>
      <trkpt lat="41.8541" lon="9.20695">
        <ele>2013.8</ele>
        <time>2015-06-20T07:13:48Z</time>
      </trkpt>
      <trkpt lat="41.85414" lon="9.20688">
        <ele>2012.6</ele>
        <time>2015-06-20T07:13:58Z</time>
      </trkpt>
      <trkpt lat="41.85416" lon="9.20684">
        <ele>2011.8</ele>
        <time>2015-06-20T07:14:04Z</time>
      </trkpt>
      <trkpt lat="41.85417" lon="9.2068">
        <ele>2010.2</ele>
        <time>2015-06-20T07:14:12Z</time>
      </trkpt>
      <trkpt lat="41.8542" lon="9.20678">
        <ele>2009.8</ele>
        <time>2015-06-20T07:14:18Z</time>
      </trkpt>
      <trkpt lat="41.85423" lon="9.20677">
        <ele>2008</ele>
        <time>2015-06-20T07:14:27Z</time>
      </trkpt>
      <trkpt lat="41.85427" lon="9.20675">
        <ele>2007</ele>
        <time>2015-06-20T07:14:35Z</time>
      </trkpt>
      <trkpt lat="41.85431" lon="9.20675">
        <ele>2006.4</ele>
        <time>2015-06-20T07:14:40Z</time>
      </trkpt>
      <trkpt lat="41.85442" lon="9.20678">
        <ele>2004.8</ele>
        <time>2015-06-20T07:14:56Z</time>
      </trkpt>
      <trkpt lat="41.85442" lon="9.20679">
        <ele>2004.6</ele>
        <time>2015-06-20T07:14:58Z</time>
      </trkpt>
      <trkpt lat="41.85447" lon="9.20669">
        <ele>2003.4</ele>
        <time>2015-06-20T07:15:38Z</time>
      </trkpt>
      <trkpt lat="41.85446" lon="9.20664">
        <ele>2002.8</ele>
        <time>2015-06-20T07:15:44Z</time>
      </trkpt>
      <trkpt lat="41.85445" lon="9.2066">
        <ele>2002</ele>
        <time>2015-06-20T07:15:49Z</time>
      </trkpt>
      <trkpt lat="41.85444" lon="9.20651">
        <ele>2000.2</ele>
        <time>2015-06-20T07:15:56Z</time>
      </trkpt>
      <trkpt lat="41.85444" lon="9.20648">
        <ele>2000.2</ele>
        <time>2015-06-20T07:15:58Z</time>
      </trkpt>
      <trkpt lat="41.85447" lon="9.20643">
        <ele>1999.6</ele>
        <time>2015-06-20T07:16:03Z</time>
      </trkpt>
      <trkpt lat="41.85449" lon="9.2064">
        <ele>1999</ele>
        <time>2015-06-20T07:16:06Z</time>
      </trkpt>
      <trkpt lat="41.85457" lon="9.20631">
        <ele>1997.8</ele>
        <time>2015-06-20T07:16:18Z</time>
      </trkpt>
      <trkpt lat="41.85458" lon="9.2063">
        <ele>1997.6</ele>
        <time>2015-06-20T07:16:20Z</time>
      </trkpt>
      <trkpt lat="41.85461" lon="9.20627">
        <ele>1997.2</ele>
        <time>2015-06-20T07:16:24Z</time>
      </trkpt>
      <trkpt lat="41.85466" lon="9.2062">
        <ele>1995.8</ele>
        <time>2015-06-20T07:16:33Z</time>
      </trkpt>
      <trkpt lat="41.85466" lon="9.20619">
        <ele>1995.8</ele>
        <time>2015-06-20T07:16:34Z</time>
      </trkpt>
      <trkpt lat="41.85468" lon="9.20614">
        <ele>1995.2</ele>
        <time>2015-06-20T07:16:41Z</time>
      </trkpt>
      <trkpt lat="41.85471" lon="9.20612">
        <ele>1993.8</ele>
        <time>2015-06-20T07:16:49Z</time>
      </trkpt>
      <trkpt lat="41.85475" lon="9.20608">
        <ele>1993.2</ele>
        <time>2015-06-20T07:16:54Z</time>
      </trkpt>
      <trkpt lat="41.85481" lon="9.20604">
        <ele>1991.6</ele>
        <time>2015-06-20T07:17:02Z</time>
      </trkpt>
      <trkpt lat="41.85487" lon="9.20598">
        <ele>1990.8</ele>
        <time>2015-06-20T07:17:11Z</time>
      </trkpt>
      <trkpt lat="41.85495" lon="9.20596">
        <ele>1989.4</ele>
        <time>2015-06-20T07:17:21Z</time>
      </trkpt>
      <trkpt lat="41.85498" lon="9.20595">
        <ele>1989.2</ele>
        <time>2015-06-20T07:17:24Z</time>
      </trkpt>
      <trkpt lat="41.85499" lon="9.20595">
        <ele>1988.8</ele>
        <time>2015-06-20T07:17:26Z</time>
      </trkpt>
      <trkpt lat="41.85506" lon="9.20593">
        <ele>1988</ele>
        <time>2015-06-20T07:17:34Z</time>
      </trkpt>
      <trkpt lat="41.85509" lon="9.20593">
        <ele>1987.8</ele>
        <time>2015-06-20T07:17:38Z</time>
      </trkpt>
      <trkpt lat="41.85515" lon="9.20591">
        <ele>1987.4</ele>
        <time>2015-06-20T07:17:46Z</time>
      </trkpt>
      <trkpt lat="41.85519" lon="9.2059">
        <ele>1986.4</ele>
        <time>2015-06-20T07:17:52Z</time>
      </trkpt>
      <trkpt lat="41.85527" lon="9.20593">
        <ele>1985</ele>
        <time>2015-06-20T07:18:02Z</time>
      </trkpt>
      <trkpt lat="41.8553" lon="9.20596">
        <ele>1984.4</ele>
        <time>2015-06-20T07:18:06Z</time>
      </trkpt>
      <trkpt lat="41.85536" lon="9.20597">
        <ele>1984</ele>
        <time>2015-06-20T07:18:14Z</time>
      </trkpt>
      <trkpt lat="41.8554" lon="9.20597">
        <ele>1983.2</ele>
        <time>2015-06-20T07:18:20Z</time>
      </trkpt>
      <trkpt lat="41.85546" lon="9.20596">
        <ele>1982.2</ele>
        <time>2015-06-20T07:18:26Z</time>
      </trkpt>
      <trkpt lat="41.85553" lon="9.20592">
        <ele>1980.8</ele>
        <time>2015-06-20T07:18:36Z</time>
      </trkpt>
      <trkpt lat="41.85558" lon="9.20591">
        <ele>1980</ele>
        <time>2015-06-20T07:18:41Z</time>
      </trkpt>
      <trkpt lat="41.85565" lon="9.2059">
        <ele>1978.6</ele>
        <time>2015-06-20T07:18:49Z</time>
      </trkpt>
      <trkpt lat="41.85565" lon="9.2059">
        <ele>1978.6</ele>
        <time>2015-06-20T07:18:50Z</time>
      </trkpt>
      <trkpt lat="41.85568" lon="9.20586">
        <ele>1977.6</ele>
        <time>2015-06-20T07:18:57Z</time>
      </trkpt>
      <trkpt lat="41.85573" lon="9.20579">
        <ele>1976.4</ele>
        <time>2015-06-20T07:19:06Z</time>
      </trkpt>
      <trkpt lat="41.85576" lon="9.20572">
        <ele>1975.4</ele>
        <time>2015-06-20T07:19:13Z</time>
      </trkpt>
      <trkpt lat="41.85581" lon="9.20565">
        <ele>1974.2</ele>
        <time>2015-06-20T07:19:21Z</time>
      </trkpt>
      <trkpt lat="41.85584" lon="9.20561">
        <ele>1973.6</ele>
        <time>2015-06-20T07:19:26Z</time>
      </trkpt>
      <trkpt lat="41.85585" lon="9.20558">
        <ele>1973.4</ele>
        <time>2015-06-20T07:19:29Z</time>
      </trkpt>
      <trkpt lat="41.85602" lon="9.20546">
        <ele>1973.8</ele>
        <time>2015-06-20T07:20:04Z</time>
      </trkpt>
      <trkpt lat="41.85606" lon="9.20539">
        <ele>1974</ele>
        <time>2015-06-20T07:20:19Z</time>
      </trkpt>
      <trkpt lat="41.85607" lon="9.20535">
        <ele>1973</ele>
        <time>2015-06-20T07:20:27Z</time>
      </trkpt>
      <trkpt lat="41.8561" lon="9.20529">
        <ele>1972</ele>
        <time>2015-06-20T07:20:35Z</time>
      </trkpt>
      <trkpt lat="41.85611" lon="9.20524">
        <ele>1971.2</ele>
        <time>2015-06-20T07:20:42Z</time>
      </trkpt>
      <trkpt lat="41.85622" lon="9.2051">
        <ele>1969.6</ele>
        <time>2015-06-20T07:20:57Z</time>
      </trkpt>
      <trkpt lat="41.85623" lon="9.20508">
        <ele>1969.4</ele>
        <time>2015-06-20T07:20:59Z</time>
      </trkpt>
      <trkpt lat="41.85623" lon="9.20506">
        <ele>1969.4</ele>
        <time>2015-06-20T07:21:01Z</time>
      </trkpt>
      <trkpt lat="41.85626" lon="9.20505">
        <ele>1969</ele>
        <time>2015-06-20T07:21:05Z</time>
      </trkpt>
      <trkpt lat="41.85637" lon="9.20496">
        <ele>1968.6</ele>
        <time>2015-06-20T07:21:22Z</time>
      </trkpt>
      <trkpt lat="41.85644" lon="9.20492">
        <ele>1967.4</ele>
        <time>2015-06-20T07:21:32Z</time>
      </trkpt>
      <trkpt lat="41.8565" lon="9.20486">
        <ele>1966</ele>
        <time>2015-06-20T07:21:42Z</time>
      </trkpt>
      <trkpt lat="41.85652" lon="9.20479">
        <ele>1965.2</ele>
        <time>2015-06-20T07:21:51Z</time>
      </trkpt>
      <trkpt lat="41.85658" lon="9.20475">
        <ele>1964.2</ele>
        <time>2015-06-20T07:21:58Z</time>
      </trkpt>
      <trkpt lat="41.85661" lon="9.20471">
        <ele>1963.6</ele>
        <time>2015-06-20T07:22:02Z</time>
      </trkpt>
      <trkpt lat="41.85665" lon="9.20468">
        <ele>1963.4</ele>
        <time>2015-06-20T07:22:07Z</time>
      </trkpt>
      <trkpt lat="41.85669" lon="9.20465">
        <ele>1963</ele>
        <time>2015-06-20T07:22:13Z</time>
      </trkpt>
      <trkpt lat="41.85674" lon="9.20464">
        <ele>1962.6</ele>
        <time>2015-06-20T07:22:18Z</time>
      </trkpt>
      <trkpt lat="41.8568" lon="9.20464">
        <ele>1962.2</ele>
        <time>2015-06-20T07:22:25Z</time>
      </trkpt>
      <trkpt lat="41.85684" lon="9.20459">
        <ele>1961.6</ele>
        <time>2015-06-20T07:22:34Z</time>
      </trkpt>
      <trkpt lat="41.85689" lon="9.2045">
        <ele>1960.6</ele>
        <time>2015-06-20T07:22:47Z</time>
      </trkpt>
      <trkpt lat="41.85691" lon="9.20445">
        <ele>1959.8</ele>
        <time>2015-06-20T07:22:54Z</time>
      </trkpt>
      <trkpt lat="41.85704" lon="9.20436">
        <ele>1958.8</ele>
        <time>2015-06-20T07:23:09Z</time>
      </trkpt>
      <trkpt lat="41.85712" lon="9.20424">
        <ele>1958.4</ele>
        <time>2015-06-20T07:23:22Z</time>
      </trkpt>
      <trkpt lat="41.85717" lon="9.20417">
        <ele>1958</ele>
        <time>2015-06-20T07:23:29Z</time>
      </trkpt>
      <trkpt lat="41.85729" lon="9.20395">
        <ele>1957.4</ele>
        <time>2015-06-20T07:23:50Z</time>
      </trkpt>
      <trkpt lat="41.85742" lon="9.20377">
        <ele>1956.4</ele>
        <time>2015-06-20T07:24:10Z</time>
      </trkpt>
      <trkpt lat="41.85767" lon="9.20343">
        <ele>1955.8</ele>
        <time>2015-06-20T07:24:44Z</time>
      </trkpt>
      <trkpt lat="41.8577" lon="9.20323">
        <ele>1956.6</ele>
        <time>2015-06-20T07:25:00Z</time>
      </trkpt>
      <trkpt lat="41.85771" lon="9.20321">
        <ele>1956.6</ele>
        <time>2015-06-20T07:25:02Z</time>
      </trkpt>
      <trkpt lat="41.85774" lon="9.20317">
        <ele>1957.6</ele>
        <time>2015-06-20T07:26:21Z</time>
      </trkpt>
      <trkpt lat="41.85774" lon="9.20317">
        <ele>1957.6</ele>
        <time>2015-06-20T07:26:24Z</time>
      </trkpt>
      <trkpt lat="41.85774" lon="9.20318">
        <ele>1957.6</ele>
        <time>2015-06-20T07:26:27Z</time>
      </trkpt>
      <trkpt lat="41.85775" lon="9.20315">
        <ele>1957.4</ele>
        <time>2015-06-20T07:27:11Z</time>
      </trkpt>
      <trkpt lat="41.85777" lon="9.20314">
        <ele>1956.4</ele>
        <time>2015-06-20T07:29:05Z</time>
      </trkpt>
      <trkpt lat="41.85777" lon="9.20314">
        <ele>1956.4</ele>
        <time>2015-06-20T07:29:13Z</time>
      </trkpt>
      <trkpt lat="41.85774" lon="9.20317">
        <ele>1956.2</ele>
        <time>2015-06-20T07:29:41Z</time>
      </trkpt>
      <trkpt lat="41.85766" lon="9.20301">
        <ele>1956.2</ele>
        <time>2015-06-20T07:32:03Z</time>
      </trkpt>
      <trkpt lat="41.85761" lon="9.20303">
        <ele>1956.8</ele>
        <time>2015-06-20T07:32:27Z</time>
      </trkpt>
      <trkpt lat="41.85763" lon="9.20306">
        <ele>1957</ele>
        <time>2015-06-20T07:32:33Z</time>
      </trkpt>
      <trkpt lat="41.85764" lon="9.20308">
        <ele>1958.8</ele>
        <time>2015-06-20T07:33:09Z</time>
      </trkpt>
      <trkpt lat="41.85766" lon="9.20306">
        <ele>1958.8</ele>
        <time>2015-06-20T07:33:32Z</time>
      </trkpt>
      <trkpt lat="41.8577" lon="9.20305">
        <ele>1958.2</ele>
        <time>2015-06-20T07:33:38Z</time>
      </trkpt>
      <trkpt lat="41.85771" lon="9.20305">
        <ele>1958</ele>
        <time>2015-06-20T07:33:39Z</time>
      </trkpt>
      <trkpt lat="41.85773" lon="9.20306">
        <ele>1957.8</ele>
        <time>2015-06-20T07:33:41Z</time>
      </trkpt>
      <trkpt lat="41.85774" lon="9.20308">
        <ele>1957</ele>
        <time>2015-06-20T07:33:44Z</time>
      </trkpt>
      <trkpt lat="41.85771" lon="9.20312">
        <ele>1956</ele>
        <time>2015-06-20T07:34:56Z</time>
      </trkpt>
      <trkpt lat="41.8577" lon="9.20313">
        <ele>1956</ele>
        <time>2015-06-20T07:35:50Z</time>
      </trkpt>
      <trkpt lat="41.8577" lon="9.20312">
        <ele>1956.2</ele>
        <time>2015-06-20T07:36:44Z</time>
      </trkpt>
      <trkpt lat="41.85775" lon="9.20316">
        <ele>1956.2</ele>
        <time>2015-06-20T07:38:45Z</time>
      </trkpt>
      <trkpt lat="41.85778" lon="9.20315">
        <ele>1956.4</ele>
        <time>2015-06-20T07:38:51Z</time>
      </trkpt>
      <trkpt lat="41.85789" lon="9.2031">
        <ele>1955.8</ele>
        <time>2015-06-20T07:40:57Z</time>
      </trkpt>
      <trkpt lat="41.85792" lon="9.20311">
        <ele>1955.8</ele>
        <time>2015-06-20T07:41:00Z</time>
      </trkpt>
      <trkpt lat="41.85805" lon="9.20306">
        <ele>1955.2</ele>
        <time>2015-06-20T07:41:16Z</time>
      </trkpt>
      <trkpt lat="41.85827" lon="9.20309">
        <ele>1953.8</ele>
        <time>2015-06-20T07:41:39Z</time>
      </trkpt>
      <trkpt lat="41.85828" lon="9.20308">
        <ele>1953.8</ele>
        <time>2015-06-20T07:41:41Z</time>
      </trkpt>
      <trkpt lat="41.85837" lon="9.20312">
        <ele>1953.2</ele>
        <time>2015-06-20T07:41:50Z</time>
      </trkpt>
      <trkpt lat="41.8584" lon="9.20313">
        <ele>1953</ele>
        <time>2015-06-20T07:41:53Z</time>
      </trkpt>
      <trkpt lat="41.85848" lon="9.20315">
        <ele>1952.2</ele>
        <time>2015-06-20T07:42:03Z</time>
      </trkpt>
      <trkpt lat="41.8585" lon="9.20315">
        <ele>1952</ele>
        <time>2015-06-20T07:42:05Z</time>
      </trkpt>
      <trkpt lat="41.85858" lon="9.20313">
        <ele>1951.4</ele>
        <time>2015-06-20T07:42:14Z</time>
      </trkpt>
      <trkpt lat="41.85887" lon="9.20325">
        <ele>1949.8</ele>
        <time>2015-06-20T07:42:44Z</time>
      </trkpt>
      <trkpt lat="41.85888" lon="9.20326">
        <ele>1949.8</ele>
        <time>2015-06-20T07:42:46Z</time>
      </trkpt>
      <trkpt lat="41.85894" lon="9.20327">
        <ele>1949.8</ele>
        <time>2015-06-20T07:42:52Z</time>
      </trkpt>
      <trkpt lat="41.85895" lon="9.20329">
        <ele>1950</ele>
        <time>2015-06-20T07:42:55Z</time>
      </trkpt>
      <trkpt lat="41.859" lon="9.20329">
        <ele>1949.6</ele>
        <time>2015-06-20T07:43:02Z</time>
      </trkpt>
      <trkpt lat="41.85901" lon="9.20329">
        <ele>1949.6</ele>
        <time>2015-06-20T07:43:03Z</time>
      </trkpt>
      <trkpt lat="41.85909" lon="9.20334">
        <ele>1949.2</ele>
        <time>2015-06-20T07:43:13Z</time>
      </trkpt>
      <trkpt lat="41.85926" lon="9.20335">
        <ele>1948.2</ele>
        <time>2015-06-20T07:43:35Z</time>
      </trkpt>
      <trkpt lat="41.85926" lon="9.20335">
        <ele>1948</ele>
        <time>2015-06-20T07:43:36Z</time>
      </trkpt>
      <trkpt lat="41.85934" lon="9.20332">
        <ele>1946.8</ele>
        <time>2015-06-20T07:43:47Z</time>
      </trkpt>
      <trkpt lat="41.85938" lon="9.20332">
        <ele>1946.4</ele>
        <time>2015-06-20T07:43:51Z</time>
      </trkpt>
      <trkpt lat="41.85956" lon="9.20334">
        <ele>1945.4</ele>
        <time>2015-06-20T07:44:20Z</time>
      </trkpt>
      <trkpt lat="41.85962" lon="9.20334">
        <ele>1944.6</ele>
        <time>2015-06-20T07:44:29Z</time>
      </trkpt>
      <trkpt lat="41.8597" lon="9.20331">
        <ele>1943.8</ele>
        <time>2015-06-20T07:44:38Z</time>
      </trkpt>
      <trkpt lat="41.85976" lon="9.20333">
        <ele>1942.8</ele>
        <time>2015-06-20T07:44:45Z</time>
      </trkpt>
      <trkpt lat="41.85997" lon="9.20336">
        <ele>1944</ele>
        <time>2015-06-20T07:45:13Z</time>
      </trkpt>
      <trkpt lat="41.86007" lon="9.20338">
        <ele>1944.8</ele>
        <time>2015-06-20T07:45:27Z</time>
      </trkpt>
      <trkpt lat="41.86013" lon="9.20338">
        <ele>1945</ele>
        <time>2015-06-20T07:45:34Z</time>
      </trkpt>
      <trkpt lat="41.86016" lon="9.20341">
        <ele>1945.2</ele>
        <time>2015-06-20T07:45:38Z</time>
      </trkpt>
      <trkpt lat="41.86016" lon="9.20342">
        <ele>1945.2</ele>
        <time>2015-06-20T07:45:39Z</time>
      </trkpt>
      <trkpt lat="41.86031" lon="9.20352">
        <ele>1945.6</ele>
        <time>2015-06-20T07:45:56Z</time>
      </trkpt>
      <trkpt lat="41.86038" lon="9.20358">
        <ele>1944.6</ele>
        <time>2015-06-20T07:46:09Z</time>
      </trkpt>
      <trkpt lat="41.86042" lon="9.20361">
        <ele>1943.6</ele>
        <time>2015-06-20T07:46:17Z</time>
      </trkpt>
      <trkpt lat="41.86046" lon="9.20365">
        <ele>1943</ele>
        <time>2015-06-20T07:46:23Z</time>
      </trkpt>
      <trkpt lat="41.86047" lon="9.20366">
        <ele>1942.8</ele>
        <time>2015-06-20T07:46:24Z</time>
      </trkpt>
      <trkpt lat="41.86052" lon="9.2037">
        <ele>1941.6</ele>
        <time>2015-06-20T07:46:32Z</time>
      </trkpt>
      <trkpt lat="41.86052" lon="9.20371">
        <ele>1941.6</ele>
        <time>2015-06-20T07:46:33Z</time>
      </trkpt>
      <trkpt lat="41.86057" lon="9.20377">
        <ele>1940.2</ele>
        <time>2015-06-20T07:46:41Z</time>
      </trkpt>
      <trkpt lat="41.86062" lon="9.20382">
        <ele>1939.6</ele>
        <time>2015-06-20T07:46:49Z</time>
      </trkpt>
      <trkpt lat="41.86063" lon="9.20385">
        <ele>1939.4</ele>
        <time>2015-06-20T07:46:51Z</time>
      </trkpt>
      <trkpt lat="41.86065" lon="9.2039">
        <ele>1938.4</ele>
        <time>2015-06-20T07:46:56Z</time>
      </trkpt>
      <trkpt lat="41.86067" lon="9.20393">
        <ele>1938</ele>
        <time>2015-06-20T07:47:00Z</time>
      </trkpt>
      <trkpt lat="41.86075" lon="9.20413">
        <ele>1936.8</ele>
        <time>2015-06-20T07:47:14Z</time>
      </trkpt>
      <trkpt lat="41.86078" lon="9.20424">
        <ele>1936.4</ele>
        <time>2015-06-20T07:47:24Z</time>
      </trkpt>
      <trkpt lat="41.86078" lon="9.20426">
        <ele>1936.4</ele>
        <time>2015-06-20T07:47:26Z</time>
      </trkpt>
      <trkpt lat="41.86078" lon="9.20429">
        <ele>1936.2</ele>
        <time>2015-06-20T07:47:28Z</time>
      </trkpt>
      <trkpt lat="41.86081" lon="9.20436">
        <ele>1936</ele>
        <time>2015-06-20T07:47:35Z</time>
      </trkpt>
      <trkpt lat="41.86083" lon="9.2044">
        <ele>1936</ele>
        <time>2015-06-20T07:47:39Z</time>
      </trkpt>
      <trkpt lat="41.86088" lon="9.20445">
        <ele>1936</ele>
        <time>2015-06-20T07:47:46Z</time>
      </trkpt>
      <trkpt lat="41.86104" lon="9.20454">
        <ele>1935.8</ele>
        <time>2015-06-20T07:48:03Z</time>
      </trkpt>
      <trkpt lat="41.86108" lon="9.20455">
        <ele>1935.6</ele>
        <time>2015-06-20T07:48:08Z</time>
      </trkpt>
      <trkpt lat="41.86113" lon="9.2046">
        <ele>1935.4</ele>
        <time>2015-06-20T07:48:15Z</time>
      </trkpt>
      <trkpt lat="41.86119" lon="9.20468">
        <ele>1933.8</ele>
        <time>2015-06-20T07:48:26Z</time>
      </trkpt>
      <trkpt lat="41.8612" lon="9.20471">
        <ele>1933.6</ele>
        <time>2015-06-20T07:48:29Z</time>
      </trkpt>
      <trkpt lat="41.86123" lon="9.20472">
        <ele>1933</ele>
        <time>2015-06-20T07:48:32Z</time>
      </trkpt>
      <trkpt lat="41.86125" lon="9.20474">
        <ele>1932.2</ele>
        <time>2015-06-20T07:48:36Z</time>
      </trkpt>
      <trkpt lat="41.86127" lon="9.20475">
        <ele>1931.8</ele>
        <time>2015-06-20T07:48:38Z</time>
      </trkpt>
      <trkpt lat="41.86132" lon="9.20478">
        <ele>1930.8</ele>
        <time>2015-06-20T07:48:45Z</time>
      </trkpt>
      <trkpt lat="41.86138" lon="9.20479">
        <ele>1929.6</ele>
        <time>2015-06-20T07:48:52Z</time>
      </trkpt>
      <trkpt lat="41.86143" lon="9.20481">
        <ele>1928.2</ele>
        <time>2015-06-20T07:49:00Z</time>
      </trkpt>
      <trkpt lat="41.8615" lon="9.20483">
        <ele>1927</ele>
        <time>2015-06-20T07:49:08Z</time>
      </trkpt>
      <trkpt lat="41.86154" lon="9.20485">
        <ele>1926.4</ele>
        <time>2015-06-20T07:49:13Z</time>
      </trkpt>
      <trkpt lat="41.86163" lon="9.20486">
        <ele>1924.6</ele>
        <time>2015-06-20T07:49:24Z</time>
      </trkpt>
      <trkpt lat="41.86171" lon="9.20484">
        <ele>1923.8</ele>
        <time>2015-06-20T07:49:32Z</time>
      </trkpt>
      <trkpt lat="41.86181" lon="9.2048">
        <ele>1922.6</ele>
        <time>2015-06-20T07:49:42Z</time>
      </trkpt>
      <trkpt lat="41.86188" lon="9.20478">
        <ele>1921.6</ele>
        <time>2015-06-20T07:49:52Z</time>
      </trkpt>
      <trkpt lat="41.86193" lon="9.20478">
        <ele>1920.8</ele>
        <time>2015-06-20T07:49:57Z</time>
      </trkpt>
      <trkpt lat="41.862" lon="9.20481">
        <ele>1920.4</ele>
        <time>2015-06-20T07:50:04Z</time>
      </trkpt>
      <trkpt lat="41.862" lon="9.20482">
        <ele>1920.4</ele>
        <time>2015-06-20T07:50:05Z</time>
      </trkpt>
      <trkpt lat="41.86201" lon="9.20483">
        <ele>1920.2</ele>
        <time>2015-06-20T07:50:06Z</time>
      </trkpt>
      <trkpt lat="41.86203" lon="9.20486">
        <ele>1919.4</ele>
        <time>2015-06-20T07:50:16Z</time>
      </trkpt>
      <trkpt lat="41.86207" lon="9.20486">
        <ele>1918.2</ele>
        <time>2015-06-20T07:50:25Z</time>
      </trkpt>
      <trkpt lat="41.8621" lon="9.20489">
        <ele>1917.4</ele>
        <time>2015-06-20T07:50:35Z</time>
      </trkpt>
      <trkpt lat="41.86214" lon="9.20488">
        <ele>1916.2</ele>
        <time>2015-06-20T07:50:43Z</time>
      </trkpt>
      <trkpt lat="41.86216" lon="9.20489">
        <ele>1915.8</ele>
        <time>2015-06-20T07:50:47Z</time>
      </trkpt>
      <trkpt lat="41.86219" lon="9.2049">
        <ele>1913.8</ele>
        <time>2015-06-20T07:50:56Z</time>
      </trkpt>
      <trkpt lat="41.86222" lon="9.20488">
        <ele>1913</ele>
        <time>2015-06-20T07:51:05Z</time>
      </trkpt>
      <trkpt lat="41.86224" lon="9.20491">
        <ele>1912.2</ele>
        <time>2015-06-20T07:51:14Z</time>
      </trkpt>
      <trkpt lat="41.86228" lon="9.20492">
        <ele>1911.2</ele>
        <time>2015-06-20T07:51:22Z</time>
      </trkpt>
      <trkpt lat="41.8623" lon="9.20495">
        <ele>1909.8</ele>
        <time>2015-06-20T07:51:31Z</time>
      </trkpt>
      <trkpt lat="41.86233" lon="9.20498">
        <ele>1909</ele>
        <time>2015-06-20T07:51:39Z</time>
      </trkpt>
      <trkpt lat="41.86236" lon="9.20497">
        <ele>1908.2</ele>
        <time>2015-06-20T07:51:44Z</time>
      </trkpt>
      <trkpt lat="41.8624" lon="9.205">
        <ele>1907</ele>
        <time>2015-06-20T07:51:51Z</time>
      </trkpt>
      <trkpt lat="41.86241" lon="9.20502">
        <ele>1906.4</ele>
        <time>2015-06-20T07:51:55Z</time>
      </trkpt>
      <trkpt lat="41.86245" lon="9.20505">
        <ele>1904.4</ele>
        <time>2015-06-20T07:52:03Z</time>
      </trkpt>
      <trkpt lat="41.86248" lon="9.20508">
        <ele>1903.4</ele>
        <time>2015-06-20T07:52:11Z</time>
      </trkpt>
      <trkpt lat="41.86252" lon="9.20512">
        <ele>1902.4</ele>
        <time>2015-06-20T07:52:18Z</time>
      </trkpt>
      <trkpt lat="41.86257" lon="9.20515">
        <ele>1901.6</ele>
        <time>2015-06-20T07:52:24Z</time>
      </trkpt>
      <trkpt lat="41.86262" lon="9.2052">
        <ele>1900.4</ele>
        <time>2015-06-20T07:52:33Z</time>
      </trkpt>
      <trkpt lat="41.86266" lon="9.2052">
        <ele>1899.4</ele>
        <time>2015-06-20T07:52:40Z</time>
      </trkpt>
      <trkpt lat="41.86272" lon="9.20521">
        <ele>1898</ele>
        <time>2015-06-20T07:52:49Z</time>
      </trkpt>
      <trkpt lat="41.86276" lon="9.20522">
        <ele>1896.8</ele>
        <time>2015-06-20T07:52:58Z</time>
      </trkpt>
      <trkpt lat="41.86281" lon="9.2052">
        <ele>1896.2</ele>
        <time>2015-06-20T07:53:05Z</time>
      </trkpt>
      <trkpt lat="41.86282" lon="9.20522">
        <ele>1895.8</ele>
        <time>2015-06-20T07:53:08Z</time>
      </trkpt>
      <trkpt lat="41.86282" lon="9.20523">
        <ele>1895.8</ele>
        <time>2015-06-20T07:53:09Z</time>
      </trkpt>
      <trkpt lat="41.86288" lon="9.20523">
        <ele>1895.2</ele>
        <time>2015-06-20T07:53:16Z</time>
      </trkpt>
      <trkpt lat="41.86292" lon="9.20524">
        <ele>1894.2</ele>
        <time>2015-06-20T07:53:22Z</time>
      </trkpt>
      <trkpt lat="41.86297" lon="9.20527">
        <ele>1893.2</ele>
        <time>2015-06-20T07:53:28Z</time>
      </trkpt>
      <trkpt lat="41.86302" lon="9.20529">
        <ele>1891.8</ele>
        <time>2015-06-20T07:53:36Z</time>
      </trkpt>
      <trkpt lat="41.86306" lon="9.2053">
        <ele>1890.8</ele>
        <time>2015-06-20T07:53:43Z</time>
      </trkpt>
      <trkpt lat="41.86308" lon="9.20531">
        <ele>1889.8</ele>
        <time>2015-06-20T07:53:49Z</time>
      </trkpt>
      <trkpt lat="41.86312" lon="9.20533">
        <ele>1888.6</ele>
        <time>2015-06-20T07:53:56Z</time>
      </trkpt>
      <trkpt lat="41.86314" lon="9.20539">
        <ele>1887.4</ele>
        <time>2015-06-20T07:54:04Z</time>
      </trkpt>
      <trkpt lat="41.86315" lon="9.20541">
        <ele>1886.8</ele>
        <time>2015-06-20T07:54:09Z</time>
      </trkpt>
      <trkpt lat="41.86313" lon="9.20544">
        <ele>1886.2</ele>
        <time>2015-06-20T07:54:13Z</time>
      </trkpt>
      <trkpt lat="41.86316" lon="9.20546">
        <ele>1884.2</ele>
        <time>2015-06-20T07:54:24Z</time>
      </trkpt>
      <trkpt lat="41.86316" lon="9.20549">
        <ele>1883.8</ele>
        <time>2015-06-20T07:54:28Z</time>
      </trkpt>
      <trkpt lat="41.86319" lon="9.20552">
        <ele>1882</ele>
        <time>2015-06-20T07:54:36Z</time>
      </trkpt>
      <trkpt lat="41.86321" lon="9.20556">
        <ele>1881.6</ele>
        <time>2015-06-20T07:54:42Z</time>
      </trkpt>
      <trkpt lat="41.86323" lon="9.20558">
        <ele>1880.8</ele>
        <time>2015-06-20T07:54:46Z</time>
      </trkpt>
      <trkpt lat="41.86325" lon="9.20562">
        <ele>1879</ele>
        <time>2015-06-20T07:54:53Z</time>
      </trkpt>
      <trkpt lat="41.8633" lon="9.20566">
        <ele>1878</ele>
        <time>2015-06-20T07:55:00Z</time>
      </trkpt>
      <trkpt lat="41.86335" lon="9.20565">
        <ele>1877</ele>
        <time>2015-06-20T07:55:07Z</time>
      </trkpt>
      <trkpt lat="41.86337" lon="9.20562">
        <ele>1876</ele>
        <time>2015-06-20T07:55:14Z</time>
      </trkpt>
      <trkpt lat="41.86342" lon="9.20563">
        <ele>1874.8</ele>
        <time>2015-06-20T07:55:23Z</time>
      </trkpt>
      <trkpt lat="41.86343" lon="9.20565">
        <ele>1873.8</ele>
        <time>2015-06-20T07:55:29Z</time>
      </trkpt>
      <trkpt lat="41.86342" lon="9.2057">
        <ele>1872.4</ele>
        <time>2015-06-20T07:55:37Z</time>
      </trkpt>
      <trkpt lat="41.86342" lon="9.20575">
        <ele>1871.4</ele>
        <time>2015-06-20T07:55:44Z</time>
      </trkpt>
      <trkpt lat="41.86344" lon="9.20577">
        <ele>1870.4</ele>
        <time>2015-06-20T07:55:54Z</time>
      </trkpt>
      <trkpt lat="41.86347" lon="9.2058">
        <ele>1869</ele>
        <time>2015-06-20T07:56:02Z</time>
      </trkpt>
      <trkpt lat="41.86348" lon="9.20582">
        <ele>1868.2</ele>
        <time>2015-06-20T07:56:09Z</time>
      </trkpt>
      <trkpt lat="41.8635" lon="9.20587">
        <ele>1866.8</ele>
        <time>2015-06-20T07:56:17Z</time>
      </trkpt>
      <trkpt lat="41.86352" lon="9.20591">
        <ele>1866</ele>
        <time>2015-06-20T07:56:24Z</time>
      </trkpt>
      <trkpt lat="41.86356" lon="9.20593">
        <ele>1864.8</ele>
        <time>2015-06-20T07:56:33Z</time>
      </trkpt>
      <trkpt lat="41.86358" lon="9.20596">
        <ele>1863.8</ele>
        <time>2015-06-20T07:56:41Z</time>
      </trkpt>
      <trkpt lat="41.86358" lon="9.206">
        <ele>1863</ele>
        <time>2015-06-20T07:56:46Z</time>
      </trkpt>
      <trkpt lat="41.86358" lon="9.20603">
        <ele>1861.4</ele>
        <time>2015-06-20T07:56:54Z</time>
      </trkpt>
      <trkpt lat="41.86361" lon="9.20607">
        <ele>1860.2</ele>
        <time>2015-06-20T07:57:05Z</time>
      </trkpt>
      <trkpt lat="41.86361" lon="9.20613">
        <ele>1859.4</ele>
        <time>2015-06-20T07:57:12Z</time>
      </trkpt>
      <trkpt lat="41.86361" lon="9.20618">
        <ele>1858.2</ele>
        <time>2015-06-20T07:57:22Z</time>
      </trkpt>
      <trkpt lat="41.86365" lon="9.20617">
        <ele>1857.4</ele>
        <time>2015-06-20T07:57:29Z</time>
      </trkpt>
      <trkpt lat="41.86365" lon="9.20618">
        <ele>1857</ele>
        <time>2015-06-20T07:57:31Z</time>
      </trkpt>
      <trkpt lat="41.86367" lon="9.20621">
        <ele>1855.8</ele>
        <time>2015-06-20T07:57:39Z</time>
      </trkpt>
      <trkpt lat="41.86369" lon="9.20624">
        <ele>1855.2</ele>
        <time>2015-06-20T07:57:46Z</time>
      </trkpt>
      <trkpt lat="41.86371" lon="9.20628">
        <ele>1853.6</ele>
        <time>2015-06-20T07:57:56Z</time>
      </trkpt>
      <trkpt lat="41.86373" lon="9.20632">
        <ele>1853</ele>
        <time>2015-06-20T07:58:04Z</time>
      </trkpt>
      <trkpt lat="41.86379" lon="9.20634">
        <ele>1851.8</ele>
        <time>2015-06-20T07:58:12Z</time>
      </trkpt>
      <trkpt lat="41.86379" lon="9.2064">
        <ele>1850.6</ele>
        <time>2015-06-20T07:58:20Z</time>
      </trkpt>
      <trkpt lat="41.86381" lon="9.20643">
        <ele>1850</ele>
        <time>2015-06-20T07:58:26Z</time>
      </trkpt>
      <trkpt lat="41.86382" lon="9.20646">
        <ele>1849</ele>
        <time>2015-06-20T07:58:31Z</time>
      </trkpt>
      <trkpt lat="41.86382" lon="9.20649">
        <ele>1848</ele>
        <time>2015-06-20T07:58:35Z</time>
      </trkpt>
      <trkpt lat="41.86386" lon="9.2065">
        <ele>1846.2</ele>
        <time>2015-06-20T07:58:44Z</time>
      </trkpt>
      <trkpt lat="41.8639" lon="9.20654">
        <ele>1845.4</ele>
        <time>2015-06-20T07:58:50Z</time>
      </trkpt>
      <trkpt lat="41.86389" lon="9.20659">
        <ele>1844.4</ele>
        <time>2015-06-20T07:58:57Z</time>
      </trkpt>
      <trkpt lat="41.86391" lon="9.2066">
        <ele>1843.2</ele>
        <time>2015-06-20T07:59:03Z</time>
      </trkpt>
      <trkpt lat="41.86393" lon="9.20665">
        <ele>1842</ele>
        <time>2015-06-20T07:59:11Z</time>
      </trkpt>
      <trkpt lat="41.86393" lon="9.20665">
        <ele>1841</ele>
        <time>2015-06-20T07:59:35Z</time>
      </trkpt>
      <trkpt lat="41.86398" lon="9.20669">
        <ele>1840.8</ele>
        <time>2015-06-20T07:59:54Z</time>
      </trkpt>
      <trkpt lat="41.86399" lon="9.20672">
        <ele>1839.8</ele>
        <time>2015-06-20T08:00:02Z</time>
      </trkpt>
      <trkpt lat="41.86398" lon="9.20675">
        <ele>1839.6</ele>
        <time>2015-06-20T08:00:07Z</time>
      </trkpt>
      <trkpt lat="41.86401" lon="9.20678">
        <ele>1837.6</ele>
        <time>2015-06-20T08:00:16Z</time>
      </trkpt>
      <trkpt lat="41.86404" lon="9.20682">
        <ele>1837</ele>
        <time>2015-06-20T08:00:23Z</time>
      </trkpt>
      <trkpt lat="41.86406" lon="9.20685">
        <ele>1836.4</ele>
        <time>2015-06-20T08:00:27Z</time>
      </trkpt>
      <trkpt lat="41.86409" lon="9.20687">
        <ele>1834.8</ele>
        <time>2015-06-20T08:00:33Z</time>
      </trkpt>
      <trkpt lat="41.86413" lon="9.20689">
        <ele>1833.6</ele>
        <time>2015-06-20T08:00:39Z</time>
      </trkpt>
      <trkpt lat="41.86418" lon="9.2069">
        <ele>1832.4</ele>
        <time>2015-06-20T08:00:45Z</time>
      </trkpt>
      <trkpt lat="41.8642" lon="9.20693">
        <ele>1831.2</ele>
        <time>2015-06-20T08:00:51Z</time>
      </trkpt>
      <trkpt lat="41.86422" lon="9.20696">
        <ele>1830</ele>
        <time>2015-06-20T08:00:57Z</time>
      </trkpt>
      <trkpt lat="41.86426" lon="9.20699">
        <ele>1829</ele>
        <time>2015-06-20T08:01:05Z</time>
      </trkpt>
      <trkpt lat="41.86427" lon="9.207">
        <ele>1828.2</ele>
        <time>2015-06-20T08:01:10Z</time>
      </trkpt>
      <trkpt lat="41.86431" lon="9.20703">
        <ele>1826.6</ele>
        <time>2015-06-20T08:01:18Z</time>
      </trkpt>
      <trkpt lat="41.86435" lon="9.20701">
        <ele>1825.6</ele>
        <time>2015-06-20T08:01:24Z</time>
      </trkpt>
      <trkpt lat="41.86439" lon="9.20697">
        <ele>1824.6</ele>
        <time>2015-06-20T08:01:32Z</time>
      </trkpt>
      <trkpt lat="41.86444" lon="9.20698">
        <ele>1823.2</ele>
        <time>2015-06-20T08:01:40Z</time>
      </trkpt>
      <trkpt lat="41.86444" lon="9.20702">
        <ele>1822.4</ele>
        <time>2015-06-20T08:01:45Z</time>
      </trkpt>
      <trkpt lat="41.86449" lon="9.20703">
        <ele>1820.8</ele>
        <time>2015-06-20T08:01:54Z</time>
      </trkpt>
      <trkpt lat="41.86453" lon="9.20702">
        <ele>1820.2</ele>
        <time>2015-06-20T08:02:00Z</time>
      </trkpt>
      <trkpt lat="41.86457" lon="9.20702">
        <ele>1819</ele>
        <time>2015-06-20T08:02:06Z</time>
      </trkpt>
      <trkpt lat="41.8646" lon="9.20703">
        <ele>1817.8</ele>
        <time>2015-06-20T08:02:12Z</time>
      </trkpt>
      <trkpt lat="41.86462" lon="9.20707">
        <ele>1817</ele>
        <time>2015-06-20T08:02:17Z</time>
      </trkpt>
      <trkpt lat="41.86466" lon="9.2071">
        <ele>1815.6</ele>
        <time>2015-06-20T08:02:23Z</time>
      </trkpt>
      <trkpt lat="41.8647" lon="9.20716">
        <ele>1814.2</ele>
        <time>2015-06-20T08:02:32Z</time>
      </trkpt>
      <trkpt lat="41.86472" lon="9.20719">
        <ele>1813.6</ele>
        <time>2015-06-20T08:02:36Z</time>
      </trkpt>
      <trkpt lat="41.86475" lon="9.20724">
        <ele>1812.4</ele>
        <time>2015-06-20T08:02:42Z</time>
      </trkpt>
      <trkpt lat="41.8648" lon="9.20727">
        <ele>1810.8</ele>
        <time>2015-06-20T08:02:50Z</time>
      </trkpt>
      <trkpt lat="41.86484" lon="9.20729">
        <ele>1810.2</ele>
        <time>2015-06-20T08:02:55Z</time>
      </trkpt>
      <trkpt lat="41.86487" lon="9.2073">
        <ele>1809.2</ele>
        <time>2015-06-20T08:03:00Z</time>
      </trkpt>
      <trkpt lat="41.8649" lon="9.2073">
        <ele>1808.2</ele>
        <time>2015-06-20T08:03:05Z</time>
      </trkpt>
      <trkpt lat="41.86494" lon="9.20735">
        <ele>1806.2</ele>
        <time>2015-06-20T08:03:13Z</time>
      </trkpt>
      <trkpt lat="41.86498" lon="9.20738">
        <ele>1805.6</ele>
        <time>2015-06-20T08:03:19Z</time>
      </trkpt>
      <trkpt lat="41.865" lon="9.20738">
        <ele>1805.4</ele>
        <time>2015-06-20T08:03:21Z</time>
      </trkpt>
      <trkpt lat="41.86502" lon="9.20738">
        <ele>1804.6</ele>
        <time>2015-06-20T08:03:24Z</time>
      </trkpt>
      <trkpt lat="41.86509" lon="9.20738">
        <ele>1802.8</ele>
        <time>2015-06-20T08:03:34Z</time>
      </trkpt>
      <trkpt lat="41.86512" lon="9.20737">
        <ele>1802.6</ele>
        <time>2015-06-20T08:03:39Z</time>
      </trkpt>
      <trkpt lat="41.86514" lon="9.20742">
        <ele>1801.2</ele>
        <time>2015-06-20T08:03:45Z</time>
      </trkpt>
      <trkpt lat="41.86518" lon="9.20744">
        <ele>1799.6</ele>
        <time>2015-06-20T08:03:53Z</time>
      </trkpt>
      <trkpt lat="41.86523" lon="9.20745">
        <ele>1798.8</ele>
        <time>2015-06-20T08:04:00Z</time>
      </trkpt>
      <trkpt lat="41.86526" lon="9.20748">
        <ele>1797.6</ele>
        <time>2015-06-20T08:04:07Z</time>
      </trkpt>
      <trkpt lat="41.86531" lon="9.2075">
        <ele>1796.6</ele>
        <time>2015-06-20T08:04:15Z</time>
      </trkpt>
      <trkpt lat="41.86535" lon="9.20753">
        <ele>1795.6</ele>
        <time>2015-06-20T08:04:22Z</time>
      </trkpt>
      <trkpt lat="41.86538" lon="9.20751">
        <ele>1795</ele>
        <time>2015-06-20T08:04:27Z</time>
      </trkpt>
      <trkpt lat="41.86542" lon="9.20749">
        <ele>1793.4</ele>
        <time>2015-06-20T08:04:35Z</time>
      </trkpt>
      <trkpt lat="41.86546" lon="9.20747">
        <ele>1792.6</ele>
        <time>2015-06-20T08:04:41Z</time>
      </trkpt>
      <trkpt lat="41.8655" lon="9.20748">
        <ele>1791.2</ele>
        <time>2015-06-20T08:04:48Z</time>
      </trkpt>
      <trkpt lat="41.86555" lon="9.20741">
        <ele>1790</ele>
        <time>2015-06-20T08:04:58Z</time>
      </trkpt>
      <trkpt lat="41.86557" lon="9.20738">
        <ele>1789.4</ele>
        <time>2015-06-20T08:05:03Z</time>
      </trkpt>
      <trkpt lat="41.8656" lon="9.20732">
        <ele>1788.2</ele>
        <time>2015-06-20T08:05:10Z</time>
      </trkpt>
      <trkpt lat="41.86561" lon="9.20726">
        <ele>1787.4</ele>
        <time>2015-06-20T08:05:16Z</time>
      </trkpt>
      <trkpt lat="41.86564" lon="9.20722">
        <ele>1786.2</ele>
        <time>2015-06-20T08:05:22Z</time>
      </trkpt>
      <trkpt lat="41.86568" lon="9.20715">
        <ele>1784.8</ele>
        <time>2015-06-20T08:05:32Z</time>
      </trkpt>
      <trkpt lat="41.86571" lon="9.20709">
        <ele>1784</ele>
        <time>2015-06-20T08:05:38Z</time>
      </trkpt>
      <trkpt lat="41.86578" lon="9.20705">
        <ele>1782.6</ele>
        <time>2015-06-20T08:05:46Z</time>
      </trkpt>
      <trkpt lat="41.86583" lon="9.207">
        <ele>1781.6</ele>
        <time>2015-06-20T08:05:53Z</time>
      </trkpt>
      <trkpt lat="41.86589" lon="9.20694">
        <ele>1780.6</ele>
        <time>2015-06-20T08:06:01Z</time>
      </trkpt>
      <trkpt lat="41.86592" lon="9.20689">
        <ele>1779.6</ele>
        <time>2015-06-20T08:06:07Z</time>
      </trkpt>
      <trkpt lat="41.86595" lon="9.20685">
        <ele>1778.6</ele>
        <time>2015-06-20T08:06:13Z</time>
      </trkpt>
      <trkpt lat="41.86599" lon="9.20677">
        <ele>1777.6</ele>
        <time>2015-06-20T08:06:20Z</time>
      </trkpt>
      <trkpt lat="41.86602" lon="9.20671">
        <ele>1776.4</ele>
        <time>2015-06-20T08:06:26Z</time>
      </trkpt>
      <trkpt lat="41.86604" lon="9.20665">
        <ele>1775.4</ele>
        <time>2015-06-20T08:06:33Z</time>
      </trkpt>
      <trkpt lat="41.86607" lon="9.20654">
        <ele>1774</ele>
        <time>2015-06-20T08:06:41Z</time>
      </trkpt>
      <trkpt lat="41.8661" lon="9.20644">
        <ele>1773</ele>
        <time>2015-06-20T08:06:50Z</time>
      </trkpt>
      <trkpt lat="41.86611" lon="9.20634">
        <ele>1772</ele>
        <time>2015-06-20T08:06:59Z</time>
      </trkpt>
      <trkpt lat="41.86612" lon="9.20625">
        <ele>1771.2</ele>
        <time>2015-06-20T08:07:07Z</time>
      </trkpt>
      <trkpt lat="41.86617" lon="9.20615">
        <ele>1770.2</ele>
        <time>2015-06-20T08:07:17Z</time>
      </trkpt>
      <trkpt lat="41.86618" lon="9.20613">
        <ele>1769.8</ele>
        <time>2015-06-20T08:07:19Z</time>
      </trkpt>
      <trkpt lat="41.86619" lon="9.20611">
        <ele>1769.6</ele>
        <time>2015-06-20T08:07:22Z</time>
      </trkpt>
      <trkpt lat="41.8662" lon="9.20611">
        <ele>1769.2</ele>
        <time>2015-06-20T08:07:24Z</time>
      </trkpt>
      <trkpt lat="41.86621" lon="9.20607">
        <ele>1768.8</ele>
        <time>2015-06-20T08:07:30Z</time>
      </trkpt>
      <trkpt lat="41.86621" lon="9.20597">
        <ele>1767.8</ele>
        <time>2015-06-20T08:07:49Z</time>
      </trkpt>
      <trkpt lat="41.86624" lon="9.20585">
        <ele>1766.6</ele>
        <time>2015-06-20T08:08:11Z</time>
      </trkpt>
      <trkpt lat="41.86625" lon="9.20581">
        <ele>1766</ele>
        <time>2015-06-20T08:08:25Z</time>
      </trkpt>
      <trkpt lat="41.86628" lon="9.20575">
        <ele>1764.8</ele>
        <time>2015-06-20T08:08:56Z</time>
      </trkpt>
      <trkpt lat="41.86629" lon="9.2056">
        <ele>1764</ele>
        <time>2015-06-20T08:09:19Z</time>
      </trkpt>
      <trkpt lat="41.86627" lon="9.20549">
        <ele>1763.2</ele>
        <time>2015-06-20T08:09:28Z</time>
      </trkpt>
      <trkpt lat="41.86626" lon="9.20546">
        <ele>1763</ele>
        <time>2015-06-20T08:09:30Z</time>
      </trkpt>
      <trkpt lat="41.86626" lon="9.20532">
        <ele>1762</ele>
        <time>2015-06-20T08:09:42Z</time>
      </trkpt>
      <trkpt lat="41.86625" lon="9.2053">
        <ele>1762</ele>
        <time>2015-06-20T08:09:44Z</time>
      </trkpt>
      <trkpt lat="41.86624" lon="9.20516">
        <ele>1761</ele>
        <time>2015-06-20T08:09:56Z</time>
      </trkpt>
      <trkpt lat="41.86625" lon="9.20515">
        <ele>1761</ele>
        <time>2015-06-20T08:09:59Z</time>
      </trkpt>
      <trkpt lat="41.86625" lon="9.20508">
        <ele>1760.4</ele>
        <time>2015-06-20T08:10:10Z</time>
      </trkpt>
      <trkpt lat="41.86623" lon="9.20503">
        <ele>1759.4</ele>
        <time>2015-06-20T08:10:16Z</time>
      </trkpt>
      <trkpt lat="41.86622" lon="9.20492">
        <ele>1758</ele>
        <time>2015-06-20T08:10:27Z</time>
      </trkpt>
      <trkpt lat="41.86623" lon="9.20482">
        <ele>1757.2</ele>
        <time>2015-06-20T08:10:35Z</time>
      </trkpt>
      <trkpt lat="41.86624" lon="9.20481">
        <ele>1757.2</ele>
        <time>2015-06-20T08:10:36Z</time>
      </trkpt>
      <trkpt lat="41.86628" lon="9.20473">
        <ele>1756.2</ele>
        <time>2015-06-20T08:10:45Z</time>
      </trkpt>
      <trkpt lat="41.86629" lon="9.20468">
        <ele>1755.6</ele>
        <time>2015-06-20T08:10:49Z</time>
      </trkpt>
      <trkpt lat="41.86631" lon="9.20465">
        <ele>1755.4</ele>
        <time>2015-06-20T08:10:53Z</time>
      </trkpt>
      <trkpt lat="41.86632" lon="9.20455">
        <ele>1755</ele>
        <time>2015-06-20T08:11:01Z</time>
      </trkpt>
      <trkpt lat="41.86632" lon="9.20454">
        <ele>1754.8</ele>
        <time>2015-06-20T08:11:02Z</time>
      </trkpt>
      <trkpt lat="41.86635" lon="9.2044">
        <ele>1754.4</ele>
        <time>2015-06-20T08:11:13Z</time>
      </trkpt>
      <trkpt lat="41.86637" lon="9.2043">
        <ele>1754</ele>
        <time>2015-06-20T08:11:23Z</time>
      </trkpt>
      <trkpt lat="41.8664" lon="9.20423">
        <ele>1753.2</ele>
        <time>2015-06-20T08:11:32Z</time>
      </trkpt>
      <trkpt lat="41.86644" lon="9.20414">
        <ele>1752</ele>
        <time>2015-06-20T08:11:41Z</time>
      </trkpt>
      <trkpt lat="41.86641" lon="9.204">
        <ele>1751</ele>
        <time>2015-06-20T08:11:52Z</time>
      </trkpt>
      <trkpt lat="41.86642" lon="9.20398">
        <ele>1750.8</ele>
        <time>2015-06-20T08:11:54Z</time>
      </trkpt>
      <trkpt lat="41.86644" lon="9.20394">
        <ele>1750.4</ele>
        <time>2015-06-20T08:11:58Z</time>
      </trkpt>
      <trkpt lat="41.86644" lon="9.20387">
        <ele>1749.8</ele>
        <time>2015-06-20T08:12:05Z</time>
      </trkpt>
      <trkpt lat="41.86645" lon="9.20387">
        <ele>1749.8</ele>
        <time>2015-06-20T08:12:06Z</time>
      </trkpt>
      <trkpt lat="41.86648" lon="9.20377">
        <ele>1749</ele>
        <time>2015-06-20T08:12:19Z</time>
      </trkpt>
      <trkpt lat="41.86651" lon="9.2037">
        <ele>1748.2</ele>
        <time>2015-06-20T08:12:26Z</time>
      </trkpt>
      <trkpt lat="41.86653" lon="9.20365">
        <ele>1747.4</ele>
        <time>2015-06-20T08:12:31Z</time>
      </trkpt>
      <trkpt lat="41.86657" lon="9.20354">
        <ele>1746.8</ele>
        <time>2015-06-20T08:12:49Z</time>
      </trkpt>
      <trkpt lat="41.86662" lon="9.20339">
        <ele>1745.6</ele>
        <time>2015-06-20T08:13:04Z</time>
      </trkpt>
      <trkpt lat="41.86666" lon="9.20328">
        <ele>1744.8</ele>
        <time>2015-06-20T08:13:17Z</time>
      </trkpt>
      <trkpt lat="41.86669" lon="9.2032">
        <ele>1744.2</ele>
        <time>2015-06-20T08:13:25Z</time>
      </trkpt>
      <trkpt lat="41.86672" lon="9.20311">
        <ele>1742.8</ele>
        <time>2015-06-20T08:13:36Z</time>
      </trkpt>
      <trkpt lat="41.86674" lon="9.20303">
        <ele>1742</ele>
        <time>2015-06-20T08:13:44Z</time>
      </trkpt>
      <trkpt lat="41.86677" lon="9.20294">
        <ele>1740.8</ele>
        <time>2015-06-20T08:13:56Z</time>
      </trkpt>
      <trkpt lat="41.86681" lon="9.20288">
        <ele>1739.8</ele>
        <time>2015-06-20T08:14:04Z</time>
      </trkpt>
      <trkpt lat="41.86684" lon="9.20282">
        <ele>1738.8</ele>
        <time>2015-06-20T08:14:13Z</time>
      </trkpt>
      <trkpt lat="41.86688" lon="9.20274">
        <ele>1737.6</ele>
        <time>2015-06-20T08:14:26Z</time>
      </trkpt>
      <trkpt lat="41.86691" lon="9.20271">
        <ele>1736.8</ele>
        <time>2015-06-20T08:14:34Z</time>
      </trkpt>
      <trkpt lat="41.86693" lon="9.20264">
        <ele>1735.4</ele>
        <time>2015-06-20T08:14:42Z</time>
      </trkpt>
      <trkpt lat="41.86695" lon="9.20261">
        <ele>1734.8</ele>
        <time>2015-06-20T08:14:49Z</time>
      </trkpt>
      <trkpt lat="41.86696" lon="9.20254">
        <ele>1733.6</ele>
        <time>2015-06-20T08:14:56Z</time>
      </trkpt>
      <trkpt lat="41.86696" lon="9.20248">
        <ele>1732.4</ele>
        <time>2015-06-20T08:15:04Z</time>
      </trkpt>
      <trkpt lat="41.86697" lon="9.20244">
        <ele>1731.8</ele>
        <time>2015-06-20T08:15:12Z</time>
      </trkpt>
      <trkpt lat="41.86698" lon="9.20239">
        <ele>1731</ele>
        <time>2015-06-20T08:15:17Z</time>
      </trkpt>
      <trkpt lat="41.86698" lon="9.20234">
        <ele>1729.6</ele>
        <time>2015-06-20T08:15:24Z</time>
      </trkpt>
      <trkpt lat="41.86699" lon="9.20229">
        <ele>1728.4</ele>
        <time>2015-06-20T08:15:30Z</time>
      </trkpt>
      <trkpt lat="41.86698" lon="9.20224">
        <ele>1727.6</ele>
        <time>2015-06-20T08:15:34Z</time>
      </trkpt>
      <trkpt lat="41.86698" lon="9.20222">
        <ele>1727.4</ele>
        <time>2015-06-20T08:15:36Z</time>
      </trkpt>
      <trkpt lat="41.86698" lon="9.2022">
        <ele>1726.8</ele>
        <time>2015-06-20T08:15:38Z</time>
      </trkpt>
      <trkpt lat="41.86697" lon="9.20214">
        <ele>1725.8</ele>
        <time>2015-06-20T08:15:43Z</time>
      </trkpt>
      <trkpt lat="41.86696" lon="9.20204">
        <ele>1724.8</ele>
        <time>2015-06-20T08:15:54Z</time>
      </trkpt>
      <trkpt lat="41.86696" lon="9.20199">
        <ele>1724</ele>
        <time>2015-06-20T08:16:00Z</time>
      </trkpt>
      <trkpt lat="41.86694" lon="9.20191">
        <ele>1722.8</ele>
        <time>2015-06-20T08:16:09Z</time>
      </trkpt>
      <trkpt lat="41.86692" lon="9.20185">
        <ele>1722.2</ele>
        <time>2015-06-20T08:16:16Z</time>
      </trkpt>
      <trkpt lat="41.8669" lon="9.20178">
        <ele>1721</ele>
        <time>2015-06-20T08:16:22Z</time>
      </trkpt>
      <trkpt lat="41.8669" lon="9.20171">
        <ele>1719.8</ele>
        <time>2015-06-20T08:16:30Z</time>
      </trkpt>
      <trkpt lat="41.86689" lon="9.20163">
        <ele>1718.6</ele>
        <time>2015-06-20T08:16:38Z</time>
      </trkpt>
      <trkpt lat="41.86686" lon="9.20156">
        <ele>1717.8</ele>
        <time>2015-06-20T08:16:46Z</time>
      </trkpt>
      <trkpt lat="41.86685" lon="9.2015">
        <ele>1717</ele>
        <time>2015-06-20T08:16:52Z</time>
      </trkpt>
      <trkpt lat="41.86684" lon="9.20145">
        <ele>1716</ele>
        <time>2015-06-20T08:16:58Z</time>
      </trkpt>
      <trkpt lat="41.86683" lon="9.20139">
        <ele>1714.8</ele>
        <time>2015-06-20T08:17:06Z</time>
      </trkpt>
      <trkpt lat="41.8668" lon="9.20133">
        <ele>1713.6</ele>
        <time>2015-06-20T08:17:14Z</time>
      </trkpt>
      <trkpt lat="41.86678" lon="9.20127">
        <ele>1712.8</ele>
        <time>2015-06-20T08:17:21Z</time>
      </trkpt>
      <trkpt lat="41.86675" lon="9.2012">
        <ele>1711.8</ele>
        <time>2015-06-20T08:17:29Z</time>
      </trkpt>
      <trkpt lat="41.86674" lon="9.20111">
        <ele>1710.4</ele>
        <time>2015-06-20T08:17:39Z</time>
      </trkpt>
      <trkpt lat="41.86671" lon="9.20103">
        <ele>1709.4</ele>
        <time>2015-06-20T08:17:48Z</time>
      </trkpt>
      <trkpt lat="41.86669" lon="9.20096">
        <ele>1708.8</ele>
        <time>2015-06-20T08:17:55Z</time>
      </trkpt>
      <trkpt lat="41.86667" lon="9.2009">
        <ele>1707.6</ele>
        <time>2015-06-20T08:18:02Z</time>
      </trkpt>
      <trkpt lat="41.86664" lon="9.20082">
        <ele>1706.4</ele>
        <time>2015-06-20T08:18:11Z</time>
      </trkpt>
      <trkpt lat="41.86661" lon="9.20077">
        <ele>1705.2</ele>
        <time>2015-06-20T08:18:19Z</time>
      </trkpt>
      <trkpt lat="41.86661" lon="9.20069">
        <ele>1704</ele>
        <time>2015-06-20T08:18:27Z</time>
      </trkpt>
      <trkpt lat="41.8666" lon="9.20065">
        <ele>1703.4</ele>
        <time>2015-06-20T08:18:33Z</time>
      </trkpt>
      <trkpt lat="41.8666" lon="9.20059">
        <ele>1702.2</ele>
        <time>2015-06-20T08:18:40Z</time>
      </trkpt>
      <trkpt lat="41.86659" lon="9.20053">
        <ele>1701.2</ele>
        <time>2015-06-20T08:18:47Z</time>
      </trkpt>
      <trkpt lat="41.86658" lon="9.20047">
        <ele>1700</ele>
        <time>2015-06-20T08:18:55Z</time>
      </trkpt>
      <trkpt lat="41.8666" lon="9.20042">
        <ele>1698.8</ele>
        <time>2015-06-20T08:19:03Z</time>
      </trkpt>
      <trkpt lat="41.86662" lon="9.20037">
        <ele>1697.8</ele>
        <time>2015-06-20T08:19:10Z</time>
      </trkpt>
      <trkpt lat="41.86662" lon="9.20032">
        <ele>1697.2</ele>
        <time>2015-06-20T08:19:15Z</time>
      </trkpt>
      <trkpt lat="41.86662" lon="9.20027">
        <ele>1695.8</ele>
        <time>2015-06-20T08:19:22Z</time>
      </trkpt>
      <trkpt lat="41.86662" lon="9.20022">
        <ele>1695</ele>
        <time>2015-06-20T08:19:28Z</time>
      </trkpt>
      <trkpt lat="41.86664" lon="9.20018">
        <ele>1694</ele>
        <time>2015-06-20T08:19:34Z</time>
      </trkpt>
      <trkpt lat="41.86666" lon="9.20015">
        <ele>1692.8</ele>
        <time>2015-06-20T08:19:40Z</time>
      </trkpt>
      <trkpt lat="41.86664" lon="9.20009">
        <ele>1691.8</ele>
        <time>2015-06-20T08:19:46Z</time>
      </trkpt>
      <trkpt lat="41.86665" lon="9.20004">
        <ele>1690.4</ele>
        <time>2015-06-20T08:19:54Z</time>
      </trkpt>
      <trkpt lat="41.86666" lon="9.2">
        <ele>1689.8</ele>
        <time>2015-06-20T08:20:00Z</time>
      </trkpt>
      <trkpt lat="41.86663" lon="9.19994">
        <ele>1688.6</ele>
        <time>2015-06-20T08:20:07Z</time>
      </trkpt>
      <trkpt lat="41.86661" lon="9.19989">
        <ele>1687.4</ele>
        <time>2015-06-20T08:20:14Z</time>
      </trkpt>
      <trkpt lat="41.86659" lon="9.19984">
        <ele>1686.6</ele>
        <time>2015-06-20T08:20:21Z</time>
      </trkpt>
      <trkpt lat="41.86658" lon="9.19978">
        <ele>1685.4</ele>
        <time>2015-06-20T08:20:28Z</time>
      </trkpt>
      <trkpt lat="41.86657" lon="9.19974">
        <ele>1684.4</ele>
        <time>2015-06-20T08:20:33Z</time>
      </trkpt>
      <trkpt lat="41.86658" lon="9.1997">
        <ele>1683.6</ele>
        <time>2015-06-20T08:20:38Z</time>
      </trkpt>
      <trkpt lat="41.86659" lon="9.19966">
        <ele>1682.4</ele>
        <time>2015-06-20T08:20:44Z</time>
      </trkpt>
      <trkpt lat="41.86659" lon="9.19961">
        <ele>1681.2</ele>
        <time>2015-06-20T08:20:50Z</time>
      </trkpt>
      <trkpt lat="41.8666" lon="9.19957">
        <ele>1680.4</ele>
        <time>2015-06-20T08:20:56Z</time>
      </trkpt>
      <trkpt lat="41.86659" lon="9.1995">
        <ele>1679</ele>
        <time>2015-06-20T08:21:04Z</time>
      </trkpt>
      <trkpt lat="41.86657" lon="9.19946">
        <ele>1678.4</ele>
        <time>2015-06-20T08:21:08Z</time>
      </trkpt>
      <trkpt lat="41.86656" lon="9.19939">
        <ele>1676.8</ele>
        <time>2015-06-20T08:21:16Z</time>
      </trkpt>
      <trkpt lat="41.86656" lon="9.19933">
        <ele>1675.8</ele>
        <time>2015-06-20T08:21:23Z</time>
      </trkpt>
      <trkpt lat="41.86653" lon="9.19925">
        <ele>1674.6</ele>
        <time>2015-06-20T08:21:31Z</time>
      </trkpt>
      <trkpt lat="41.86652" lon="9.19918">
        <ele>1673.4</ele>
        <time>2015-06-20T08:21:40Z</time>
      </trkpt>
      <trkpt lat="41.8665" lon="9.1991">
        <ele>1672.6</ele>
        <time>2015-06-20T08:21:49Z</time>
      </trkpt>
      <trkpt lat="41.86645" lon="9.19905">
        <ele>1671.8</ele>
        <time>2015-06-20T08:21:56Z</time>
      </trkpt>
      <trkpt lat="41.86641" lon="9.19898">
        <ele>1670.6</ele>
        <time>2015-06-20T08:22:04Z</time>
      </trkpt>
      <trkpt lat="41.86639" lon="9.19895">
        <ele>1670.2</ele>
        <time>2015-06-20T08:22:07Z</time>
      </trkpt>
      <trkpt lat="41.8664" lon="9.19892">
        <ele>1669.8</ele>
        <time>2015-06-20T08:22:11Z</time>
      </trkpt>
      <trkpt lat="41.86642" lon="9.19887">
        <ele>1668.8</ele>
        <time>2015-06-20T08:22:18Z</time>
      </trkpt>
      <trkpt lat="41.86641" lon="9.1988">
        <ele>1667.6</ele>
        <time>2015-06-20T08:22:25Z</time>
      </trkpt>
      <trkpt lat="41.8664" lon="9.19875">
        <ele>1666.4</ele>
        <time>2015-06-20T08:22:32Z</time>
      </trkpt>
      <trkpt lat="41.8664" lon="9.19869">
        <ele>1665.4</ele>
        <time>2015-06-20T08:22:39Z</time>
      </trkpt>
      <trkpt lat="41.8664" lon="9.19866">
        <ele>1664.8</ele>
        <time>2015-06-20T08:22:44Z</time>
      </trkpt>
      <trkpt lat="41.86638" lon="9.19862">
        <ele>1663.8</ele>
        <time>2015-06-20T08:22:49Z</time>
      </trkpt>
      <trkpt lat="41.8664" lon="9.19858">
        <ele>1662.6</ele>
        <time>2015-06-20T08:22:55Z</time>
      </trkpt>
      <trkpt lat="41.8664" lon="9.19851">
        <ele>1661.2</ele>
        <time>2015-06-20T08:23:03Z</time>
      </trkpt>
      <trkpt lat="41.86638" lon="9.19847">
        <ele>1660.6</ele>
        <time>2015-06-20T08:23:08Z</time>
      </trkpt>
      <trkpt lat="41.86634" lon="9.19845">
        <ele>1658.8</ele>
        <time>2015-06-20T08:23:17Z</time>
      </trkpt>
      <trkpt lat="41.86634" lon="9.19841">
        <ele>1658.2</ele>
        <time>2015-06-20T08:23:24Z</time>
      </trkpt>
      <trkpt lat="41.86634" lon="9.19838">
        <ele>1657.2</ele>
        <time>2015-06-20T08:23:30Z</time>
      </trkpt>
      <trkpt lat="41.86633" lon="9.19837">
        <ele>1655.8</ele>
        <time>2015-06-20T08:23:38Z</time>
      </trkpt>
      <trkpt lat="41.86634" lon="9.19838">
        <ele>1655.6</ele>
        <time>2015-06-20T08:24:14Z</time>
      </trkpt>
      <trkpt lat="41.86633" lon="9.19836">
        <ele>1655.2</ele>
        <time>2015-06-20T08:25:20Z</time>
      </trkpt>
      <trkpt lat="41.86633" lon="9.19833">
        <ele>1654.8</ele>
        <time>2015-06-20T08:26:16Z</time>
      </trkpt>
      <trkpt lat="41.86632" lon="9.19831">
        <ele>1654</ele>
        <time>2015-06-20T08:28:37Z</time>
      </trkpt>
      <trkpt lat="41.86633" lon="9.19825">
        <ele>1653.4</ele>
        <time>2015-06-20T08:28:46Z</time>
      </trkpt>
      <trkpt lat="41.86634" lon="9.19818">
        <ele>1652.4</ele>
        <time>2015-06-20T08:28:57Z</time>
      </trkpt>
      <trkpt lat="41.86636" lon="9.19815">
        <ele>1652</ele>
        <time>2015-06-20T08:29:02Z</time>
      </trkpt>
      <trkpt lat="41.86641" lon="9.19814">
        <ele>1650.2</ele>
        <time>2015-06-20T08:29:11Z</time>
      </trkpt>
      <trkpt lat="41.86643" lon="9.19811">
        <ele>1649.6</ele>
        <time>2015-06-20T08:29:20Z</time>
      </trkpt>
      <trkpt lat="41.86645" lon="9.19806">
        <ele>1648.6</ele>
        <time>2015-06-20T08:29:28Z</time>
      </trkpt>
      <trkpt lat="41.86646" lon="9.19802">
        <ele>1648</ele>
        <time>2015-06-20T08:29:33Z</time>
      </trkpt>
      <trkpt lat="41.86648" lon="9.19796">
        <ele>1646.2</ele>
        <time>2015-06-20T08:29:41Z</time>
      </trkpt>
      <trkpt lat="41.86651" lon="9.19795">
        <ele>1645.4</ele>
        <time>2015-06-20T08:29:48Z</time>
      </trkpt>
      <trkpt lat="41.86653" lon="9.1979">
        <ele>1644.2</ele>
        <time>2015-06-20T08:29:56Z</time>
      </trkpt>
      <trkpt lat="41.86655" lon="9.19788">
        <ele>1643.4</ele>
        <time>2015-06-20T08:30:02Z</time>
      </trkpt>
      <trkpt lat="41.86656" lon="9.19783">
        <ele>1642.4</ele>
        <time>2015-06-20T08:30:08Z</time>
      </trkpt>
      <trkpt lat="41.86658" lon="9.1978">
        <ele>1641</ele>
        <time>2015-06-20T08:30:16Z</time>
      </trkpt>
      <trkpt lat="41.86658" lon="9.19776">
        <ele>1640.4</ele>
        <time>2015-06-20T08:30:22Z</time>
      </trkpt>
      <trkpt lat="41.86658" lon="9.1977">
        <ele>1639</ele>
        <time>2015-06-20T08:30:30Z</time>
      </trkpt>
      <trkpt lat="41.86659" lon="9.19764">
        <ele>1638.2</ele>
        <time>2015-06-20T08:30:38Z</time>
      </trkpt>
      <trkpt lat="41.8666" lon="9.19758">
        <ele>1637</ele>
        <time>2015-06-20T08:30:46Z</time>
      </trkpt>
      <trkpt lat="41.86659" lon="9.19753">
        <ele>1636.2</ele>
        <time>2015-06-20T08:30:52Z</time>
      </trkpt>
      <trkpt lat="41.86659" lon="9.19747">
        <ele>1635.2</ele>
        <time>2015-06-20T08:30:58Z</time>
      </trkpt>
      <trkpt lat="41.8666" lon="9.19738">
        <ele>1633.8</ele>
        <time>2015-06-20T08:31:06Z</time>
      </trkpt>
      <trkpt lat="41.86658" lon="9.19732">
        <ele>1632.8</ele>
        <time>2015-06-20T08:31:13Z</time>
      </trkpt>
      <trkpt lat="41.86657" lon="9.19726">
        <ele>1631.4</ele>
        <time>2015-06-20T08:31:23Z</time>
      </trkpt>
      <trkpt lat="41.86658" lon="9.19723">
        <ele>1630.6</ele>
        <time>2015-06-20T08:31:31Z</time>
      </trkpt>
      <trkpt lat="41.86659" lon="9.19721">
        <ele>1629</ele>
        <time>2015-06-20T08:32:05Z</time>
      </trkpt>
      <trkpt lat="41.86659" lon="9.19714">
        <ele>1628.8</ele>
        <time>2015-06-20T08:32:37Z</time>
      </trkpt>
      <trkpt lat="41.8666" lon="9.19707">
        <ele>1627.8</ele>
        <time>2015-06-20T08:32:43Z</time>
      </trkpt>
      <trkpt lat="41.8666" lon="9.19703">
        <ele>1626.8</ele>
        <time>2015-06-20T08:32:48Z</time>
      </trkpt>
      <trkpt lat="41.8666" lon="9.19697">
        <ele>1625.4</ele>
        <time>2015-06-20T08:32:55Z</time>
      </trkpt>
      <trkpt lat="41.86657" lon="9.19688">
        <ele>1624.4</ele>
        <time>2015-06-20T08:33:03Z</time>
      </trkpt>
      <trkpt lat="41.86655" lon="9.19679">
        <ele>1623.2</ele>
        <time>2015-06-20T08:33:12Z</time>
      </trkpt>
      <trkpt lat="41.86655" lon="9.19678">
        <ele>1623.2</ele>
        <time>2015-06-20T08:33:13Z</time>
      </trkpt>
      <trkpt lat="41.86659" lon="9.19676">
        <ele>1622.4</ele>
        <time>2015-06-20T08:33:20Z</time>
      </trkpt>
      <trkpt lat="41.86663" lon="9.19673">
        <ele>1621</ele>
        <time>2015-06-20T08:33:27Z</time>
      </trkpt>
      <trkpt lat="41.86664" lon="9.19669">
        <ele>1620.2</ele>
        <time>2015-06-20T08:33:34Z</time>
      </trkpt>
      <trkpt lat="41.86665" lon="9.19664">
        <ele>1618.8</ele>
        <time>2015-06-20T08:33:41Z</time>
      </trkpt>
      <trkpt lat="41.86665" lon="9.19658">
        <ele>1618</ele>
        <time>2015-06-20T08:33:46Z</time>
      </trkpt>
      <trkpt lat="41.86665" lon="9.19653">
        <ele>1616.8</ele>
        <time>2015-06-20T08:33:52Z</time>
      </trkpt>
      <trkpt lat="41.86666" lon="9.19648">
        <ele>1615.8</ele>
        <time>2015-06-20T08:33:57Z</time>
      </trkpt>
      <trkpt lat="41.86668" lon="9.19644">
        <ele>1614.4</ele>
        <time>2015-06-20T08:34:03Z</time>
      </trkpt>
      <trkpt lat="41.86668" lon="9.1964">
        <ele>1613.4</ele>
        <time>2015-06-20T08:34:08Z</time>
      </trkpt>
      <trkpt lat="41.86671" lon="9.19631">
        <ele>1612</ele>
        <time>2015-06-20T08:34:16Z</time>
      </trkpt>
      <trkpt lat="41.86675" lon="9.19627">
        <ele>1611.2</ele>
        <time>2015-06-20T08:34:22Z</time>
      </trkpt>
      <trkpt lat="41.86676" lon="9.19624">
        <ele>1610.6</ele>
        <time>2015-06-20T08:34:25Z</time>
      </trkpt>
      <trkpt lat="41.86677" lon="9.19619">
        <ele>1609.6</ele>
        <time>2015-06-20T08:34:29Z</time>
      </trkpt>
      <trkpt lat="41.86677" lon="9.19618">
        <ele>1609.8</ele>
        <time>2015-06-20T08:34:30Z</time>
      </trkpt>
      <trkpt lat="41.86674" lon="9.19613">
        <ele>1609</ele>
        <time>2015-06-20T08:34:34Z</time>
      </trkpt>
      <trkpt lat="41.86673" lon="9.19609">
        <ele>1608.6</ele>
        <time>2015-06-20T08:34:37Z</time>
      </trkpt>
      <trkpt lat="41.86672" lon="9.19603">
        <ele>1608</ele>
        <time>2015-06-20T08:34:42Z</time>
      </trkpt>
      <trkpt lat="41.86671" lon="9.196">
        <ele>1608</ele>
        <time>2015-06-20T08:34:44Z</time>
      </trkpt>
      <trkpt lat="41.86678" lon="9.19593">
        <ele>1607.2</ele>
        <time>2015-06-20T08:34:54Z</time>
      </trkpt>
      <trkpt lat="41.86679" lon="9.19592">
        <ele>1607.2</ele>
        <time>2015-06-20T08:34:55Z</time>
      </trkpt>
      <trkpt lat="41.8668" lon="9.19591">
        <ele>1607.2</ele>
        <time>2015-06-20T08:34:56Z</time>
      </trkpt>
      <trkpt lat="41.86682" lon="9.19587">
        <ele>1606.8</ele>
        <time>2015-06-20T08:35:00Z</time>
      </trkpt>
      <trkpt lat="41.86685" lon="9.19584">
        <ele>1605.8</ele>
        <time>2015-06-20T08:35:05Z</time>
      </trkpt>
      <trkpt lat="41.86689" lon="9.19587">
        <ele>1605.6</ele>
        <time>2015-06-20T08:35:10Z</time>
      </trkpt>
      <trkpt lat="41.86691" lon="9.19584">
        <ele>1605.4</ele>
        <time>2015-06-20T08:35:13Z</time>
      </trkpt>
      <trkpt lat="41.86691" lon="9.19578">
        <ele>1604.8</ele>
        <time>2015-06-20T08:35:18Z</time>
      </trkpt>
      <trkpt lat="41.86693" lon="9.19575">
        <ele>1604.4</ele>
        <time>2015-06-20T08:35:21Z</time>
      </trkpt>
      <trkpt lat="41.86694" lon="9.19572">
        <ele>1604.2</ele>
        <time>2015-06-20T08:35:24Z</time>
      </trkpt>
      <trkpt lat="41.86699" lon="9.19559">
        <ele>1603.2</ele>
        <time>2015-06-20T08:35:36Z</time>
      </trkpt>
      <trkpt lat="41.86702" lon="9.1955">
        <ele>1602.6</ele>
        <time>2015-06-20T08:35:44Z</time>
      </trkpt>
      <trkpt lat="41.86705" lon="9.19547">
        <ele>1602.4</ele>
        <time>2015-06-20T08:35:47Z</time>
      </trkpt>
      <trkpt lat="41.86715" lon="9.19537">
        <ele>1601.4</ele>
        <time>2015-06-20T08:35:57Z</time>
      </trkpt>
      <trkpt lat="41.86725" lon="9.19523">
        <ele>1600</ele>
        <time>2015-06-20T08:36:11Z</time>
      </trkpt>
      <trkpt lat="41.86726" lon="9.19522">
        <ele>1600.2</ele>
        <time>2015-06-20T08:36:12Z</time>
      </trkpt>
      <trkpt lat="41.8673" lon="9.19515">
        <ele>1599.8</ele>
        <time>2015-06-20T08:36:18Z</time>
      </trkpt>
      <trkpt lat="41.86733" lon="9.1951">
        <ele>1599.4</ele>
        <time>2015-06-20T08:36:22Z</time>
      </trkpt>
      <trkpt lat="41.86735" lon="9.19508">
        <ele>1599.4</ele>
        <time>2015-06-20T08:36:24Z</time>
      </trkpt>
      <trkpt lat="41.86738" lon="9.19506">
        <ele>1599.4</ele>
        <time>2015-06-20T08:36:27Z</time>
      </trkpt>
      <trkpt lat="41.86745" lon="9.19498">
        <ele>1599.2</ele>
        <time>2015-06-20T08:36:36Z</time>
      </trkpt>
      <trkpt lat="41.86748" lon="9.19491">
        <ele>1599</ele>
        <time>2015-06-20T08:36:47Z</time>
      </trkpt>
      <trkpt lat="41.86749" lon="9.19483">
        <ele>1599.8</ele>
        <time>2015-06-20T08:37:06Z</time>
      </trkpt>
      <trkpt lat="41.86749" lon="9.19483">
        <ele>1599.6</ele>
        <time>2015-06-20T08:39:49Z</time>
      </trkpt>
      <trkpt lat="41.86746" lon="9.19481">
        <ele>1600</ele>
        <time>2015-06-20T08:40:37Z</time>
      </trkpt>
      <trkpt lat="41.86748" lon="9.19483">
        <ele>1599.4</ele>
        <time>2015-06-20T08:41:51Z</time>
      </trkpt>
      <trkpt lat="41.86764" lon="9.19482">
        <ele>1599.4</ele>
        <time>2015-06-20T08:42:45Z</time>
      </trkpt>
      <trkpt lat="41.86779" lon="9.19471">
        <ele>1598.4</ele>
        <time>2015-06-20T08:43:01Z</time>
      </trkpt>
      <trkpt lat="41.86792" lon="9.19454">
        <ele>1598</ele>
        <time>2015-06-20T08:43:20Z</time>
      </trkpt>
      <trkpt lat="41.86793" lon="9.1945">
        <ele>1597.6</ele>
        <time>2015-06-20T08:43:23Z</time>
      </trkpt>
      <trkpt lat="41.86793" lon="9.19448">
        <ele>1597.2</ele>
        <time>2015-06-20T08:43:25Z</time>
      </trkpt>
      <trkpt lat="41.86794" lon="9.19441">
        <ele>1597</ele>
        <time>2015-06-20T08:43:31Z</time>
      </trkpt>
      <trkpt lat="41.86799" lon="9.1943">
        <ele>1596</ele>
        <time>2015-06-20T08:43:41Z</time>
      </trkpt>
      <trkpt lat="41.868" lon="9.1943">
        <ele>1595.8</ele>
        <time>2015-06-20T08:43:42Z</time>
      </trkpt>
      <trkpt lat="41.86804" lon="9.19426">
        <ele>1595.2</ele>
        <time>2015-06-20T08:43:49Z</time>
      </trkpt>
      <trkpt lat="41.8681" lon="9.1942">
        <ele>1593.8</ele>
        <time>2015-06-20T08:43:58Z</time>
      </trkpt>
      <trkpt lat="41.86813" lon="9.1941">
        <ele>1592.8</ele>
        <time>2015-06-20T08:44:08Z</time>
      </trkpt>
      <trkpt lat="41.86818" lon="9.19405">
        <ele>1592</ele>
        <time>2015-06-20T08:44:16Z</time>
      </trkpt>
      <trkpt lat="41.86824" lon="9.19399">
        <ele>1590.6</ele>
        <time>2015-06-20T08:44:26Z</time>
      </trkpt>
      <trkpt lat="41.86832" lon="9.19392">
        <ele>1589.6</ele>
        <time>2015-06-20T08:44:39Z</time>
      </trkpt>
      <trkpt lat="41.8684" lon="9.19382">
        <ele>1588.6</ele>
        <time>2015-06-20T08:44:51Z</time>
      </trkpt>
      <trkpt lat="41.86843" lon="9.19377">
        <ele>1588</ele>
        <time>2015-06-20T08:44:57Z</time>
      </trkpt>
      <trkpt lat="41.86843" lon="9.19371">
        <ele>1587.6</ele>
        <time>2015-06-20T08:45:02Z</time>
      </trkpt>
      <trkpt lat="41.86843" lon="9.19368">
        <ele>1587.6</ele>
        <time>2015-06-20T08:45:06Z</time>
      </trkpt>
      <trkpt lat="41.86849" lon="9.19358">
        <ele>1586.4</ele>
        <time>2015-06-20T08:45:16Z</time>
      </trkpt>
      <trkpt lat="41.86854" lon="9.19354">
        <ele>1585.6</ele>
        <time>2015-06-20T08:45:23Z</time>
      </trkpt>
      <trkpt lat="41.86855" lon="9.19353">
        <ele>1585.6</ele>
        <time>2015-06-20T08:45:25Z</time>
      </trkpt>
      <trkpt lat="41.86867" lon="9.19334">
        <ele>1584.2</ele>
        <time>2015-06-20T08:45:45Z</time>
      </trkpt>
      <trkpt lat="41.86868" lon="9.19326">
        <ele>1584</ele>
        <time>2015-06-20T08:45:51Z</time>
      </trkpt>
      <trkpt lat="41.86868" lon="9.19324">
        <ele>1583.8</ele>
        <time>2015-06-20T08:45:52Z</time>
      </trkpt>
      <trkpt lat="41.8687" lon="9.19323">
        <ele>1584</ele>
        <time>2015-06-20T08:45:54Z</time>
      </trkpt>
      <trkpt lat="41.86871" lon="9.19321">
        <ele>1583.8</ele>
        <time>2015-06-20T08:45:56Z</time>
      </trkpt>
      <trkpt lat="41.86872" lon="9.19318">
        <ele>1583.6</ele>
        <time>2015-06-20T08:45:59Z</time>
      </trkpt>
      <trkpt lat="41.86875" lon="9.19313">
        <ele>1583.6</ele>
        <time>2015-06-20T08:46:03Z</time>
      </trkpt>
      <trkpt lat="41.86876" lon="9.1931">
        <ele>1583.2</ele>
        <time>2015-06-20T08:46:06Z</time>
      </trkpt>
      <trkpt lat="41.86876" lon="9.19309">
        <ele>1583.2</ele>
        <time>2015-06-20T08:46:07Z</time>
      </trkpt>
      <trkpt lat="41.86876" lon="9.19305">
        <ele>1583</ele>
        <time>2015-06-20T08:46:10Z</time>
      </trkpt>
      <trkpt lat="41.86877" lon="9.19303">
        <ele>1582.8</ele>
        <time>2015-06-20T08:46:12Z</time>
      </trkpt>
      <trkpt lat="41.86881" lon="9.193">
        <ele>1582.2</ele>
        <time>2015-06-20T08:46:18Z</time>
      </trkpt>
      <trkpt lat="41.86888" lon="9.19295">
        <ele>1581.6</ele>
        <time>2015-06-20T08:46:29Z</time>
      </trkpt>
      <trkpt lat="41.86892" lon="9.19292">
        <ele>1580.6</ele>
        <time>2015-06-20T08:46:37Z</time>
      </trkpt>
      <trkpt lat="41.86896" lon="9.19289">
        <ele>1579.4</ele>
        <time>2015-06-20T08:46:45Z</time>
      </trkpt>
      <trkpt lat="41.869" lon="9.19287">
        <ele>1578.8</ele>
        <time>2015-06-20T08:46:52Z</time>
      </trkpt>
      <trkpt lat="41.86904" lon="9.19284">
        <ele>1577.8</ele>
        <time>2015-06-20T08:46:57Z</time>
      </trkpt>
      <trkpt lat="41.86906" lon="9.19281">
        <ele>1577.4</ele>
        <time>2015-06-20T08:47:00Z</time>
      </trkpt>
      <trkpt lat="41.86905" lon="9.19275">
        <ele>1576.6</ele>
        <time>2015-06-20T08:47:06Z</time>
      </trkpt>
      <trkpt lat="41.86904" lon="9.19272">
        <ele>1576.2</ele>
        <time>2015-06-20T08:47:09Z</time>
      </trkpt>
      <trkpt lat="41.86905" lon="9.19269">
        <ele>1575.4</ele>
        <time>2015-06-20T08:47:12Z</time>
      </trkpt>
      <trkpt lat="41.86907" lon="9.19264">
        <ele>1574.4</ele>
        <time>2015-06-20T08:47:18Z</time>
      </trkpt>
      <trkpt lat="41.8691" lon="9.19256">
        <ele>1573.2</ele>
        <time>2015-06-20T08:47:26Z</time>
      </trkpt>
      <trkpt lat="41.86911" lon="9.19251">
        <ele>1572.4</ele>
        <time>2015-06-20T08:47:32Z</time>
      </trkpt>
      <trkpt lat="41.86915" lon="9.19245">
        <ele>1571</ele>
        <time>2015-06-20T08:47:40Z</time>
      </trkpt>
      <trkpt lat="41.86917" lon="9.19239">
        <ele>1570</ele>
        <time>2015-06-20T08:47:48Z</time>
      </trkpt>
      <trkpt lat="41.86921" lon="9.19227">
        <ele>1568.8</ele>
        <time>2015-06-20T08:47:59Z</time>
      </trkpt>
      <trkpt lat="41.8692" lon="9.19216">
        <ele>1567.8</ele>
        <time>2015-06-20T08:48:10Z</time>
      </trkpt>
      <trkpt lat="41.86918" lon="9.1921">
        <ele>1567</ele>
        <time>2015-06-20T08:48:17Z</time>
      </trkpt>
      <trkpt lat="41.86919" lon="9.19201">
        <ele>1565.4</ele>
        <time>2015-06-20T08:48:30Z</time>
      </trkpt>
      <trkpt lat="41.86922" lon="9.19195">
        <ele>1565.2</ele>
        <time>2015-06-20T08:48:36Z</time>
      </trkpt>
      <trkpt lat="41.86923" lon="9.19188">
        <ele>1564</ele>
        <time>2015-06-20T08:48:42Z</time>
      </trkpt>
      <trkpt lat="41.86923" lon="9.19183">
        <ele>1563.2</ele>
        <time>2015-06-20T08:48:47Z</time>
      </trkpt>
      <trkpt lat="41.86923" lon="9.19182">
        <ele>1563</ele>
        <time>2015-06-20T08:48:48Z</time>
      </trkpt>
      <trkpt lat="41.86921" lon="9.19178">
        <ele>1561.8</ele>
        <time>2015-06-20T08:48:53Z</time>
      </trkpt>
      <trkpt lat="41.86917" lon="9.19173">
        <ele>1560.8</ele>
        <time>2015-06-20T08:48:59Z</time>
      </trkpt>
      <trkpt lat="41.86915" lon="9.19172">
        <ele>1560.2</ele>
        <time>2015-06-20T08:49:02Z</time>
      </trkpt>
      <trkpt lat="41.86915" lon="9.19171">
        <ele>1559.6</ele>
        <time>2015-06-20T08:49:05Z</time>
      </trkpt>
      <trkpt lat="41.86917" lon="9.19165">
        <ele>1558.4</ele>
        <time>2015-06-20T08:49:13Z</time>
      </trkpt>
      <trkpt lat="41.86921" lon="9.1916">
        <ele>1557.2</ele>
        <time>2015-06-20T08:49:22Z</time>
      </trkpt>
      <trkpt lat="41.86923" lon="9.19153">
        <ele>1556.2</ele>
        <time>2015-06-20T08:49:33Z</time>
      </trkpt>
      <trkpt lat="41.86922" lon="9.1915">
        <ele>1554.8</ele>
        <time>2015-06-20T08:49:47Z</time>
      </trkpt>
      <trkpt lat="41.86922" lon="9.19143">
        <ele>1553.8</ele>
        <time>2015-06-20T08:50:00Z</time>
      </trkpt>
      <trkpt lat="41.86925" lon="9.19138">
        <ele>1553.6</ele>
        <time>2015-06-20T08:50:06Z</time>
      </trkpt>
      <trkpt lat="41.86927" lon="9.1913">
        <ele>1552.2</ele>
        <time>2015-06-20T08:50:15Z</time>
      </trkpt>
      <trkpt lat="41.86929" lon="9.19126">
        <ele>1551.6</ele>
        <time>2015-06-20T08:50:20Z</time>
      </trkpt>
      <trkpt lat="41.86933" lon="9.19121">
        <ele>1550.4</ele>
        <time>2015-06-20T08:50:26Z</time>
      </trkpt>
      <trkpt lat="41.86938" lon="9.19116">
        <ele>1549.2</ele>
        <time>2015-06-20T08:50:33Z</time>
      </trkpt>
      <trkpt lat="41.86942" lon="9.19105">
        <ele>1547.8</ele>
        <time>2015-06-20T08:50:43Z</time>
      </trkpt>
      <trkpt lat="41.86946" lon="9.19101">
        <ele>1547.2</ele>
        <time>2015-06-20T08:50:48Z</time>
      </trkpt>
      <trkpt lat="41.86948" lon="9.19103">
        <ele>1547</ele>
        <time>2015-06-20T08:50:50Z</time>
      </trkpt>
      <trkpt lat="41.86949" lon="9.19104">
        <ele>1546.6</ele>
        <time>2015-06-20T08:50:52Z</time>
      </trkpt>
      <trkpt lat="41.8696" lon="9.19096">
        <ele>1545.6</ele>
        <time>2015-06-20T08:51:23Z</time>
      </trkpt>
      <trkpt lat="41.86968" lon="9.19092">
        <ele>1544.2</ele>
        <time>2015-06-20T08:51:34Z</time>
      </trkpt>
      <trkpt lat="41.86967" lon="9.19085">
        <ele>1543.4</ele>
        <time>2015-06-20T08:51:45Z</time>
      </trkpt>
      <trkpt lat="41.86964" lon="9.19079">
        <ele>1542.2</ele>
        <time>2015-06-20T08:51:58Z</time>
      </trkpt>
      <trkpt lat="41.86966" lon="9.19074">
        <ele>1541.8</ele>
        <time>2015-06-20T08:52:05Z</time>
      </trkpt>
      <trkpt lat="41.8697" lon="9.19072">
        <ele>1540.4</ele>
        <time>2015-06-20T08:52:20Z</time>
      </trkpt>
      <trkpt lat="41.86974" lon="9.19065">
        <ele>1539.4</ele>
        <time>2015-06-20T08:52:31Z</time>
      </trkpt>
      <trkpt lat="41.86975" lon="9.19062">
        <ele>1539</ele>
        <time>2015-06-20T08:52:36Z</time>
      </trkpt>
      <trkpt lat="41.86976" lon="9.19057">
        <ele>1537.2</ele>
        <time>2015-06-20T08:52:45Z</time>
      </trkpt>
      <trkpt lat="41.86977" lon="9.19051">
        <ele>1536.4</ele>
        <time>2015-06-20T08:52:55Z</time>
      </trkpt>
      <trkpt lat="41.86979" lon="9.19045">
        <ele>1535</ele>
        <time>2015-06-20T08:53:04Z</time>
      </trkpt>
      <trkpt lat="41.86984" lon="9.19042">
        <ele>1534.6</ele>
        <time>2015-06-20T08:53:10Z</time>
      </trkpt>
      <trkpt lat="41.86985" lon="9.19041">
        <ele>1534.2</ele>
        <time>2015-06-20T08:53:12Z</time>
      </trkpt>
      <trkpt lat="41.86985" lon="9.19037">
        <ele>1533.6</ele>
        <time>2015-06-20T08:53:15Z</time>
      </trkpt>
      <trkpt lat="41.86987" lon="9.19035">
        <ele>1533</ele>
        <time>2015-06-20T08:53:18Z</time>
      </trkpt>
      <trkpt lat="41.86988" lon="9.19036">
        <ele>1532.8</ele>
        <time>2015-06-20T08:53:19Z</time>
      </trkpt>
      <trkpt lat="41.86992" lon="9.19034">
        <ele>1532.2</ele>
        <time>2015-06-20T08:53:25Z</time>
      </trkpt>
      <trkpt lat="41.86996" lon="9.19032">
        <ele>1531.2</ele>
        <time>2015-06-20T08:53:31Z</time>
      </trkpt>
      <trkpt lat="41.87" lon="9.19033">
        <ele>1529.8</ele>
        <time>2015-06-20T08:53:37Z</time>
      </trkpt>
      <trkpt lat="41.87006" lon="9.19033">
        <ele>1528.6</ele>
        <time>2015-06-20T08:53:48Z</time>
      </trkpt>
      <trkpt lat="41.87009" lon="9.19035">
        <ele>1527.8</ele>
        <time>2015-06-20T08:53:54Z</time>
      </trkpt>
      <trkpt lat="41.87014" lon="9.19034">
        <ele>1526.8</ele>
        <time>2015-06-20T08:54:02Z</time>
      </trkpt>
      <trkpt lat="41.8702" lon="9.19037">
        <ele>1525.4</ele>
        <time>2015-06-20T08:54:09Z</time>
      </trkpt>
      <trkpt lat="41.8703" lon="9.19041">
        <ele>1524.2</ele>
        <time>2015-06-20T08:54:22Z</time>
      </trkpt>
      <trkpt lat="41.87034" lon="9.19041">
        <ele>1524</ele>
        <time>2015-06-20T08:54:26Z</time>
      </trkpt>
      <trkpt lat="41.87035" lon="9.1904">
        <ele>1523.8</ele>
        <time>2015-06-20T08:54:28Z</time>
      </trkpt>
      <trkpt lat="41.87036" lon="9.1904">
        <ele>1523.4</ele>
        <time>2015-06-20T08:54:29Z</time>
      </trkpt>
      <trkpt lat="41.87037" lon="9.19041">
        <ele>1523.4</ele>
        <time>2015-06-20T08:54:30Z</time>
      </trkpt>
      <trkpt lat="41.8704" lon="9.19037">
        <ele>1522.4</ele>
        <time>2015-06-20T08:54:36Z</time>
      </trkpt>
      <trkpt lat="41.87041" lon="9.19036">
        <ele>1522.2</ele>
        <time>2015-06-20T08:54:37Z</time>
      </trkpt>
      <trkpt lat="41.87042" lon="9.19031">
        <ele>1521.4</ele>
        <time>2015-06-20T08:54:43Z</time>
      </trkpt>
      <trkpt lat="41.87046" lon="9.19029">
        <ele>1520.2</ele>
        <time>2015-06-20T08:54:50Z</time>
      </trkpt>
      <trkpt lat="41.87054" lon="9.19033">
        <ele>1518.6</ele>
        <time>2015-06-20T08:55:10Z</time>
      </trkpt>
      <trkpt lat="41.87058" lon="9.19029">
        <ele>1518</ele>
        <time>2015-06-20T08:55:17Z</time>
      </trkpt>
      <trkpt lat="41.87062" lon="9.19027">
        <ele>1517.4</ele>
        <time>2015-06-20T08:55:22Z</time>
      </trkpt>
      <trkpt lat="41.87066" lon="9.19028">
        <ele>1516.2</ele>
        <time>2015-06-20T08:55:28Z</time>
      </trkpt>
      <trkpt lat="41.8707" lon="9.19028">
        <ele>1515.2</ele>
        <time>2015-06-20T08:55:33Z</time>
      </trkpt>
      <trkpt lat="41.87075" lon="9.19029">
        <ele>1513.8</ele>
        <time>2015-06-20T08:55:39Z</time>
      </trkpt>
      <trkpt lat="41.87083" lon="9.19025">
        <ele>1512.6</ele>
        <time>2015-06-20T08:55:48Z</time>
      </trkpt>
      <trkpt lat="41.8709" lon="9.19021">
        <ele>1511.4</ele>
        <time>2015-06-20T08:55:56Z</time>
      </trkpt>
      <trkpt lat="41.87097" lon="9.19024">
        <ele>1510.6</ele>
        <time>2015-06-20T08:56:03Z</time>
      </trkpt>
      <trkpt lat="41.87101" lon="9.1902">
        <ele>1509.2</ele>
        <time>2015-06-20T08:56:10Z</time>
      </trkpt>
      <trkpt lat="41.87107" lon="9.19017">
        <ele>1508</ele>
        <time>2015-06-20T08:56:18Z</time>
      </trkpt>
      <trkpt lat="41.87113" lon="9.19016">
        <ele>1507.2</ele>
        <time>2015-06-20T08:56:25Z</time>
      </trkpt>
      <trkpt lat="41.87116" lon="9.19009">
        <ele>1506</ele>
        <time>2015-06-20T08:56:33Z</time>
      </trkpt>
      <trkpt lat="41.87118" lon="9.19005">
        <ele>1505.2</ele>
        <time>2015-06-20T08:56:40Z</time>
      </trkpt>
      <trkpt lat="41.87122" lon="9.18997">
        <ele>1504</ele>
        <time>2015-06-20T08:56:49Z</time>
      </trkpt>
      <trkpt lat="41.87126" lon="9.18997">
        <ele>1503.2</ele>
        <time>2015-06-20T08:56:55Z</time>
      </trkpt>
      <trkpt lat="41.87132" lon="9.19001">
        <ele>1501.8</ele>
        <time>2015-06-20T08:57:04Z</time>
      </trkpt>
      <trkpt lat="41.87138" lon="9.19003">
        <ele>1500.8</ele>
        <time>2015-06-20T08:57:24Z</time>
      </trkpt>
      <trkpt lat="41.87144" lon="9.19006">
        <ele>1499.6</ele>
        <time>2015-06-20T08:57:35Z</time>
      </trkpt>
      <trkpt lat="41.8715" lon="9.19006">
        <ele>1498.8</ele>
        <time>2015-06-20T08:57:42Z</time>
      </trkpt>
      <trkpt lat="41.87157" lon="9.19001">
        <ele>1497.6</ele>
        <time>2015-06-20T08:57:51Z</time>
      </trkpt>
      <trkpt lat="41.8716" lon="9.18994">
        <ele>1496.8</ele>
        <time>2015-06-20T08:57:58Z</time>
      </trkpt>
      <trkpt lat="41.87162" lon="9.1899">
        <ele>1495.8</ele>
        <time>2015-06-20T08:58:03Z</time>
      </trkpt>
      <trkpt lat="41.87164" lon="9.18987">
        <ele>1494.8</ele>
        <time>2015-06-20T08:58:08Z</time>
      </trkpt>
      <trkpt lat="41.87166" lon="9.18982">
        <ele>1493.4</ele>
        <time>2015-06-20T08:58:14Z</time>
      </trkpt>
      <trkpt lat="41.87165" lon="9.18973">
        <ele>1491.8</ele>
        <time>2015-06-20T08:58:23Z</time>
      </trkpt>
      <trkpt lat="41.87163" lon="9.18969">
        <ele>1491.2</ele>
        <time>2015-06-20T08:58:29Z</time>
      </trkpt>
      <trkpt lat="41.87161" lon="9.18964">
        <ele>1490.2</ele>
        <time>2015-06-20T08:58:35Z</time>
      </trkpt>
      <trkpt lat="41.87159" lon="9.18961">
        <ele>1489.6</ele>
        <time>2015-06-20T08:58:38Z</time>
      </trkpt>
      <trkpt lat="41.8716" lon="9.18958">
        <ele>1488.8</ele>
        <time>2015-06-20T08:58:43Z</time>
      </trkpt>
      <trkpt lat="41.8716" lon="9.18956">
        <ele>1488</ele>
        <time>2015-06-20T08:58:49Z</time>
      </trkpt>
      <trkpt lat="41.87163" lon="9.18954">
        <ele>1486.8</ele>
        <time>2015-06-20T08:58:55Z</time>
      </trkpt>
      <trkpt lat="41.87165" lon="9.18951">
        <ele>1485.6</ele>
        <time>2015-06-20T08:59:01Z</time>
      </trkpt>
      <trkpt lat="41.87164" lon="9.18946">
        <ele>1484.6</ele>
        <time>2015-06-20T08:59:06Z</time>
      </trkpt>
      <trkpt lat="41.87164" lon="9.18942">
        <ele>1483.4</ele>
        <time>2015-06-20T08:59:12Z</time>
      </trkpt>
      <trkpt lat="41.87164" lon="9.18939">
        <ele>1482.4</ele>
        <time>2015-06-20T08:59:17Z</time>
      </trkpt>
      <trkpt lat="41.87162" lon="9.18934">
        <ele>1481.2</ele>
        <time>2015-06-20T08:59:23Z</time>
      </trkpt>
      <trkpt lat="41.87163" lon="9.1893">
        <ele>1480</ele>
        <time>2015-06-20T08:59:29Z</time>
      </trkpt>
      <trkpt lat="41.87165" lon="9.18926">
        <ele>1478.6</ele>
        <time>2015-06-20T08:59:36Z</time>
      </trkpt>
      <trkpt lat="41.87167" lon="9.18927">
        <ele>1477.8</ele>
        <time>2015-06-20T08:59:42Z</time>
      </trkpt>
      <trkpt lat="41.87171" lon="9.18927">
        <ele>1476.6</ele>
        <time>2015-06-20T08:59:49Z</time>
      </trkpt>
      <trkpt lat="41.87174" lon="9.18927">
        <ele>1475.8</ele>
        <time>2015-06-20T08:59:54Z</time>
      </trkpt>
      <trkpt lat="41.87178" lon="9.18927">
        <ele>1474.2</ele>
        <time>2015-06-20T09:00:03Z</time>
      </trkpt>
      <trkpt lat="41.87179" lon="9.18926">
        <ele>1473.2</ele>
        <time>2015-06-20T09:00:10Z</time>
      </trkpt>
      <trkpt lat="41.8718" lon="9.18921">
        <ele>1472.2</ele>
        <time>2015-06-20T09:00:16Z</time>
      </trkpt>
      <trkpt lat="41.87182" lon="9.18919">
        <ele>1471</ele>
        <time>2015-06-20T09:00:23Z</time>
      </trkpt>
      <trkpt lat="41.87184" lon="9.18918">
        <ele>1470</ele>
        <time>2015-06-20T09:00:29Z</time>
      </trkpt>
      <trkpt lat="41.87186" lon="9.18915">
        <ele>1468.6</ele>
        <time>2015-06-20T09:00:36Z</time>
      </trkpt>
      <trkpt lat="41.87186" lon="9.18911">
        <ele>1467.6</ele>
        <time>2015-06-20T09:00:43Z</time>
      </trkpt>
      <trkpt lat="41.87184" lon="9.18909">
        <ele>1466.6</ele>
        <time>2015-06-20T09:00:50Z</time>
      </trkpt>
      <trkpt lat="41.87181" lon="9.18907">
        <ele>1465.6</ele>
        <time>2015-06-20T09:00:56Z</time>
      </trkpt>
      <trkpt lat="41.87179" lon="9.18902">
        <ele>1464.4</ele>
        <time>2015-06-20T09:01:03Z</time>
      </trkpt>
      <trkpt lat="41.8718" lon="9.18897">
        <ele>1463.4</ele>
        <time>2015-06-20T09:01:11Z</time>
      </trkpt>
      <trkpt lat="41.87179" lon="9.1889">
        <ele>1462.4</ele>
        <time>2015-06-20T09:01:17Z</time>
      </trkpt>
      <trkpt lat="41.8718" lon="9.18885">
        <ele>1461.6</ele>
        <time>2015-06-20T09:01:22Z</time>
      </trkpt>
      <trkpt lat="41.87184" lon="9.18877">
        <ele>1460.2</ele>
        <time>2015-06-20T09:01:29Z</time>
      </trkpt>
      <trkpt lat="41.87187" lon="9.18872">
        <ele>1459.2</ele>
        <time>2015-06-20T09:01:35Z</time>
      </trkpt>
      <trkpt lat="41.87191" lon="9.18869">
        <ele>1458.2</ele>
        <time>2015-06-20T09:01:40Z</time>
      </trkpt>
      <trkpt lat="41.87194" lon="9.18865">
        <ele>1457.4</ele>
        <time>2015-06-20T09:01:45Z</time>
      </trkpt>
      <trkpt lat="41.87198" lon="9.18861">
        <ele>1455.8</ele>
        <time>2015-06-20T09:01:52Z</time>
      </trkpt>
      <trkpt lat="41.872" lon="9.18855">
        <ele>1454.8</ele>
        <time>2015-06-20T09:01:59Z</time>
      </trkpt>
      <trkpt lat="41.87202" lon="9.18852">
        <ele>1454.2</ele>
        <time>2015-06-20T09:02:04Z</time>
      </trkpt>
      <trkpt lat="41.87206" lon="9.1885">
        <ele>1453.2</ele>
        <time>2015-06-20T09:02:09Z</time>
      </trkpt>
      <trkpt lat="41.87211" lon="9.18853">
        <ele>1451.2</ele>
        <time>2015-06-20T09:02:16Z</time>
      </trkpt>
      <trkpt lat="41.87221" lon="9.18849">
        <ele>1450.2</ele>
        <time>2015-06-20T09:02:32Z</time>
      </trkpt>
      <trkpt lat="41.87225" lon="9.18846">
        <ele>1449.4</ele>
        <time>2015-06-20T09:02:39Z</time>
      </trkpt>
      <trkpt lat="41.87229" lon="9.18841">
        <ele>1448.4</ele>
        <time>2015-06-20T09:02:47Z</time>
      </trkpt>
      <trkpt lat="41.87233" lon="9.18836">
        <ele>1447.2</ele>
        <time>2015-06-20T09:02:56Z</time>
      </trkpt>
      <trkpt lat="41.87234" lon="9.18832">
        <ele>1446.4</ele>
        <time>2015-06-20T09:03:03Z</time>
      </trkpt>
      <trkpt lat="41.87236" lon="9.18828">
        <ele>1445.2</ele>
        <time>2015-06-20T09:03:10Z</time>
      </trkpt>
      <trkpt lat="41.87238" lon="9.18822">
        <ele>1444.2</ele>
        <time>2015-06-20T09:03:18Z</time>
      </trkpt>
      <trkpt lat="41.8724" lon="9.18818">
        <ele>1443.2</ele>
        <time>2015-06-20T09:03:25Z</time>
      </trkpt>
      <trkpt lat="41.87241" lon="9.18811">
        <ele>1442</ele>
        <time>2015-06-20T09:03:32Z</time>
      </trkpt>
      <trkpt lat="41.87245" lon="9.18807">
        <ele>1441</ele>
        <time>2015-06-20T09:03:39Z</time>
      </trkpt>
      <trkpt lat="41.87248" lon="9.188">
        <ele>1439.8</ele>
        <time>2015-06-20T09:03:46Z</time>
      </trkpt>
      <trkpt lat="41.87248" lon="9.18794">
        <ele>1439</ele>
        <time>2015-06-20T09:03:52Z</time>
      </trkpt>
      <trkpt lat="41.8725" lon="9.18791">
        <ele>1438</ele>
        <time>2015-06-20T09:03:57Z</time>
      </trkpt>
      <trkpt lat="41.87251" lon="9.18788">
        <ele>1436.8</ele>
        <time>2015-06-20T09:04:02Z</time>
      </trkpt>
      <trkpt lat="41.8725" lon="9.18782">
        <ele>1435.2</ele>
        <time>2015-06-20T09:04:11Z</time>
      </trkpt>
      <trkpt lat="41.87247" lon="9.18775">
        <ele>1434.2</ele>
        <time>2015-06-20T09:04:20Z</time>
      </trkpt>
      <trkpt lat="41.87246" lon="9.1877">
        <ele>1433.4</ele>
        <time>2015-06-20T09:04:27Z</time>
      </trkpt>
      <trkpt lat="41.87244" lon="9.18765">
        <ele>1432.6</ele>
        <time>2015-06-20T09:04:33Z</time>
      </trkpt>
      <trkpt lat="41.8724" lon="9.18761">
        <ele>1431.4</ele>
        <time>2015-06-20T09:04:40Z</time>
      </trkpt>
      <trkpt lat="41.87235" lon="9.18758">
        <ele>1430</ele>
        <time>2015-06-20T09:04:48Z</time>
      </trkpt>
      <trkpt lat="41.87233" lon="9.18754">
        <ele>1429</ele>
        <time>2015-06-20T09:04:54Z</time>
      </trkpt>
      <trkpt lat="41.87229" lon="9.18749">
        <ele>1428</ele>
        <time>2015-06-20T09:05:00Z</time>
      </trkpt>
      <trkpt lat="41.87223" lon="9.1874">
        <ele>1426.4</ele>
        <time>2015-06-20T09:05:08Z</time>
      </trkpt>
      <trkpt lat="41.87218" lon="9.18733">
        <ele>1425.4</ele>
        <time>2015-06-20T09:05:17Z</time>
      </trkpt>
      <trkpt lat="41.8721" lon="9.18725">
        <ele>1424.4</ele>
        <time>2015-06-20T09:05:27Z</time>
      </trkpt>
      <trkpt lat="41.87195" lon="9.18714">
        <ele>1423</ele>
        <time>2015-06-20T09:05:44Z</time>
      </trkpt>
      <trkpt lat="41.87182" lon="9.187">
        <ele>1422.2</ele>
        <time>2015-06-20T09:06:00Z</time>
      </trkpt>
      <trkpt lat="41.87173" lon="9.1869">
        <ele>1421.6</ele>
        <time>2015-06-20T09:06:09Z</time>
      </trkpt>
      <trkpt lat="41.87169" lon="9.1869">
        <ele>1421.2</ele>
        <time>2015-06-20T09:06:13Z</time>
      </trkpt>
      <trkpt lat="41.87151" lon="9.18684">
        <ele>1421</ele>
        <time>2015-06-20T09:06:32Z</time>
      </trkpt>
      <trkpt lat="41.87146" lon="9.18681">
        <ele>1420.8</ele>
        <time>2015-06-20T09:06:40Z</time>
      </trkpt>
      <trkpt lat="41.87128" lon="9.18674">
        <ele>1420.4</ele>
        <time>2015-06-20T09:07:21Z</time>
      </trkpt>
      <trkpt lat="41.87124" lon="9.1867">
        <ele>1419.6</ele>
        <time>2015-06-20T09:07:37Z</time>
      </trkpt>
      <trkpt lat="41.87122" lon="9.18658">
        <ele>1419</ele>
        <time>2015-06-20T09:08:05Z</time>
      </trkpt>
      <trkpt lat="41.87118" lon="9.18655">
        <ele>1418.6</ele>
        <time>2015-06-20T09:08:11Z</time>
      </trkpt>
      <trkpt lat="41.87116" lon="9.18648">
        <ele>1418.4</ele>
        <time>2015-06-20T09:09:24Z</time>
      </trkpt>
      <trkpt lat="41.87112" lon="9.18654">
        <ele>1418.2</ele>
        <time>2015-06-20T09:09:30Z</time>
      </trkpt>
      <trkpt lat="41.8711" lon="9.18657">
        <ele>1417.4</ele>
        <time>2015-06-20T09:09:34Z</time>
      </trkpt>
      <trkpt lat="41.87111" lon="9.18658">
        <ele>1417.2</ele>
        <time>2015-06-20T09:09:36Z</time>
      </trkpt>
      <trkpt lat="41.8711" lon="9.18661">
        <ele>1416.4</ele>
        <time>2015-06-20T09:10:00Z</time>
      </trkpt>
      <trkpt lat="41.87106" lon="9.18655">
        <ele>1416.2</ele>
        <time>2015-06-20T09:10:48Z</time>
      </trkpt>
      <trkpt lat="41.87102" lon="9.18648">
        <ele>1416.2</ele>
        <time>2015-06-20T09:11:13Z</time>
      </trkpt>
      <trkpt lat="41.87103" lon="9.1865">
        <ele>1416.2</ele>
        <time>2015-06-20T09:11:15Z</time>
      </trkpt>
      <trkpt lat="41.87108" lon="9.18654">
        <ele>1416.4</ele>
        <time>2015-06-20T09:11:44Z</time>
      </trkpt>
      <trkpt lat="41.87113" lon="9.18649">
        <ele>1417</ele>
        <time>2015-06-20T09:12:43Z</time>
      </trkpt>
      <trkpt lat="41.87112" lon="9.18644">
        <ele>1418</ele>
        <time>2015-06-20T09:12:52Z</time>
      </trkpt>
      <trkpt lat="41.8711" lon="9.18627">
        <ele>1419</ele>
        <time>2015-06-20T09:15:57Z</time>
      </trkpt>
      <trkpt lat="41.8711" lon="9.18624">
        <ele>1419.2</ele>
        <time>2015-06-20T09:15:59Z</time>
      </trkpt>
      <trkpt lat="41.8712" lon="9.18622">
        <ele>1419</ele>
        <time>2015-06-20T09:16:10Z</time>
      </trkpt>
      <trkpt lat="41.87123" lon="9.18621">
        <ele>1419</ele>
        <time>2015-06-20T09:16:13Z</time>
      </trkpt>
      <trkpt lat="41.87144" lon="9.18605">
        <ele>1418.4</ele>
        <time>2015-06-20T09:16:42Z</time>
      </trkpt>
      <trkpt lat="41.87158" lon="9.186">
        <ele>1417</ele>
        <time>2015-06-20T09:16:58Z</time>
      </trkpt>
      <trkpt lat="41.87176" lon="9.18586">
        <ele>1417.4</ele>
        <time>2015-06-20T09:17:24Z</time>
      </trkpt>
      <trkpt lat="41.87182" lon="9.18582">
        <ele>1418.6</ele>
        <time>2015-06-20T09:17:35Z</time>
      </trkpt>
      <trkpt lat="41.8719" lon="9.18575">
        <ele>1419.6</ele>
        <time>2015-06-20T09:17:48Z</time>
      </trkpt>
      <trkpt lat="41.87195" lon="9.18565">
        <ele>1420.8</ele>
        <time>2015-06-20T09:18:00Z</time>
      </trkpt>
      <trkpt lat="41.87197" lon="9.18557">
        <ele>1421.8</ele>
        <time>2015-06-20T09:18:11Z</time>
      </trkpt>
      <trkpt lat="41.87199" lon="9.18549">
        <ele>1422.8</ele>
        <time>2015-06-20T09:18:20Z</time>
      </trkpt>
      <trkpt lat="41.872" lon="9.18542">
        <ele>1423.6</ele>
        <time>2015-06-20T09:18:28Z</time>
      </trkpt>
      <trkpt lat="41.87204" lon="9.18534">
        <ele>1425</ele>
        <time>2015-06-20T09:18:38Z</time>
      </trkpt>
      <trkpt lat="41.87205" lon="9.18524">
        <ele>1426</ele>
        <time>2015-06-20T09:18:47Z</time>
      </trkpt>
      <trkpt lat="41.87211" lon="9.18465">
        <ele>1427</ele>
        <time>2015-06-20T09:19:36Z</time>
      </trkpt>
      <trkpt lat="41.87217" lon="9.18456">
        <ele>1427.8</ele>
        <time>2015-06-20T09:19:47Z</time>
      </trkpt>
      <trkpt lat="41.87228" lon="9.18464">
        <ele>1428</ele>
        <time>2015-06-20T09:20:17Z</time>
      </trkpt>
      <trkpt lat="41.87228" lon="9.18465">
        <ele>1428</ele>
        <time>2015-06-20T09:20:18Z</time>
      </trkpt>
      <trkpt lat="41.8723" lon="9.18476">
        <ele>1426.6</ele>
        <time>2015-06-20T09:20:28Z</time>
      </trkpt>
      <trkpt lat="41.87231" lon="9.18478">
        <ele>1426.6</ele>
        <time>2015-06-20T09:20:29Z</time>
      </trkpt>
      <trkpt lat="41.87239" lon="9.18478">
        <ele>1425.4</ele>
        <time>2015-06-20T09:20:41Z</time>
      </trkpt>
      <trkpt lat="41.87252" lon="9.18492">
        <ele>1424.4</ele>
        <time>2015-06-20T09:21:03Z</time>
      </trkpt>
      <trkpt lat="41.8727" lon="9.18496">
        <ele>1423.6</ele>
        <time>2015-06-20T09:21:20Z</time>
      </trkpt>
      <trkpt lat="41.87306" lon="9.18483">
        <ele>1423.4</ele>
        <time>2015-06-20T09:22:08Z</time>
      </trkpt>
      <trkpt lat="41.8731" lon="9.18473">
        <ele>1424.4</ele>
        <time>2015-06-20T09:22:20Z</time>
      </trkpt>
      <trkpt lat="41.87316" lon="9.18464">
        <ele>1426.2</ele>
        <time>2015-06-20T09:22:36Z</time>
      </trkpt>
      <trkpt lat="41.87324" lon="9.1846">
        <ele>1427.2</ele>
        <time>2015-06-20T09:22:53Z</time>
      </trkpt>
      <trkpt lat="41.87325" lon="9.18453">
        <ele>1427.8</ele>
        <time>2015-06-20T09:23:03Z</time>
      </trkpt>
      <trkpt lat="41.87329" lon="9.18451">
        <ele>1428.6</ele>
        <time>2015-06-20T09:23:10Z</time>
      </trkpt>
      <trkpt lat="41.87328" lon="9.18444">
        <ele>1429.8</ele>
        <time>2015-06-20T09:23:21Z</time>
      </trkpt>
      <trkpt lat="41.87326" lon="9.18441">
        <ele>1430.6</ele>
        <time>2015-06-20T09:23:27Z</time>
      </trkpt>
      <trkpt lat="41.87326" lon="9.18441">
        <ele>1430.6</ele>
        <time>2015-06-20T09:23:28Z</time>
      </trkpt>
      <trkpt lat="41.87326" lon="9.18435">
        <ele>1432</ele>
        <time>2015-06-20T09:23:40Z</time>
      </trkpt>
      <trkpt lat="41.87327" lon="9.18431">
        <ele>1433.4</ele>
        <time>2015-06-20T09:23:50Z</time>
      </trkpt>
      <trkpt lat="41.87329" lon="9.18429">
        <ele>1434</ele>
        <time>2015-06-20T09:23:57Z</time>
      </trkpt>
      <trkpt lat="41.87334" lon="9.18428">
        <ele>1435.8</ele>
        <time>2015-06-20T09:24:09Z</time>
      </trkpt>
      <trkpt lat="41.87353" lon="9.18422">
        <ele>1437.4</ele>
        <time>2015-06-20T09:24:35Z</time>
      </trkpt>
      <trkpt lat="41.87385" lon="9.18417">
        <ele>1438.4</ele>
        <time>2015-06-20T09:25:37Z</time>
      </trkpt>
      <trkpt lat="41.87389" lon="9.18409">
        <ele>1438.8</ele>
        <time>2015-06-20T09:25:49Z</time>
      </trkpt>
      <trkpt lat="41.8739" lon="9.18403">
        <ele>1440</ele>
        <time>2015-06-20T09:25:56Z</time>
      </trkpt>
      <trkpt lat="41.87394" lon="9.184">
        <ele>1441</ele>
        <time>2015-06-20T09:26:04Z</time>
      </trkpt>
      <trkpt lat="41.87397" lon="9.18394">
        <ele>1442.2</ele>
        <time>2015-06-20T09:26:14Z</time>
      </trkpt>
      <trkpt lat="41.87403" lon="9.1839">
        <ele>1443.4</ele>
        <time>2015-06-20T09:26:23Z</time>
      </trkpt>
      <trkpt lat="41.87409" lon="9.18387">
        <ele>1444.8</ele>
        <time>2015-06-20T09:26:34Z</time>
      </trkpt>
      <trkpt lat="41.87409" lon="9.18382">
        <ele>1445.2</ele>
        <time>2015-06-20T09:26:42Z</time>
      </trkpt>
      <trkpt lat="41.87411" lon="9.18377">
        <ele>1446.6</ele>
        <time>2015-06-20T09:26:51Z</time>
      </trkpt>
      <trkpt lat="41.87416" lon="9.18375">
        <ele>1447.6</ele>
        <time>2015-06-20T09:27:00Z</time>
      </trkpt>
      <trkpt lat="41.87424" lon="9.1837">
        <ele>1448.8</ele>
        <time>2015-06-20T09:27:14Z</time>
      </trkpt>
      <trkpt lat="41.87427" lon="9.18364">
        <ele>1449.8</ele>
        <time>2015-06-20T09:27:23Z</time>
      </trkpt>
      <trkpt lat="41.87432" lon="9.1836">
        <ele>1450.8</ele>
        <time>2015-06-20T09:27:33Z</time>
      </trkpt>
      <trkpt lat="41.87442" lon="9.18354">
        <ele>1452</ele>
        <time>2015-06-20T09:27:47Z</time>
      </trkpt>
      <trkpt lat="41.87449" lon="9.18339">
        <ele>1453</ele>
        <time>2015-06-20T09:28:03Z</time>
      </trkpt>
      <trkpt lat="41.87465" lon="9.18311">
        <ele>1454.4</ele>
        <time>2015-06-20T09:29:02Z</time>
      </trkpt>
      <trkpt lat="41.87472" lon="9.18311">
        <ele>1453.8</ele>
        <time>2015-06-20T09:32:04Z</time>
      </trkpt>
      <trkpt lat="41.87476" lon="9.18305">
        <ele>1453.4</ele>
        <time>2015-06-20T09:32:58Z</time>
      </trkpt>
      <trkpt lat="41.87479" lon="9.18304">
        <ele>1453.2</ele>
        <time>2015-06-20T09:33:05Z</time>
      </trkpt>
      <trkpt lat="41.87482" lon="9.18299">
        <ele>1451.8</ele>
        <time>2015-06-20T09:33:14Z</time>
      </trkpt>
      <trkpt lat="41.87486" lon="9.18296">
        <ele>1451.4</ele>
        <time>2015-06-20T09:33:20Z</time>
      </trkpt>
      <trkpt lat="41.8749" lon="9.18299">
        <ele>1450.2</ele>
        <time>2015-06-20T09:33:25Z</time>
      </trkpt>
      <trkpt lat="41.87496" lon="9.18303">
        <ele>1448.4</ele>
        <time>2015-06-20T09:33:38Z</time>
      </trkpt>
      <trkpt lat="41.87501" lon="9.18301">
        <ele>1447.8</ele>
        <time>2015-06-20T09:33:47Z</time>
      </trkpt>
      <trkpt lat="41.87505" lon="9.18298">
        <ele>1446.8</ele>
        <time>2015-06-20T09:33:54Z</time>
      </trkpt>
      <trkpt lat="41.87512" lon="9.18293">
        <ele>1445.2</ele>
        <time>2015-06-20T09:34:06Z</time>
      </trkpt>
      <trkpt lat="41.87517" lon="9.18285">
        <ele>1444.2</ele>
        <time>2015-06-20T09:34:18Z</time>
      </trkpt>
      <trkpt lat="41.87529" lon="9.18278">
        <ele>1443.2</ele>
        <time>2015-06-20T09:34:34Z</time>
      </trkpt>
      <trkpt lat="41.87534" lon="9.18272">
        <ele>1442.8</ele>
        <time>2015-06-20T09:34:41Z</time>
      </trkpt>
      <trkpt lat="41.87536" lon="9.18272">
        <ele>1442.8</ele>
        <time>2015-06-20T09:34:43Z</time>
      </trkpt>
      <trkpt lat="41.87543" lon="9.18256">
        <ele>1442</ele>
        <time>2015-06-20T09:35:00Z</time>
      </trkpt>
      <trkpt lat="41.87544" lon="9.18253">
        <ele>1442</ele>
        <time>2015-06-20T09:35:02Z</time>
      </trkpt>
      <trkpt lat="41.87546" lon="9.18251">
        <ele>1441.8</ele>
        <time>2015-06-20T09:35:05Z</time>
      </trkpt>
      <trkpt lat="41.87547" lon="9.1825">
        <ele>1441.4</ele>
        <time>2015-06-20T09:35:07Z</time>
      </trkpt>
      <trkpt lat="41.87549" lon="9.18248">
        <ele>1441</ele>
        <time>2015-06-20T09:35:11Z</time>
      </trkpt>
      <trkpt lat="41.87555" lon="9.18241">
        <ele>1440.2</ele>
        <time>2015-06-20T09:35:19Z</time>
      </trkpt>
      <trkpt lat="41.87556" lon="9.18237">
        <ele>1439.8</ele>
        <time>2015-06-20T09:35:22Z</time>
      </trkpt>
      <trkpt lat="41.87562" lon="9.18233">
        <ele>1439.2</ele>
        <time>2015-06-20T09:35:28Z</time>
      </trkpt>
      <trkpt lat="41.87565" lon="9.18229">
        <ele>1439.2</ele>
        <time>2015-06-20T09:35:32Z</time>
      </trkpt>
      <trkpt lat="41.87567" lon="9.18225">
        <ele>1439.4</ele>
        <time>2015-06-20T09:35:36Z</time>
      </trkpt>
      <trkpt lat="41.87573" lon="9.18227">
        <ele>1439.6</ele>
        <time>2015-06-20T09:35:42Z</time>
      </trkpt>
      <trkpt lat="41.87578" lon="9.18225">
        <ele>1439.6</ele>
        <time>2015-06-20T09:35:48Z</time>
      </trkpt>
      <trkpt lat="41.87581" lon="9.18223">
        <ele>1439.4</ele>
        <time>2015-06-20T09:35:51Z</time>
      </trkpt>
      <trkpt lat="41.87582" lon="9.18224">
        <ele>1439.2</ele>
        <time>2015-06-20T09:35:53Z</time>
      </trkpt>
      <trkpt lat="41.87586" lon="9.18223">
        <ele>1439</ele>
        <time>2015-06-20T09:35:57Z</time>
      </trkpt>
      <trkpt lat="41.87593" lon="9.1822">
        <ele>1438.4</ele>
        <time>2015-06-20T09:36:07Z</time>
      </trkpt>
      <trkpt lat="41.87593" lon="9.18215">
        <ele>1438.4</ele>
        <time>2015-06-20T09:36:11Z</time>
      </trkpt>
      <trkpt lat="41.87594" lon="9.18208">
        <ele>1437</ele>
        <time>2015-06-20T09:36:18Z</time>
      </trkpt>
      <trkpt lat="41.87594" lon="9.18204">
        <ele>1436.2</ele>
        <time>2015-06-20T09:36:24Z</time>
      </trkpt>
      <trkpt lat="41.87597" lon="9.18202">
        <ele>1435.2</ele>
        <time>2015-06-20T09:36:29Z</time>
      </trkpt>
      <trkpt lat="41.876" lon="9.182">
        <ele>1433.8</ele>
        <time>2015-06-20T09:36:36Z</time>
      </trkpt>
      <trkpt lat="41.87613" lon="9.18188">
        <ele>1433.8</ele>
        <time>2015-06-20T09:37:11Z</time>
      </trkpt>
      <trkpt lat="41.87619" lon="9.18182">
        <ele>1434.6</ele>
        <time>2015-06-20T09:37:22Z</time>
      </trkpt>
      <trkpt lat="41.87618" lon="9.18174">
        <ele>1435.8</ele>
        <time>2015-06-20T09:37:33Z</time>
      </trkpt>
      <trkpt lat="41.8762" lon="9.18168">
        <ele>1436.8</ele>
        <time>2015-06-20T09:37:45Z</time>
      </trkpt>
      <trkpt lat="41.87623" lon="9.18162">
        <ele>1438</ele>
        <time>2015-06-20T09:37:58Z</time>
      </trkpt>
      <trkpt lat="41.87626" lon="9.18154">
        <ele>1439</ele>
        <time>2015-06-20T09:38:10Z</time>
      </trkpt>
      <trkpt lat="41.87632" lon="9.18151">
        <ele>1439.8</ele>
        <time>2015-06-20T09:38:19Z</time>
      </trkpt>
      <trkpt lat="41.87637" lon="9.18144">
        <ele>1441.2</ele>
        <time>2015-06-20T09:38:30Z</time>
      </trkpt>
      <trkpt lat="41.87642" lon="9.18135">
        <ele>1442.2</ele>
        <time>2015-06-20T09:38:43Z</time>
      </trkpt>
      <trkpt lat="41.87646" lon="9.18128">
        <ele>1443</ele>
        <time>2015-06-20T09:38:52Z</time>
      </trkpt>
      <trkpt lat="41.87654" lon="9.18113">
        <ele>1444</ele>
        <time>2015-06-20T09:39:09Z</time>
      </trkpt>
      <trkpt lat="41.87666" lon="9.181">
        <ele>1444</ele>
        <time>2015-06-20T09:39:24Z</time>
      </trkpt>
      <trkpt lat="41.87668" lon="9.18096">
        <ele>1444</ele>
        <time>2015-06-20T09:39:28Z</time>
      </trkpt>
      <trkpt lat="41.8767" lon="9.18093">
        <ele>1444</ele>
        <time>2015-06-20T09:39:31Z</time>
      </trkpt>
      <trkpt lat="41.87671" lon="9.18092">
        <ele>1444</ele>
        <time>2015-06-20T09:39:33Z</time>
      </trkpt>
      <trkpt lat="41.87677" lon="9.18092">
        <ele>1444.2</ele>
        <time>2015-06-20T09:39:39Z</time>
      </trkpt>
      <trkpt lat="41.87683" lon="9.18092">
        <ele>1444.4</ele>
        <time>2015-06-20T09:39:49Z</time>
      </trkpt>
      <trkpt lat="41.87689" lon="9.18091">
        <ele>1444.8</ele>
        <time>2015-06-20T09:39:59Z</time>
      </trkpt>
      <trkpt lat="41.87699" lon="9.18089">
        <ele>1446.2</ele>
        <time>2015-06-20T09:40:14Z</time>
      </trkpt>
      <trkpt lat="41.87706" lon="9.18086">
        <ele>1447.6</ele>
        <time>2015-06-20T09:40:26Z</time>
      </trkpt>
      <trkpt lat="41.87714" lon="9.18085">
        <ele>1448.2</ele>
        <time>2015-06-20T09:40:39Z</time>
      </trkpt>
      <trkpt lat="41.87721" lon="9.18087">
        <ele>1449.4</ele>
        <time>2015-06-20T09:40:52Z</time>
      </trkpt>
      <trkpt lat="41.87725" lon="9.18091">
        <ele>1450.2</ele>
        <time>2015-06-20T09:41:02Z</time>
      </trkpt>
      <trkpt lat="41.87731" lon="9.18094">
        <ele>1451.4</ele>
        <time>2015-06-20T09:41:14Z</time>
      </trkpt>
      <trkpt lat="41.87738" lon="9.18104">
        <ele>1452.6</ele>
        <time>2015-06-20T09:41:29Z</time>
      </trkpt>
      <trkpt lat="41.87741" lon="9.18105">
        <ele>1452.8</ele>
        <time>2015-06-20T09:41:33Z</time>
      </trkpt>
      <trkpt lat="41.87749" lon="9.1811">
        <ele>1453.8</ele>
        <time>2015-06-20T09:41:45Z</time>
      </trkpt>
      <trkpt lat="41.87755" lon="9.18114">
        <ele>1454.6</ele>
        <time>2015-06-20T09:41:53Z</time>
      </trkpt>
      <trkpt lat="41.87772" lon="9.18111">
        <ele>1455.8</ele>
        <time>2015-06-20T09:42:14Z</time>
      </trkpt>
      <trkpt lat="41.87775" lon="9.1811">
        <ele>1456</ele>
        <time>2015-06-20T09:42:18Z</time>
      </trkpt>
      <trkpt lat="41.87788" lon="9.18108">
        <ele>1455.8</ele>
        <time>2015-06-20T09:42:31Z</time>
      </trkpt>
      <trkpt lat="41.87799" lon="9.1811">
        <ele>1455.2</ele>
        <time>2015-06-20T09:42:42Z</time>
      </trkpt>
      <trkpt lat="41.87812" lon="9.18118">
        <ele>1455.6</ele>
        <time>2015-06-20T09:42:59Z</time>
      </trkpt>
      <trkpt lat="41.8782" lon="9.18124">
        <ele>1456.8</ele>
        <time>2015-06-20T09:43:07Z</time>
      </trkpt>
      <trkpt lat="41.87821" lon="9.18126">
        <ele>1456.8</ele>
        <time>2015-06-20T09:43:09Z</time>
      </trkpt>
      <trkpt lat="41.87824" lon="9.18127">
        <ele>1457.2</ele>
        <time>2015-06-20T09:43:12Z</time>
      </trkpt>
      <trkpt lat="41.87827" lon="9.18127">
        <ele>1457.2</ele>
        <time>2015-06-20T09:43:15Z</time>
      </trkpt>
      <trkpt lat="41.87828" lon="9.18126">
        <ele>1457.4</ele>
        <time>2015-06-20T09:43:17Z</time>
      </trkpt>
      <trkpt lat="41.87835" lon="9.18122">
        <ele>1458</ele>
        <time>2015-06-20T09:43:24Z</time>
      </trkpt>
      <trkpt lat="41.87854" lon="9.18105">
        <ele>1457</ele>
        <time>2015-06-20T09:45:24Z</time>
      </trkpt>
      <trkpt lat="41.87856" lon="9.18103">
        <ele>1456.8</ele>
        <time>2015-06-20T09:45:27Z</time>
      </trkpt>
      <trkpt lat="41.87867" lon="9.18096">
        <ele>1455.8</ele>
        <time>2015-06-20T09:45:40Z</time>
      </trkpt>
      <trkpt lat="41.87875" lon="9.18089">
        <ele>1455.2</ele>
        <time>2015-06-20T09:45:51Z</time>
      </trkpt>
      <trkpt lat="41.87878" lon="9.18088">
        <ele>1454.8</ele>
        <time>2015-06-20T09:45:55Z</time>
      </trkpt>
      <trkpt lat="41.87888" lon="9.1809">
        <ele>1454.2</ele>
        <time>2015-06-20T09:46:05Z</time>
      </trkpt>
      <trkpt lat="41.87893" lon="9.18087">
        <ele>1454</ele>
        <time>2015-06-20T09:46:11Z</time>
      </trkpt>
      <trkpt lat="41.87903" lon="9.18079">
        <ele>1453.2</ele>
        <time>2015-06-20T09:46:24Z</time>
      </trkpt>
      <trkpt lat="41.87907" lon="9.18078">
        <ele>1452.6</ele>
        <time>2015-06-20T09:46:29Z</time>
      </trkpt>
      <trkpt lat="41.87909" lon="9.18077">
        <ele>1452.4</ele>
        <time>2015-06-20T09:46:31Z</time>
      </trkpt>
      <trkpt lat="41.87914" lon="9.18076">
        <ele>1451.4</ele>
        <time>2015-06-20T09:46:37Z</time>
      </trkpt>
      <trkpt lat="41.87918" lon="9.18078">
        <ele>1450.6</ele>
        <time>2015-06-20T09:46:42Z</time>
      </trkpt>
      <trkpt lat="41.87919" lon="9.18076">
        <ele>1450.4</ele>
        <time>2015-06-20T09:46:46Z</time>
      </trkpt>
      <trkpt lat="41.87922" lon="9.1807">
        <ele>1449.4</ele>
        <time>2015-06-20T09:46:53Z</time>
      </trkpt>
      <trkpt lat="41.87926" lon="9.18068">
        <ele>1448.6</ele>
        <time>2015-06-20T09:46:59Z</time>
      </trkpt>
      <trkpt lat="41.8793" lon="9.18069">
        <ele>1447.8</ele>
        <time>2015-06-20T09:47:04Z</time>
      </trkpt>
      <trkpt lat="41.87934" lon="9.18067">
        <ele>1446</ele>
        <time>2015-06-20T09:47:11Z</time>
      </trkpt>
      <trkpt lat="41.87935" lon="9.18067">
        <ele>1445.8</ele>
        <time>2015-06-20T09:47:13Z</time>
      </trkpt>
      <trkpt lat="41.87938" lon="9.18065">
        <ele>1445.2</ele>
        <time>2015-06-20T09:47:17Z</time>
      </trkpt>
      <trkpt lat="41.87942" lon="9.18063">
        <ele>1444</ele>
        <time>2015-06-20T09:47:23Z</time>
      </trkpt>
      <trkpt lat="41.87944" lon="9.18056">
        <ele>1442.6</ele>
        <time>2015-06-20T09:47:30Z</time>
      </trkpt>
      <trkpt lat="41.8794" lon="9.18046">
        <ele>1441</ele>
        <time>2015-06-20T09:47:40Z</time>
      </trkpt>
      <trkpt lat="41.8795" lon="9.18038">
        <ele>1440.4</ele>
        <time>2015-06-20T09:48:16Z</time>
      </trkpt>
      <trkpt lat="41.87953" lon="9.1804">
        <ele>1439.6</ele>
        <time>2015-06-20T09:48:22Z</time>
      </trkpt>
      <trkpt lat="41.87967" lon="9.18027">
        <ele>1437.8</ele>
        <time>2015-06-20T09:48:47Z</time>
      </trkpt>
      <trkpt lat="41.87971" lon="9.18026">
        <ele>1437.4</ele>
        <time>2015-06-20T09:48:53Z</time>
      </trkpt>
      <trkpt lat="41.87976" lon="9.18032">
        <ele>1436.2</ele>
        <time>2015-06-20T09:49:00Z</time>
      </trkpt>
      <trkpt lat="41.87986" lon="9.18043">
        <ele>1434.4</ele>
        <time>2015-06-20T09:49:14Z</time>
      </trkpt>
      <trkpt lat="41.87995" lon="9.18053">
        <ele>1433.4</ele>
        <time>2015-06-20T09:49:29Z</time>
      </trkpt>
      <trkpt lat="41.88001" lon="9.18054">
        <ele>1432.6</ele>
        <time>2015-06-20T09:49:37Z</time>
      </trkpt>
      <trkpt lat="41.88008" lon="9.18052">
        <ele>1431.6</ele>
        <time>2015-06-20T09:49:47Z</time>
      </trkpt>
      <trkpt lat="41.88012" lon="9.18052">
        <ele>1430.8</ele>
        <time>2015-06-20T09:49:53Z</time>
      </trkpt>
      <trkpt lat="41.88015" lon="9.18053">
        <ele>1429.8</ele>
        <time>2015-06-20T09:49:58Z</time>
      </trkpt>
      <trkpt lat="41.88021" lon="9.1805">
        <ele>1428.6</ele>
        <time>2015-06-20T09:50:06Z</time>
      </trkpt>
      <trkpt lat="41.88023" lon="9.18047">
        <ele>1427.6</ele>
        <time>2015-06-20T09:50:11Z</time>
      </trkpt>
      <trkpt lat="41.8803" lon="9.18049">
        <ele>1425.8</ele>
        <time>2015-06-20T09:50:20Z</time>
      </trkpt>
      <trkpt lat="41.88035" lon="9.18047">
        <ele>1424.8</ele>
        <time>2015-06-20T09:50:27Z</time>
      </trkpt>
      <trkpt lat="41.88037" lon="9.18039">
        <ele>1423.8</ele>
        <time>2015-06-20T09:50:35Z</time>
      </trkpt>
      <trkpt lat="41.8804" lon="9.18037">
        <ele>1423</ele>
        <time>2015-06-20T09:50:42Z</time>
      </trkpt>
      <trkpt lat="41.88043" lon="9.18039">
        <ele>1421.6</ele>
        <time>2015-06-20T09:50:48Z</time>
      </trkpt>
      <trkpt lat="41.88047" lon="9.18039">
        <ele>1420.4</ele>
        <time>2015-06-20T09:50:59Z</time>
      </trkpt>
      <trkpt lat="41.88051" lon="9.18039">
        <ele>1419.4</ele>
        <time>2015-06-20T09:51:06Z</time>
      </trkpt>
      <trkpt lat="41.88054" lon="9.18041">
        <ele>1418.6</ele>
        <time>2015-06-20T09:51:11Z</time>
      </trkpt>
      <trkpt lat="41.88061" lon="9.18042">
        <ele>1417.2</ele>
        <time>2015-06-20T09:51:20Z</time>
      </trkpt>
      <trkpt lat="41.88062" lon="9.18045">
        <ele>1416.4</ele>
        <time>2015-06-20T09:51:33Z</time>
      </trkpt>
      <trkpt lat="41.88064" lon="9.18037">
        <ele>1416.2</ele>
        <time>2015-06-20T09:52:13Z</time>
      </trkpt>
      <trkpt lat="41.88067" lon="9.18034">
        <ele>1416.2</ele>
        <time>2015-06-20T09:52:16Z</time>
      </trkpt>
      <trkpt lat="41.8807" lon="9.1803">
        <ele>1415.6</ele>
        <time>2015-06-20T09:52:20Z</time>
      </trkpt>
      <trkpt lat="41.8807" lon="9.18027">
        <ele>1415.2</ele>
        <time>2015-06-20T09:52:23Z</time>
      </trkpt>
      <trkpt lat="41.88071" lon="9.1802">
        <ele>1415.2</ele>
        <time>2015-06-20T09:52:28Z</time>
      </trkpt>
      <trkpt lat="41.88065" lon="9.1804">
        <ele>1414.6</ele>
        <time>2015-06-20T09:53:58Z</time>
      </trkpt>
      <trkpt lat="41.88061" lon="9.18049">
        <ele>1415.8</ele>
        <time>2015-06-20T09:54:43Z</time>
      </trkpt>
      <trkpt lat="41.88062" lon="9.18047">
        <ele>1415.6</ele>
        <time>2015-06-20T09:55:34Z</time>
      </trkpt>
      <trkpt lat="41.88061" lon="9.1804">
        <ele>1414.8</ele>
        <time>2015-06-20T09:56:33Z</time>
      </trkpt>
      <trkpt lat="41.88061" lon="9.18045">
        <ele>1415.2</ele>
        <time>2015-06-20T09:59:23Z</time>
      </trkpt>
      <trkpt lat="41.8806" lon="9.18045">
        <ele>1415</ele>
        <time>2015-06-20T10:00:29Z</time>
      </trkpt>
      <trkpt lat="41.88111" lon="9.18041">
        <ele>1417.6</ele>
        <time>2015-06-20T10:25:45Z</time>
      </trkpt>
      <trkpt lat="41.88118" lon="9.18041">
        <ele>1418.8</ele>
        <time>2015-06-20T10:25:57Z</time>
      </trkpt>
      <trkpt lat="41.88124" lon="9.18044">
        <ele>1418.8</ele>
        <time>2015-06-20T10:26:03Z</time>
      </trkpt>
      <trkpt lat="41.88133" lon="9.18043">
        <ele>1419</ele>
        <time>2015-06-20T10:26:13Z</time>
      </trkpt>
      <trkpt lat="41.88136" lon="9.18043">
        <ele>1419.4</ele>
        <time>2015-06-20T10:26:16Z</time>
      </trkpt>
      <trkpt lat="41.88148" lon="9.18042">
        <ele>1420.2</ele>
        <time>2015-06-20T10:26:29Z</time>
      </trkpt>
      <trkpt lat="41.88161" lon="9.18045">
        <ele>1421</ele>
        <time>2015-06-20T10:26:44Z</time>
      </trkpt>
      <trkpt lat="41.88161" lon="9.18045">
        <ele>1421.2</ele>
        <time>2015-06-20T10:26:45Z</time>
      </trkpt>
      <trkpt lat="41.88168" lon="9.18042">
        <ele>1421.8</ele>
        <time>2015-06-20T10:26:52Z</time>
      </trkpt>
      <trkpt lat="41.88174" lon="9.18037">
        <ele>1422.8</ele>
        <time>2015-06-20T10:26:59Z</time>
      </trkpt>
      <trkpt lat="41.88186" lon="9.18034">
        <ele>1424.4</ele>
        <time>2015-06-20T10:27:10Z</time>
      </trkpt>
      <trkpt lat="41.88187" lon="9.18034">
        <ele>1424.4</ele>
        <time>2015-06-20T10:27:11Z</time>
      </trkpt>
      <trkpt lat="41.88188" lon="9.18034">
        <ele>1424.4</ele>
        <time>2015-06-20T10:27:12Z</time>
      </trkpt>
      <trkpt lat="41.88202" lon="9.18037">
        <ele>1425.4</ele>
        <time>2015-06-20T10:27:25Z</time>
      </trkpt>
      <trkpt lat="41.88216" lon="9.18027">
        <ele>1425.4</ele>
        <time>2015-06-20T10:27:44Z</time>
      </trkpt>
      <trkpt lat="41.8822" lon="9.18025">
        <ele>1425</ele>
        <time>2015-06-20T10:27:49Z</time>
      </trkpt>
      <trkpt lat="41.88222" lon="9.18023">
        <ele>1424.2</ele>
        <time>2015-06-20T10:27:52Z</time>
      </trkpt>
      <trkpt lat="41.8823" lon="9.18019">
        <ele>1423.6</ele>
        <time>2015-06-20T10:28:00Z</time>
      </trkpt>
      <trkpt lat="41.88235" lon="9.18019">
        <ele>1423.2</ele>
        <time>2015-06-20T10:28:05Z</time>
      </trkpt>
      <trkpt lat="41.88236" lon="9.18019">
        <ele>1423</ele>
        <time>2015-06-20T10:28:06Z</time>
      </trkpt>
      <trkpt lat="41.88239" lon="9.18019">
        <ele>1422.4</ele>
        <time>2015-06-20T10:28:11Z</time>
      </trkpt>
      <trkpt lat="41.88246" lon="9.18016">
        <ele>1421.2</ele>
        <time>2015-06-20T10:28:19Z</time>
      </trkpt>
      <trkpt lat="41.88259" lon="9.18019">
        <ele>1420</ele>
        <time>2015-06-20T10:28:38Z</time>
      </trkpt>
      <trkpt lat="41.88263" lon="9.1802">
        <ele>1421.6</ele>
        <time>2015-06-20T10:28:46Z</time>
      </trkpt>
      <trkpt lat="41.88267" lon="9.18023">
        <ele>1422.8</ele>
        <time>2015-06-20T10:28:55Z</time>
      </trkpt>
      <trkpt lat="41.88269" lon="9.18024">
        <ele>1423.2</ele>
        <time>2015-06-20T10:28:58Z</time>
      </trkpt>
      <trkpt lat="41.88275" lon="9.18027">
        <ele>1424</ele>
        <time>2015-06-20T10:29:07Z</time>
      </trkpt>
      <trkpt lat="41.88281" lon="9.18027">
        <ele>1425.2</ele>
        <time>2015-06-20T10:29:17Z</time>
      </trkpt>
      <trkpt lat="41.88286" lon="9.18026">
        <ele>1426.2</ele>
        <time>2015-06-20T10:29:26Z</time>
      </trkpt>
      <trkpt lat="41.88291" lon="9.18025">
        <ele>1427.4</ele>
        <time>2015-06-20T10:29:34Z</time>
      </trkpt>
      <trkpt lat="41.88298" lon="9.18025">
        <ele>1428.2</ele>
        <time>2015-06-20T10:29:42Z</time>
      </trkpt>
      <trkpt lat="41.88306" lon="9.18021">
        <ele>1429.6</ele>
        <time>2015-06-20T10:29:53Z</time>
      </trkpt>
      <trkpt lat="41.88313" lon="9.18017">
        <ele>1430.6</ele>
        <time>2015-06-20T10:30:02Z</time>
      </trkpt>
      <trkpt lat="41.8832" lon="9.18014">
        <ele>1431.8</ele>
        <time>2015-06-20T10:30:12Z</time>
      </trkpt>
      <trkpt lat="41.88328" lon="9.18015">
        <ele>1432.6</ele>
        <time>2015-06-20T10:30:22Z</time>
      </trkpt>
      <trkpt lat="41.88331" lon="9.18015">
        <ele>1433</ele>
        <time>2015-06-20T10:30:26Z</time>
      </trkpt>
      <trkpt lat="41.88336" lon="9.18015">
        <ele>1433.6</ele>
        <time>2015-06-20T10:30:33Z</time>
      </trkpt>
      <trkpt lat="41.88342" lon="9.18017">
        <ele>1434.6</ele>
        <time>2015-06-20T10:30:42Z</time>
      </trkpt>
      <trkpt lat="41.88345" lon="9.18019">
        <ele>1435.4</ele>
        <time>2015-06-20T10:30:48Z</time>
      </trkpt>
      <trkpt lat="41.88348" lon="9.18019">
        <ele>1436.6</ele>
        <time>2015-06-20T10:30:54Z</time>
      </trkpt>
      <trkpt lat="41.88349" lon="9.18018">
        <ele>1436.8</ele>
        <time>2015-06-20T10:30:56Z</time>
      </trkpt>
      <trkpt lat="41.88354" lon="9.18017">
        <ele>1438</ele>
        <time>2015-06-20T10:31:04Z</time>
      </trkpt>
      <trkpt lat="41.88363" lon="9.18014">
        <ele>1439</ele>
        <time>2015-06-20T10:31:14Z</time>
      </trkpt>
      <trkpt lat="41.88366" lon="9.18014">
        <ele>1439.2</ele>
        <time>2015-06-20T10:31:18Z</time>
      </trkpt>
      <trkpt lat="41.88375" lon="9.18013">
        <ele>1439.6</ele>
        <time>2015-06-20T10:31:25Z</time>
      </trkpt>
      <trkpt lat="41.8838" lon="9.18014">
        <ele>1440</ele>
        <time>2015-06-20T10:31:31Z</time>
      </trkpt>
      <trkpt lat="41.88394" lon="9.18017">
        <ele>1441.2</ele>
        <time>2015-06-20T10:31:45Z</time>
      </trkpt>
      <trkpt lat="41.88395" lon="9.18017">
        <ele>1441.2</ele>
        <time>2015-06-20T10:31:48Z</time>
      </trkpt>
      <trkpt lat="41.884" lon="9.18017">
        <ele>1441.6</ele>
        <time>2015-06-20T10:31:52Z</time>
      </trkpt>
      <trkpt lat="41.88406" lon="9.18017">
        <ele>1442.2</ele>
        <time>2015-06-20T10:31:58Z</time>
      </trkpt>
      <trkpt lat="41.88408" lon="9.18018">
        <ele>1442.2</ele>
        <time>2015-06-20T10:32:00Z</time>
      </trkpt>
      <trkpt lat="41.8845" lon="9.18039">
        <ele>1442.4</ele>
        <time>2015-06-20T10:32:44Z</time>
      </trkpt>
      <trkpt lat="41.88477" lon="9.18053">
        <ele>1443</ele>
        <time>2015-06-20T10:33:15Z</time>
      </trkpt>
      <trkpt lat="41.88487" lon="9.18058">
        <ele>1443.2</ele>
        <time>2015-06-20T10:33:25Z</time>
      </trkpt>
      <trkpt lat="41.88493" lon="9.1806">
        <ele>1443.4</ele>
        <time>2015-06-20T10:33:29Z</time>
      </trkpt>
      <trkpt lat="41.88501" lon="9.18065">
        <ele>1443.8</ele>
        <time>2015-06-20T10:33:39Z</time>
      </trkpt>
      <trkpt lat="41.88506" lon="9.18066">
        <ele>1444.6</ele>
        <time>2015-06-20T10:33:44Z</time>
      </trkpt>
      <trkpt lat="41.88521" lon="9.18071">
        <ele>1445.2</ele>
        <time>2015-06-20T10:34:01Z</time>
      </trkpt>
      <trkpt lat="41.88527" lon="9.1807">
        <ele>1445.2</ele>
        <time>2015-06-20T10:34:07Z</time>
      </trkpt>
      <trkpt lat="41.88529" lon="9.18071">
        <ele>1445.4</ele>
        <time>2015-06-20T10:34:09Z</time>
      </trkpt>
      <trkpt lat="41.88531" lon="9.18071">
        <ele>1445.6</ele>
        <time>2015-06-20T10:34:11Z</time>
      </trkpt>
      <trkpt lat="41.88544" lon="9.18074">
        <ele>1446.2</ele>
        <time>2015-06-20T10:34:26Z</time>
      </trkpt>
      <trkpt lat="41.88546" lon="9.18074">
        <ele>1446.4</ele>
        <time>2015-06-20T10:34:28Z</time>
      </trkpt>
      <trkpt lat="41.88568" lon="9.1808">
        <ele>1447.2</ele>
        <time>2015-06-20T10:34:50Z</time>
      </trkpt>
      <trkpt lat="41.88571" lon="9.1808">
        <ele>1447.4</ele>
        <time>2015-06-20T10:34:53Z</time>
      </trkpt>
      <trkpt lat="41.88584" lon="9.18083">
        <ele>1447.8</ele>
        <time>2015-06-20T10:35:06Z</time>
      </trkpt>
      <trkpt lat="41.88595" lon="9.18085">
        <ele>1447.8</ele>
        <time>2015-06-20T10:35:16Z</time>
      </trkpt>
      <trkpt lat="41.88607" lon="9.18095">
        <ele>1448.8</ele>
        <time>2015-06-20T10:35:30Z</time>
      </trkpt>
      <trkpt lat="41.88611" lon="9.18098">
        <ele>1448.8</ele>
        <time>2015-06-20T10:35:35Z</time>
      </trkpt>
      <trkpt lat="41.88617" lon="9.181">
        <ele>1449.8</ele>
        <time>2015-06-20T10:35:40Z</time>
      </trkpt>
      <trkpt lat="41.88635" lon="9.18099">
        <ele>1450.4</ele>
        <time>2015-06-20T10:35:58Z</time>
      </trkpt>
      <trkpt lat="41.88636" lon="9.18099">
        <ele>1450.4</ele>
        <time>2015-06-20T10:36:00Z</time>
      </trkpt>
      <trkpt lat="41.88637" lon="9.18099">
        <ele>1450.4</ele>
        <time>2015-06-20T10:36:01Z</time>
      </trkpt>
      <trkpt lat="41.88644" lon="9.18099">
        <ele>1451.2</ele>
        <time>2015-06-20T10:36:10Z</time>
      </trkpt>
      <trkpt lat="41.88646" lon="9.18099">
        <ele>1451.4</ele>
        <time>2015-06-20T10:36:12Z</time>
      </trkpt>
      <trkpt lat="41.88654" lon="9.18099">
        <ele>1452.4</ele>
        <time>2015-06-20T10:36:21Z</time>
      </trkpt>
      <trkpt lat="41.8866" lon="9.18099">
        <ele>1453</ele>
        <time>2015-06-20T10:36:28Z</time>
      </trkpt>
      <trkpt lat="41.88666" lon="9.18098">
        <ele>1454.2</ele>
        <time>2015-06-20T10:36:35Z</time>
      </trkpt>
      <trkpt lat="41.88677" lon="9.18095">
        <ele>1455.4</ele>
        <time>2015-06-20T10:36:50Z</time>
      </trkpt>
      <trkpt lat="41.88682" lon="9.18091">
        <ele>1456.2</ele>
        <time>2015-06-20T10:36:58Z</time>
      </trkpt>
      <trkpt lat="41.88688" lon="9.18088">
        <ele>1457.4</ele>
        <time>2015-06-20T10:37:07Z</time>
      </trkpt>
      <trkpt lat="41.88697" lon="9.18082">
        <ele>1458.8</ele>
        <time>2015-06-20T10:37:20Z</time>
      </trkpt>
      <trkpt lat="41.88704" lon="9.1808">
        <ele>1459.8</ele>
        <time>2015-06-20T10:37:32Z</time>
      </trkpt>
      <trkpt lat="41.88722" lon="9.18073">
        <ele>1461.2</ele>
        <time>2015-06-20T10:37:57Z</time>
      </trkpt>
      <trkpt lat="41.88735" lon="9.18067">
        <ele>1461</ele>
        <time>2015-06-20T10:38:12Z</time>
      </trkpt>
      <trkpt lat="41.88755" lon="9.18053">
        <ele>1460</ele>
        <time>2015-06-20T10:38:36Z</time>
      </trkpt>
      <trkpt lat="41.88761" lon="9.18054">
        <ele>1460.2</ele>
        <time>2015-06-20T10:38:43Z</time>
      </trkpt>
      <trkpt lat="41.88763" lon="9.18052">
        <ele>1460.2</ele>
        <time>2015-06-20T10:38:47Z</time>
      </trkpt>
      <trkpt lat="41.88778" lon="9.18052">
        <ele>1461</ele>
        <time>2015-06-20T10:39:06Z</time>
      </trkpt>
      <trkpt lat="41.8879" lon="9.18061">
        <ele>1462</ele>
        <time>2015-06-20T10:39:21Z</time>
      </trkpt>
      <trkpt lat="41.88818" lon="9.18072">
        <ele>1461.6</ele>
        <time>2015-06-20T10:39:54Z</time>
      </trkpt>
      <trkpt lat="41.88826" lon="9.18067">
        <ele>1460.8</ele>
        <time>2015-06-20T10:40:06Z</time>
      </trkpt>
      <trkpt lat="41.88831" lon="9.18066">
        <ele>1459.8</ele>
        <time>2015-06-20T10:40:17Z</time>
      </trkpt>
      <trkpt lat="41.88834" lon="9.18065">
        <ele>1459</ele>
        <time>2015-06-20T10:40:23Z</time>
      </trkpt>
      <trkpt lat="41.88837" lon="9.18064">
        <ele>1457.8</ele>
        <time>2015-06-20T10:40:31Z</time>
      </trkpt>
      <trkpt lat="41.88843" lon="9.18073">
        <ele>1456.4</ele>
        <time>2015-06-20T10:40:47Z</time>
      </trkpt>
      <trkpt lat="41.88849" lon="9.18069">
        <ele>1455.8</ele>
        <time>2015-06-20T10:40:54Z</time>
      </trkpt>
      <trkpt lat="41.88864" lon="9.18074">
        <ele>1455.2</ele>
        <time>2015-06-20T10:41:17Z</time>
      </trkpt>
      <trkpt lat="41.88872" lon="9.18086">
        <ele>1456.6</ele>
        <time>2015-06-20T10:41:31Z</time>
      </trkpt>
      <trkpt lat="41.88879" lon="9.1809">
        <ele>1457.4</ele>
        <time>2015-06-20T10:41:44Z</time>
      </trkpt>
      <trkpt lat="41.88883" lon="9.1809">
        <ele>1458.4</ele>
        <time>2015-06-20T10:41:52Z</time>
      </trkpt>
      <trkpt lat="41.88886" lon="9.18092">
        <ele>1460</ele>
        <time>2015-06-20T10:42:01Z</time>
      </trkpt>
      <trkpt lat="41.8889" lon="9.18098">
        <ele>1460.8</ele>
        <time>2015-06-20T10:42:12Z</time>
      </trkpt>
      <trkpt lat="41.88891" lon="9.18099">
        <ele>1461</ele>
        <time>2015-06-20T10:42:14Z</time>
      </trkpt>
      <trkpt lat="41.88895" lon="9.18102">
        <ele>1462</ele>
        <time>2015-06-20T10:42:22Z</time>
      </trkpt>
      <trkpt lat="41.88899" lon="9.18105">
        <ele>1463</ele>
        <time>2015-06-20T10:42:31Z</time>
      </trkpt>
      <trkpt lat="41.88902" lon="9.18107">
        <ele>1463.8</ele>
        <time>2015-06-20T10:42:38Z</time>
      </trkpt>
      <trkpt lat="41.88907" lon="9.1811">
        <ele>1465.4</ele>
        <time>2015-06-20T10:42:49Z</time>
      </trkpt>
      <trkpt lat="41.88913" lon="9.18111">
        <ele>1466.2</ele>
        <time>2015-06-20T10:42:58Z</time>
      </trkpt>
      <trkpt lat="41.88917" lon="9.18113">
        <ele>1467.4</ele>
        <time>2015-06-20T10:43:05Z</time>
      </trkpt>
      <trkpt lat="41.88922" lon="9.18112">
        <ele>1468.6</ele>
        <time>2015-06-20T10:43:12Z</time>
      </trkpt>
      <trkpt lat="41.88939" lon="9.18124">
        <ele>1470.2</ele>
        <time>2015-06-20T10:43:36Z</time>
      </trkpt>
      <trkpt lat="41.88949" lon="9.18131">
        <ele>1469</ele>
        <time>2015-06-20T10:43:50Z</time>
      </trkpt>
      <trkpt lat="41.88951" lon="9.18131">
        <ele>1469</ele>
        <time>2015-06-20T10:43:52Z</time>
      </trkpt>
      <trkpt lat="41.88955" lon="9.18129">
        <ele>1468</ele>
        <time>2015-06-20T10:43:58Z</time>
      </trkpt>
      <trkpt lat="41.88956" lon="9.18129">
        <ele>1468</ele>
        <time>2015-06-20T10:43:59Z</time>
      </trkpt>
      <trkpt lat="41.88959" lon="9.18132">
        <ele>1467.4</ele>
        <time>2015-06-20T10:44:03Z</time>
      </trkpt>
      <trkpt lat="41.88965" lon="9.18133">
        <ele>1466.2</ele>
        <time>2015-06-20T10:44:09Z</time>
      </trkpt>
      <trkpt lat="41.88972" lon="9.18136">
        <ele>1464.6</ele>
        <time>2015-06-20T10:44:16Z</time>
      </trkpt>
      <trkpt lat="41.88986" lon="9.18141">
        <ele>1463</ele>
        <time>2015-06-20T10:44:29Z</time>
      </trkpt>
      <trkpt lat="41.88991" lon="9.18143">
        <ele>1462.8</ele>
        <time>2015-06-20T10:44:34Z</time>
      </trkpt>
      <trkpt lat="41.89003" lon="9.18148">
        <ele>1462.8</ele>
        <time>2015-06-20T10:44:48Z</time>
      </trkpt>
      <trkpt lat="41.89047" lon="9.18154">
        <ele>1462.6</ele>
        <time>2015-06-20T10:45:38Z</time>
      </trkpt>
      <trkpt lat="41.89047" lon="9.18154">
        <ele>1462.6</ele>
        <time>2015-06-20T10:45:39Z</time>
      </trkpt>
      <trkpt lat="41.89067" lon="9.18164">
        <ele>1463.4</ele>
        <time>2015-06-20T10:46:07Z</time>
      </trkpt>
      <trkpt lat="41.89069" lon="9.18164">
        <ele>1463.2</ele>
        <time>2015-06-20T10:46:09Z</time>
      </trkpt>
      <trkpt lat="41.89072" lon="9.18163">
        <ele>1462.8</ele>
        <time>2015-06-20T10:46:14Z</time>
      </trkpt>
      <trkpt lat="41.89074" lon="9.18163">
        <ele>1462</ele>
        <time>2015-06-20T10:46:18Z</time>
      </trkpt>
      <trkpt lat="41.89077" lon="9.18164">
        <ele>1461.8</ele>
        <time>2015-06-20T10:46:20Z</time>
      </trkpt>
      <trkpt lat="41.89082" lon="9.18165">
        <ele>1461.2</ele>
        <time>2015-06-20T10:46:26Z</time>
      </trkpt>
      <trkpt lat="41.8909" lon="9.18162">
        <ele>1460</ele>
        <time>2015-06-20T10:46:35Z</time>
      </trkpt>
      <trkpt lat="41.89091" lon="9.18165">
        <ele>1459.8</ele>
        <time>2015-06-20T10:46:37Z</time>
      </trkpt>
      <trkpt lat="41.89093" lon="9.18168">
        <ele>1460</ele>
        <time>2015-06-20T10:46:40Z</time>
      </trkpt>
      <trkpt lat="41.89094" lon="9.18169">
        <ele>1459.8</ele>
        <time>2015-06-20T10:46:41Z</time>
      </trkpt>
      <trkpt lat="41.89096" lon="9.18171">
        <ele>1459.6</ele>
        <time>2015-06-20T10:46:43Z</time>
      </trkpt>
      <trkpt lat="41.89098" lon="9.18171">
        <ele>1459.4</ele>
        <time>2015-06-20T10:46:45Z</time>
      </trkpt>
      <trkpt lat="41.89101" lon="9.18169">
        <ele>1459.4</ele>
        <time>2015-06-20T10:46:49Z</time>
      </trkpt>
      <trkpt lat="41.89103" lon="9.18168">
        <ele>1459.2</ele>
        <time>2015-06-20T10:46:51Z</time>
      </trkpt>
      <trkpt lat="41.89107" lon="9.18164">
        <ele>1459.2</ele>
        <time>2015-06-20T10:46:56Z</time>
      </trkpt>
      <trkpt lat="41.89113" lon="9.18161">
        <ele>1459.8</ele>
        <time>2015-06-20T10:47:04Z</time>
      </trkpt>
      <trkpt lat="41.89114" lon="9.18161">
        <ele>1460</ele>
        <time>2015-06-20T10:47:05Z</time>
      </trkpt>
      <trkpt lat="41.89121" lon="9.1815">
        <ele>1460.8</ele>
        <time>2015-06-20T10:47:16Z</time>
      </trkpt>
      <trkpt lat="41.89123" lon="9.18143">
        <ele>1461.2</ele>
        <time>2015-06-20T10:47:22Z</time>
      </trkpt>
      <trkpt lat="41.89133" lon="9.18126">
        <ele>1461.8</ele>
        <time>2015-06-20T10:47:40Z</time>
      </trkpt>
      <trkpt lat="41.89134" lon="9.18125">
        <ele>1461.8</ele>
        <time>2015-06-20T10:47:42Z</time>
      </trkpt>
      <trkpt lat="41.89138" lon="9.18119">
        <ele>1462</ele>
        <time>2015-06-20T10:47:49Z</time>
      </trkpt>
      <trkpt lat="41.89149" lon="9.18107">
        <ele>1463</ele>
        <time>2015-06-20T10:48:06Z</time>
      </trkpt>
      <trkpt lat="41.89159" lon="9.18096">
        <ele>1464</ele>
        <time>2015-06-20T10:48:21Z</time>
      </trkpt>
      <trkpt lat="41.89163" lon="9.18095">
        <ele>1464.2</ele>
        <time>2015-06-20T10:48:25Z</time>
      </trkpt>
      <trkpt lat="41.89167" lon="9.18092">
        <ele>1465</ele>
        <time>2015-06-20T10:48:30Z</time>
      </trkpt>
      <trkpt lat="41.89174" lon="9.18089">
        <ele>1466</ele>
        <time>2015-06-20T10:48:39Z</time>
      </trkpt>
      <trkpt lat="41.89193" lon="9.18072">
        <ele>1466.2</ele>
        <time>2015-06-20T10:49:05Z</time>
      </trkpt>
      <trkpt lat="41.89195" lon="9.18064">
        <ele>1466.2</ele>
        <time>2015-06-20T10:49:11Z</time>
      </trkpt>
      <trkpt lat="41.89206" lon="9.18057">
        <ele>1467.2</ele>
        <time>2015-06-20T10:49:26Z</time>
      </trkpt>
      <trkpt lat="41.89211" lon="9.18054">
        <ele>1467.2</ele>
        <time>2015-06-20T10:49:32Z</time>
      </trkpt>
      <trkpt lat="41.89224" lon="9.18043">
        <ele>1468.4</ele>
        <time>2015-06-20T10:49:48Z</time>
      </trkpt>
      <trkpt lat="41.89225" lon="9.18043">
        <ele>1468.4</ele>
        <time>2015-06-20T10:49:49Z</time>
      </trkpt>
      <trkpt lat="41.89237" lon="9.18029">
        <ele>1469.4</ele>
        <time>2015-06-20T10:50:08Z</time>
      </trkpt>
      <trkpt lat="41.89247" lon="9.18011">
        <ele>1471</ele>
        <time>2015-06-20T10:50:27Z</time>
      </trkpt>
      <trkpt lat="41.89262" lon="9.17991">
        <ele>1471.6</ele>
        <time>2015-06-20T10:50:54Z</time>
      </trkpt>
      <trkpt lat="41.89267" lon="9.17985">
        <ele>1472.6</ele>
        <time>2015-06-20T10:51:03Z</time>
      </trkpt>
      <trkpt lat="41.89272" lon="9.17977">
        <ele>1473.6</ele>
        <time>2015-06-20T10:51:13Z</time>
      </trkpt>
      <trkpt lat="41.89275" lon="9.17972">
        <ele>1474.6</ele>
        <time>2015-06-20T10:51:22Z</time>
      </trkpt>
      <trkpt lat="41.89278" lon="9.17968">
        <ele>1475.6</ele>
        <time>2015-06-20T10:51:31Z</time>
      </trkpt>
      <trkpt lat="41.89282" lon="9.17968">
        <ele>1476.8</ele>
        <time>2015-06-20T10:51:39Z</time>
      </trkpt>
      <trkpt lat="41.89285" lon="9.17967">
        <ele>1477.6</ele>
        <time>2015-06-20T10:51:45Z</time>
      </trkpt>
      <trkpt lat="41.89288" lon="9.17969">
        <ele>1478.8</ele>
        <time>2015-06-20T10:51:51Z</time>
      </trkpt>
      <trkpt lat="41.89289" lon="9.1797">
        <ele>1478.8</ele>
        <time>2015-06-20T10:51:53Z</time>
      </trkpt>
      <trkpt lat="41.89296" lon="9.1797">
        <ele>1480.4</ele>
        <time>2015-06-20T10:52:04Z</time>
      </trkpt>
      <trkpt lat="41.89304" lon="9.17974">
        <ele>1481.6</ele>
        <time>2015-06-20T10:52:15Z</time>
      </trkpt>
      <trkpt lat="41.89313" lon="9.17982">
        <ele>1482.4</ele>
        <time>2015-06-20T10:52:29Z</time>
      </trkpt>
      <trkpt lat="41.89318" lon="9.17984">
        <ele>1483.4</ele>
        <time>2015-06-20T10:52:37Z</time>
      </trkpt>
      <trkpt lat="41.89333" lon="9.17986">
        <ele>1484.8</ele>
        <time>2015-06-20T10:52:56Z</time>
      </trkpt>
      <trkpt lat="41.8935" lon="9.17974">
        <ele>1486</ele>
        <time>2015-06-20T10:53:20Z</time>
      </trkpt>
      <trkpt lat="41.89356" lon="9.17965">
        <ele>1486.6</ele>
        <time>2015-06-20T10:53:33Z</time>
      </trkpt>
      <trkpt lat="41.8936" lon="9.17961">
        <ele>1487.4</ele>
        <time>2015-06-20T10:53:40Z</time>
      </trkpt>
      <trkpt lat="41.89364" lon="9.17959">
        <ele>1488.4</ele>
        <time>2015-06-20T10:53:46Z</time>
      </trkpt>
      <trkpt lat="41.89367" lon="9.17959">
        <ele>1489</ele>
        <time>2015-06-20T10:53:51Z</time>
      </trkpt>
      <trkpt lat="41.89372" lon="9.1796">
        <ele>1489.8</ele>
        <time>2015-06-20T10:53:59Z</time>
      </trkpt>
      <trkpt lat="41.89378" lon="9.1796">
        <ele>1490.8</ele>
        <time>2015-06-20T10:54:08Z</time>
      </trkpt>
      <trkpt lat="41.89382" lon="9.17963">
        <ele>1491.8</ele>
        <time>2015-06-20T10:54:16Z</time>
      </trkpt>
      <trkpt lat="41.89385" lon="9.17958">
        <ele>1493</ele>
        <time>2015-06-20T10:54:26Z</time>
      </trkpt>
      <trkpt lat="41.89391" lon="9.17957">
        <ele>1494</ele>
        <time>2015-06-20T10:54:38Z</time>
      </trkpt>
      <trkpt lat="41.89397" lon="9.17953">
        <ele>1495.2</ele>
        <time>2015-06-20T10:54:49Z</time>
      </trkpt>
      <trkpt lat="41.89401" lon="9.17952">
        <ele>1496.4</ele>
        <time>2015-06-20T10:54:58Z</time>
      </trkpt>
      <trkpt lat="41.89406" lon="9.17948">
        <ele>1497.8</ele>
        <time>2015-06-20T10:55:12Z</time>
      </trkpt>
      <trkpt lat="41.89411" lon="9.17946">
        <ele>1498.2</ele>
        <time>2015-06-20T10:55:21Z</time>
      </trkpt>
      <trkpt lat="41.89414" lon="9.17945">
        <ele>1499.8</ele>
        <time>2015-06-20T10:55:31Z</time>
      </trkpt>
      <trkpt lat="41.89418" lon="9.17945">
        <ele>1500.4</ele>
        <time>2015-06-20T10:55:39Z</time>
      </trkpt>
      <trkpt lat="41.89421" lon="9.17943">
        <ele>1501.6</ele>
        <time>2015-06-20T10:55:48Z</time>
      </trkpt>
      <trkpt lat="41.89425" lon="9.17944">
        <ele>1502.8</ele>
        <time>2015-06-20T10:55:56Z</time>
      </trkpt>
      <trkpt lat="41.89428" lon="9.17941">
        <ele>1504</ele>
        <time>2015-06-20T10:56:06Z</time>
      </trkpt>
      <trkpt lat="41.89432" lon="9.17941">
        <ele>1504.6</ele>
        <time>2015-06-20T10:56:13Z</time>
      </trkpt>
      <trkpt lat="41.89436" lon="9.17938">
        <ele>1505.8</ele>
        <time>2015-06-20T10:56:22Z</time>
      </trkpt>
      <trkpt lat="41.89441" lon="9.17936">
        <ele>1507</ele>
        <time>2015-06-20T10:56:31Z</time>
      </trkpt>
      <trkpt lat="41.89445" lon="9.17935">
        <ele>1508.2</ele>
        <time>2015-06-20T10:56:41Z</time>
      </trkpt>
      <trkpt lat="41.89448" lon="9.17935">
        <ele>1509</ele>
        <time>2015-06-20T10:56:49Z</time>
      </trkpt>
      <trkpt lat="41.89453" lon="9.17935">
        <ele>1510.4</ele>
        <time>2015-06-20T10:57:00Z</time>
      </trkpt>
      <trkpt lat="41.89456" lon="9.17935">
        <ele>1511</ele>
        <time>2015-06-20T10:57:08Z</time>
      </trkpt>
      <trkpt lat="41.89459" lon="9.17936">
        <ele>1512.4</ele>
        <time>2015-06-20T10:57:16Z</time>
      </trkpt>
      <trkpt lat="41.89463" lon="9.17939">
        <ele>1513.4</ele>
        <time>2015-06-20T10:57:24Z</time>
      </trkpt>
      <trkpt lat="41.89469" lon="9.17939">
        <ele>1514.8</ele>
        <time>2015-06-20T10:57:36Z</time>
      </trkpt>
      <trkpt lat="41.89474" lon="9.1794">
        <ele>1515.4</ele>
        <time>2015-06-20T10:57:46Z</time>
      </trkpt>
      <trkpt lat="41.89478" lon="9.17939">
        <ele>1516.2</ele>
        <time>2015-06-20T10:57:53Z</time>
      </trkpt>
      <trkpt lat="41.89481" lon="9.17939">
        <ele>1517.6</ele>
        <time>2015-06-20T10:58:02Z</time>
      </trkpt>
      <trkpt lat="41.89484" lon="9.17938">
        <ele>1518.8</ele>
        <time>2015-06-20T10:58:10Z</time>
      </trkpt>
      <trkpt lat="41.89487" lon="9.17935">
        <ele>1519.8</ele>
        <time>2015-06-20T10:58:19Z</time>
      </trkpt>
      <trkpt lat="41.89489" lon="9.17932">
        <ele>1520.8</ele>
        <time>2015-06-20T10:58:27Z</time>
      </trkpt>
      <trkpt lat="41.89492" lon="9.17927">
        <ele>1522</ele>
        <time>2015-06-20T10:58:36Z</time>
      </trkpt>
      <trkpt lat="41.89494" lon="9.17926">
        <ele>1522.6</ele>
        <time>2015-06-20T10:58:41Z</time>
      </trkpt>
      <trkpt lat="41.89499" lon="9.17927">
        <ele>1524</ele>
        <time>2015-06-20T10:58:48Z</time>
      </trkpt>
      <trkpt lat="41.89508" lon="9.17924">
        <ele>1525.6</ele>
        <time>2015-06-20T10:59:00Z</time>
      </trkpt>
      <trkpt lat="41.89522" lon="9.17915">
        <ele>1526.6</ele>
        <time>2015-06-20T10:59:20Z</time>
      </trkpt>
      <trkpt lat="41.89526" lon="9.17912">
        <ele>1527.2</ele>
        <time>2015-06-20T10:59:29Z</time>
      </trkpt>
      <trkpt lat="41.89545" lon="9.17905">
        <ele>1528.4</ele>
        <time>2015-06-20T10:59:55Z</time>
      </trkpt>
      <trkpt lat="41.89551" lon="9.17901">
        <ele>1529.2</ele>
        <time>2015-06-20T11:00:03Z</time>
      </trkpt>
      <trkpt lat="41.89556" lon="9.17899">
        <ele>1530</ele>
        <time>2015-06-20T11:00:09Z</time>
      </trkpt>
      <trkpt lat="41.89561" lon="9.17894">
        <ele>1531.6</ele>
        <time>2015-06-20T11:00:17Z</time>
      </trkpt>
      <trkpt lat="41.89568" lon="9.17891">
        <ele>1532.4</ele>
        <time>2015-06-20T11:00:26Z</time>
      </trkpt>
      <trkpt lat="41.89577" lon="9.17888">
        <ele>1533.4</ele>
        <time>2015-06-20T11:00:37Z</time>
      </trkpt>
      <trkpt lat="41.89583" lon="9.17888">
        <ele>1534.6</ele>
        <time>2015-06-20T11:00:46Z</time>
      </trkpt>
      <trkpt lat="41.89589" lon="9.17886">
        <ele>1535.4</ele>
        <time>2015-06-20T11:00:54Z</time>
      </trkpt>
      <trkpt lat="41.89605" lon="9.17884">
        <ele>1536.8</ele>
        <time>2015-06-20T11:01:14Z</time>
      </trkpt>
      <trkpt lat="41.89612" lon="9.17887">
        <ele>1537.8</ele>
        <time>2015-06-20T11:01:24Z</time>
      </trkpt>
      <trkpt lat="41.89656" lon="9.179">
        <ele>1538.2</ele>
        <time>2015-06-20T11:02:04Z</time>
      </trkpt>
      <trkpt lat="41.89657" lon="9.179">
        <ele>1538.2</ele>
        <time>2015-06-20T11:02:05Z</time>
      </trkpt>
      <trkpt lat="41.89688" lon="9.17886">
        <ele>1538.6</ele>
        <time>2015-06-20T11:02:35Z</time>
      </trkpt>
      <trkpt lat="41.8969" lon="9.17882">
        <ele>1538.4</ele>
        <time>2015-06-20T11:02:39Z</time>
      </trkpt>
      <trkpt lat="41.89692" lon="9.17878">
        <ele>1538.2</ele>
        <time>2015-06-20T11:02:42Z</time>
      </trkpt>
      <trkpt lat="41.89695" lon="9.17876">
        <ele>1538</ele>
        <time>2015-06-20T11:02:46Z</time>
      </trkpt>
      <trkpt lat="41.89697" lon="9.17874">
        <ele>1538</ele>
        <time>2015-06-20T11:02:48Z</time>
      </trkpt>
      <trkpt lat="41.89701" lon="9.17868">
        <ele>1537.8</ele>
        <time>2015-06-20T11:02:54Z</time>
      </trkpt>
      <trkpt lat="41.89726" lon="9.17852">
        <ele>1537.2</ele>
        <time>2015-06-20T11:03:19Z</time>
      </trkpt>
      <trkpt lat="41.89729" lon="9.17854">
        <ele>1537.6</ele>
        <time>2015-06-20T11:03:23Z</time>
      </trkpt>
      <trkpt lat="41.89738" lon="9.17856">
        <ele>1538</ele>
        <time>2015-06-20T11:03:32Z</time>
      </trkpt>
      <trkpt lat="41.89749" lon="9.17867">
        <ele>1539.2</ele>
        <time>2015-06-20T11:03:45Z</time>
      </trkpt>
      <trkpt lat="41.89776" lon="9.17892">
        <ele>1540.4</ele>
        <time>2015-06-20T11:04:19Z</time>
      </trkpt>
      <trkpt lat="41.89783" lon="9.17892">
        <ele>1540.8</ele>
        <time>2015-06-20T11:04:25Z</time>
      </trkpt>
      <trkpt lat="41.8979" lon="9.17892">
        <ele>1542.2</ele>
        <time>2015-06-20T11:04:32Z</time>
      </trkpt>
      <trkpt lat="41.89795" lon="9.17891">
        <ele>1543.2</ele>
        <time>2015-06-20T11:04:39Z</time>
      </trkpt>
      <trkpt lat="41.89798" lon="9.17892">
        <ele>1544.4</ele>
        <time>2015-06-20T11:04:47Z</time>
      </trkpt>
      <trkpt lat="41.89801" lon="9.17895">
        <ele>1545.4</ele>
        <time>2015-06-20T11:04:54Z</time>
      </trkpt>
      <trkpt lat="41.89804" lon="9.179">
        <ele>1546.6</ele>
        <time>2015-06-20T11:05:01Z</time>
      </trkpt>
      <trkpt lat="41.89808" lon="9.17907">
        <ele>1548.2</ele>
        <time>2015-06-20T11:05:11Z</time>
      </trkpt>
      <trkpt lat="41.89811" lon="9.17914">
        <ele>1549.2</ele>
        <time>2015-06-20T11:05:20Z</time>
      </trkpt>
      <trkpt lat="41.89814" lon="9.17926">
        <ele>1550.4</ele>
        <time>2015-06-20T11:05:32Z</time>
      </trkpt>
      <trkpt lat="41.89818" lon="9.17934">
        <ele>1551</ele>
        <time>2015-06-20T11:05:41Z</time>
      </trkpt>
      <trkpt lat="41.89826" lon="9.17954">
        <ele>1551.6</ele>
        <time>2015-06-20T11:06:00Z</time>
      </trkpt>
      <trkpt lat="41.89837" lon="9.18013">
        <ele>1552.2</ele>
        <time>2015-06-20T11:06:42Z</time>
      </trkpt>
      <trkpt lat="41.89859" lon="9.18065">
        <ele>1551.2</ele>
        <time>2015-06-20T11:07:25Z</time>
      </trkpt>
      <trkpt lat="41.89867" lon="9.18074">
        <ele>1552</ele>
        <time>2015-06-20T11:07:36Z</time>
      </trkpt>
      <trkpt lat="41.8987" lon="9.18078">
        <ele>1552.8</ele>
        <time>2015-06-20T11:07:42Z</time>
      </trkpt>
      <trkpt lat="41.89873" lon="9.18081">
        <ele>1554</ele>
        <time>2015-06-20T11:07:48Z</time>
      </trkpt>
      <trkpt lat="41.89884" lon="9.18096">
        <ele>1555.8</ele>
        <time>2015-06-20T11:08:10Z</time>
      </trkpt>
      <trkpt lat="41.89885" lon="9.18097">
        <ele>1556</ele>
        <time>2015-06-20T11:08:11Z</time>
      </trkpt>
      <trkpt lat="41.89887" lon="9.18098">
        <ele>1556</ele>
        <time>2015-06-20T11:08:13Z</time>
      </trkpt>
      <trkpt lat="41.89898" lon="9.1812">
        <ele>1556.6</ele>
        <time>2015-06-20T11:08:37Z</time>
      </trkpt>
      <trkpt lat="41.89902" lon="9.18121">
        <ele>1557.4</ele>
        <time>2015-06-20T11:08:43Z</time>
      </trkpt>
      <trkpt lat="41.89906" lon="9.18123">
        <ele>1558.6</ele>
        <time>2015-06-20T11:08:49Z</time>
      </trkpt>
      <trkpt lat="41.8991" lon="9.18126">
        <ele>1559.8</ele>
        <time>2015-06-20T11:08:56Z</time>
      </trkpt>
      <trkpt lat="41.89914" lon="9.18128">
        <ele>1560.6</ele>
        <time>2015-06-20T11:09:02Z</time>
      </trkpt>
      <trkpt lat="41.8992" lon="9.18131">
        <ele>1562.2</ele>
        <time>2015-06-20T11:09:11Z</time>
      </trkpt>
      <trkpt lat="41.89924" lon="9.18133">
        <ele>1563.2</ele>
        <time>2015-06-20T11:09:20Z</time>
      </trkpt>
      <trkpt lat="41.89927" lon="9.18135">
        <ele>1564.2</ele>
        <time>2015-06-20T11:09:27Z</time>
      </trkpt>
      <trkpt lat="41.8993" lon="9.18141">
        <ele>1565.4</ele>
        <time>2015-06-20T11:09:36Z</time>
      </trkpt>
      <trkpt lat="41.89943" lon="9.1815">
        <ele>1566.6</ele>
        <time>2015-06-20T11:09:59Z</time>
      </trkpt>
      <trkpt lat="41.89949" lon="9.18153">
        <ele>1567.4</ele>
        <time>2015-06-20T11:10:08Z</time>
      </trkpt>
      <trkpt lat="41.8995" lon="9.18153">
        <ele>1567.6</ele>
        <time>2015-06-20T11:10:09Z</time>
      </trkpt>
      <trkpt lat="41.89958" lon="9.18157">
        <ele>1568.6</ele>
        <time>2015-06-20T11:10:18Z</time>
      </trkpt>
      <trkpt lat="41.89965" lon="9.18159">
        <ele>1569.4</ele>
        <time>2015-06-20T11:10:27Z</time>
      </trkpt>
      <trkpt lat="41.89972" lon="9.1816">
        <ele>1570.6</ele>
        <time>2015-06-20T11:10:37Z</time>
      </trkpt>
      <trkpt lat="41.89976" lon="9.18162">
        <ele>1571.6</ele>
        <time>2015-06-20T11:10:45Z</time>
      </trkpt>
      <trkpt lat="41.89981" lon="9.18163">
        <ele>1572.6</ele>
        <time>2015-06-20T11:10:53Z</time>
      </trkpt>
      <trkpt lat="41.89983" lon="9.18164">
        <ele>1573.4</ele>
        <time>2015-06-20T11:10:59Z</time>
      </trkpt>
      <trkpt lat="41.89988" lon="9.1817">
        <ele>1574.6</ele>
        <time>2015-06-20T11:11:06Z</time>
      </trkpt>
      <trkpt lat="41.90016" lon="9.1819">
        <ele>1576.6</ele>
        <time>2015-06-20T11:11:39Z</time>
      </trkpt>
      <trkpt lat="41.90025" lon="9.18199">
        <ele>1577</ele>
        <time>2015-06-20T11:11:50Z</time>
      </trkpt>
      <trkpt lat="41.90026" lon="9.182">
        <ele>1577.4</ele>
        <time>2015-06-20T11:11:51Z</time>
      </trkpt>
      <trkpt lat="41.9003" lon="9.18204">
        <ele>1578</ele>
        <time>2015-06-20T11:11:59Z</time>
      </trkpt>
      <trkpt lat="41.90036" lon="9.18207">
        <ele>1579.2</ele>
        <time>2015-06-20T11:12:08Z</time>
      </trkpt>
      <trkpt lat="41.90051" lon="9.18222">
        <ele>1580.2</ele>
        <time>2015-06-20T11:12:29Z</time>
      </trkpt>
      <trkpt lat="41.9006" lon="9.18224">
        <ele>1581.2</ele>
        <time>2015-06-20T11:12:38Z</time>
      </trkpt>
      <trkpt lat="41.90061" lon="9.18224">
        <ele>1581.4</ele>
        <time>2015-06-20T11:12:39Z</time>
      </trkpt>
      <trkpt lat="41.90075" lon="9.1822">
        <ele>1581.6</ele>
        <time>2015-06-20T11:12:54Z</time>
      </trkpt>
      <trkpt lat="41.90089" lon="9.18216">
        <ele>1580</ele>
        <time>2015-06-20T11:13:08Z</time>
      </trkpt>
      <trkpt lat="41.90132" lon="9.18228">
        <ele>1579.2</ele>
        <time>2015-06-20T11:13:48Z</time>
      </trkpt>
      <trkpt lat="41.90135" lon="9.18228">
        <ele>1579</ele>
        <time>2015-06-20T11:13:50Z</time>
      </trkpt>
      <trkpt lat="41.90164" lon="9.1824">
        <ele>1578</ele>
        <time>2015-06-20T11:14:19Z</time>
      </trkpt>
      <trkpt lat="41.90169" lon="9.18245">
        <ele>1577.8</ele>
        <time>2015-06-20T11:14:24Z</time>
      </trkpt>
      <trkpt lat="41.90175" lon="9.18249">
        <ele>1577.2</ele>
        <time>2015-06-20T11:14:31Z</time>
      </trkpt>
      <trkpt lat="41.90178" lon="9.18247">
        <ele>1576.8</ele>
        <time>2015-06-20T11:14:35Z</time>
      </trkpt>
      <trkpt lat="41.90181" lon="9.18244">
        <ele>1576.8</ele>
        <time>2015-06-20T11:14:38Z</time>
      </trkpt>
      <trkpt lat="41.90188" lon="9.18241">
        <ele>1577.4</ele>
        <time>2015-06-20T11:14:46Z</time>
      </trkpt>
      <trkpt lat="41.90196" lon="9.1824">
        <ele>1577.8</ele>
        <time>2015-06-20T11:14:53Z</time>
      </trkpt>
      <trkpt lat="41.90204" lon="9.1824">
        <ele>1578</ele>
        <time>2015-06-20T11:14:59Z</time>
      </trkpt>
      <trkpt lat="41.9021" lon="9.18234">
        <ele>1578</ele>
        <time>2015-06-20T11:15:06Z</time>
      </trkpt>
      <trkpt lat="41.90218" lon="9.18227">
        <ele>1578.2</ele>
        <time>2015-06-20T11:15:15Z</time>
      </trkpt>
      <trkpt lat="41.90221" lon="9.18224">
        <ele>1579</ele>
        <time>2015-06-20T11:15:20Z</time>
      </trkpt>
      <trkpt lat="41.90224" lon="9.18221">
        <ele>1579.6</ele>
        <time>2015-06-20T11:15:25Z</time>
      </trkpt>
      <trkpt lat="41.90228" lon="9.18218">
        <ele>1580.4</ele>
        <time>2015-06-20T11:15:32Z</time>
      </trkpt>
      <trkpt lat="41.90235" lon="9.18214">
        <ele>1581.8</ele>
        <time>2015-06-20T11:15:42Z</time>
      </trkpt>
      <trkpt lat="41.90241" lon="9.18207">
        <ele>1583</ele>
        <time>2015-06-20T11:15:52Z</time>
      </trkpt>
      <trkpt lat="41.90245" lon="9.18195">
        <ele>1584</ele>
        <time>2015-06-20T11:16:03Z</time>
      </trkpt>
      <trkpt lat="41.90249" lon="9.18184">
        <ele>1585.2</ele>
        <time>2015-06-20T11:16:14Z</time>
      </trkpt>
      <trkpt lat="41.90261" lon="9.18126">
        <ele>1585.8</ele>
        <time>2015-06-20T11:16:54Z</time>
      </trkpt>
      <trkpt lat="41.90272" lon="9.18111">
        <ele>1585.8</ele>
        <time>2015-06-20T11:17:13Z</time>
      </trkpt>
      <trkpt lat="41.90272" lon="9.18108">
        <ele>1585.8</ele>
        <time>2015-06-20T11:17:16Z</time>
      </trkpt>
      <trkpt lat="41.90268" lon="9.18115">
        <ele>1584.8</ele>
        <time>2015-06-20T11:20:49Z</time>
      </trkpt>
      <trkpt lat="41.90272" lon="9.18116">
        <ele>1585.6</ele>
        <time>2015-06-20T11:21:38Z</time>
      </trkpt>
      <trkpt lat="41.9027" lon="9.18116">
        <ele>1585</ele>
        <time>2015-06-20T11:23:19Z</time>
      </trkpt>
      <trkpt lat="41.90267" lon="9.18117">
        <ele>1584.6</ele>
        <time>2015-06-20T11:25:41Z</time>
      </trkpt>
      <trkpt lat="41.90272" lon="9.18113">
        <ele>1585.2</ele>
        <time>2015-06-20T11:27:04Z</time>
      </trkpt>
      <trkpt lat="41.90273" lon="9.18112">
        <ele>1585.2</ele>
        <time>2015-06-20T11:27:09Z</time>
      </trkpt>
      <trkpt lat="41.90267" lon="9.18119">
        <ele>1584.8</ele>
        <time>2015-06-20T11:27:20Z</time>
      </trkpt>
      <trkpt lat="41.90265" lon="9.18117">
        <ele>1585</ele>
        <time>2015-06-20T11:27:40Z</time>
      </trkpt>
      <trkpt lat="41.90265" lon="9.18117">
        <ele>1585.4</ele>
        <time>2015-06-20T11:28:17Z</time>
      </trkpt>
      <trkpt lat="41.90265" lon="9.18118">
        <ele>1585</ele>
        <time>2015-06-20T11:28:24Z</time>
      </trkpt>
      <trkpt lat="41.90264" lon="9.18118">
        <ele>1585.4</ele>
        <time>2015-06-20T11:28:32Z</time>
      </trkpt>
      <trkpt lat="41.90264" lon="9.18119">
        <ele>1585.6</ele>
        <time>2015-06-20T11:28:34Z</time>
      </trkpt>
      <trkpt lat="41.90262" lon="9.18105">
        <ele>1585.8</ele>
        <time>2015-06-20T11:29:25Z</time>
      </trkpt>
      <trkpt lat="41.9026" lon="9.18098">
        <ele>1585.4</ele>
        <time>2015-06-20T11:29:33Z</time>
      </trkpt>
      <trkpt lat="41.90266" lon="9.181">
        <ele>1584.6</ele>
        <time>2015-06-20T11:31:14Z</time>
      </trkpt>
      <trkpt lat="41.90259" lon="9.18103">
        <ele>1583.4</ele>
        <time>2015-06-20T11:33:03Z</time>
      </trkpt>
      <trkpt lat="41.9026" lon="9.18093">
        <ele>1582.6</ele>
        <time>2015-06-20T11:36:10Z</time>
      </trkpt>
      <trkpt lat="41.90259" lon="9.18098">
        <ele>1582.6</ele>
        <time>2015-06-20T11:36:17Z</time>
      </trkpt>
      <trkpt lat="41.90265" lon="9.18101">
        <ele>1582.6</ele>
        <time>2015-06-20T11:38:45Z</time>
      </trkpt>
      <trkpt lat="41.90289" lon="9.18095">
        <ele>1582.6</ele>
        <time>2015-06-20T11:40:04Z</time>
      </trkpt>
      <trkpt lat="41.90291" lon="9.18096">
        <ele>1582.6</ele>
        <time>2015-06-20T11:40:06Z</time>
      </trkpt>
      <trkpt lat="41.90297" lon="9.18094">
        <ele>1582.8</ele>
        <time>2015-06-20T11:40:37Z</time>
      </trkpt>
      <trkpt lat="41.90282" lon="9.18098">
        <ele>1582.8</ele>
        <time>2015-06-20T11:40:41Z</time>
      </trkpt>
      <trkpt lat="41.90281" lon="9.18099">
        <ele>1582.8</ele>
        <time>2015-06-20T11:40:43Z</time>
      </trkpt>
      <trkpt lat="41.90267" lon="9.18078">
        <ele>1582.4</ele>
        <time>2015-06-20T11:41:40Z</time>
      </trkpt>
      <trkpt lat="41.90266" lon="9.1808">
        <ele>1582.6</ele>
        <time>2015-06-20T11:41:42Z</time>
      </trkpt>
      <trkpt lat="41.90267" lon="9.18098">
        <ele>1583.2</ele>
        <time>2015-06-20T11:45:00Z</time>
      </trkpt>
      <trkpt lat="41.90274" lon="9.181">
        <ele>1584</ele>
        <time>2015-06-20T11:45:39Z</time>
      </trkpt>
      <trkpt lat="41.9028" lon="9.18105">
        <ele>1584</ele>
        <time>2015-06-20T11:45:45Z</time>
      </trkpt>
      <trkpt lat="41.90282" lon="9.18105">
        <ele>1584.2</ele>
        <time>2015-06-20T11:45:47Z</time>
      </trkpt>
      <trkpt lat="41.90294" lon="9.18103">
        <ele>1583.2</ele>
        <time>2015-06-20T11:47:53Z</time>
      </trkpt>
      <trkpt lat="41.90293" lon="9.18102">
        <ele>1582.4</ele>
        <time>2015-06-20T11:48:52Z</time>
      </trkpt>
      <trkpt lat="41.90295" lon="9.18101">
        <ele>1582.4</ele>
        <time>2015-06-20T11:48:54Z</time>
      </trkpt>
      <trkpt lat="41.903" lon="9.18094">
        <ele>1582.4</ele>
        <time>2015-06-20T11:49:04Z</time>
      </trkpt>
      <trkpt lat="41.90288" lon="9.18088">
        <ele>1582.4</ele>
        <time>2015-06-20T11:49:18Z</time>
      </trkpt>
      <trkpt lat="41.90281" lon="9.18089">
        <ele>1582.4</ele>
        <time>2015-06-20T11:49:23Z</time>
      </trkpt>
      <trkpt lat="41.90282" lon="9.18092">
        <ele>1582.2</ele>
        <time>2015-06-20T11:49:43Z</time>
      </trkpt>
      <trkpt lat="41.90269" lon="9.18098">
        <ele>1581.8</ele>
        <time>2015-06-20T11:50:10Z</time>
      </trkpt>
      <trkpt lat="41.9027" lon="9.18105">
        <ele>1581.6</ele>
        <time>2015-06-20T11:50:14Z</time>
      </trkpt>
      <trkpt lat="41.9027" lon="9.18108">
        <ele>1581.6</ele>
        <time>2015-06-20T11:50:16Z</time>
      </trkpt>
      <trkpt lat="41.90269" lon="9.18109">
        <ele>1581.6</ele>
        <time>2015-06-20T11:50:18Z</time>
      </trkpt>
      <trkpt lat="41.90276" lon="9.18108">
        <ele>1581.2</ele>
        <time>2015-06-20T11:50:35Z</time>
      </trkpt>
      <trkpt lat="41.9028" lon="9.18107">
        <ele>1581.2</ele>
        <time>2015-06-20T11:50:40Z</time>
      </trkpt>
      <trkpt lat="41.90282" lon="9.18099">
        <ele>1580.8</ele>
        <time>2015-06-20T11:51:35Z</time>
      </trkpt>
      <trkpt lat="41.90286" lon="9.18096">
        <ele>1580</ele>
        <time>2015-06-20T11:53:13Z</time>
      </trkpt>
      <trkpt lat="41.90278" lon="9.181">
        <ele>1579.8</ele>
        <time>2015-06-20T11:53:39Z</time>
      </trkpt>
      <trkpt lat="41.90273" lon="9.18108">
        <ele>1580</ele>
        <time>2015-06-20T11:56:33Z</time>
      </trkpt>
      <trkpt lat="41.90275" lon="9.18108">
        <ele>1580</ele>
        <time>2015-06-20T11:56:44Z</time>
      </trkpt>
      <trkpt lat="41.90273" lon="9.18115">
        <ele>1580.2</ele>
        <time>2015-06-20T11:58:08Z</time>
      </trkpt>
      <trkpt lat="41.90268" lon="9.18112">
        <ele>1580.4</ele>
        <time>2015-06-20T11:59:42Z</time>
      </trkpt>
      <trkpt lat="41.90279" lon="9.18098">
        <ele>1581.4</ele>
        <time>2015-06-20T12:01:46Z</time>
      </trkpt>
      <trkpt lat="41.90274" lon="9.18103">
        <ele>1582.6</ele>
        <time>2015-06-20T12:04:28Z</time>
      </trkpt>
      <trkpt lat="41.9028" lon="9.18103">
        <ele>1582.8</ele>
        <time>2015-06-20T12:05:49Z</time>
      </trkpt>
      <trkpt lat="41.90301" lon="9.18086">
        <ele>1581.8</ele>
        <time>2015-06-20T12:06:11Z</time>
      </trkpt>
      <trkpt lat="41.90302" lon="9.18085">
        <ele>1581.4</ele>
        <time>2015-06-20T12:06:13Z</time>
      </trkpt>
      <trkpt lat="41.90304" lon="9.18082">
        <ele>1581.4</ele>
        <time>2015-06-20T12:06:15Z</time>
      </trkpt>
      <trkpt lat="41.90306" lon="9.18076">
        <ele>1581.2</ele>
        <time>2015-06-20T12:06:20Z</time>
      </trkpt>
      <trkpt lat="41.90307" lon="9.18073">
        <ele>1581</ele>
        <time>2015-06-20T12:06:23Z</time>
      </trkpt>
      <trkpt lat="41.90309" lon="9.18065">
        <ele>1580.8</ele>
        <time>2015-06-20T12:06:29Z</time>
      </trkpt>
      <trkpt lat="41.9031" lon="9.18063">
        <ele>1580.6</ele>
        <time>2015-06-20T12:06:30Z</time>
      </trkpt>
      <trkpt lat="41.90317" lon="9.18056">
        <ele>1580.2</ele>
        <time>2015-06-20T12:06:39Z</time>
      </trkpt>
      <trkpt lat="41.90317" lon="9.18056">
        <ele>1580</ele>
        <time>2015-06-20T12:06:40Z</time>
      </trkpt>
      <trkpt lat="41.90322" lon="9.18049">
        <ele>1579.2</ele>
        <time>2015-06-20T12:06:49Z</time>
      </trkpt>
      <trkpt lat="41.90326" lon="9.18047">
        <ele>1579.2</ele>
        <time>2015-06-20T12:06:52Z</time>
      </trkpt>
      <trkpt lat="41.90331" lon="9.1804">
        <ele>1578.8</ele>
        <time>2015-06-20T12:07:01Z</time>
      </trkpt>
      <trkpt lat="41.90333" lon="9.1803">
        <ele>1578</ele>
        <time>2015-06-20T12:07:08Z</time>
      </trkpt>
      <trkpt lat="41.90335" lon="9.18024">
        <ele>1577.6</ele>
        <time>2015-06-20T12:07:12Z</time>
      </trkpt>
      <trkpt lat="41.90335" lon="9.18019">
        <ele>1577.2</ele>
        <time>2015-06-20T12:07:16Z</time>
      </trkpt>
      <trkpt lat="41.90336" lon="9.18015">
        <ele>1577</ele>
        <time>2015-06-20T12:07:19Z</time>
      </trkpt>
      <trkpt lat="41.90337" lon="9.18014">
        <ele>1576.6</ele>
        <time>2015-06-20T12:07:20Z</time>
      </trkpt>
      <trkpt lat="41.90339" lon="9.18011">
        <ele>1576.4</ele>
        <time>2015-06-20T12:07:23Z</time>
      </trkpt>
      <trkpt lat="41.90341" lon="9.18009">
        <ele>1576</ele>
        <time>2015-06-20T12:07:25Z</time>
      </trkpt>
      <trkpt lat="41.90344" lon="9.18006">
        <ele>1575.2</ele>
        <time>2015-06-20T12:07:29Z</time>
      </trkpt>
      <trkpt lat="41.90349" lon="9.18003">
        <ele>1574.6</ele>
        <time>2015-06-20T12:07:32Z</time>
      </trkpt>
      <trkpt lat="41.90351" lon="9.18002">
        <ele>1574.2</ele>
        <time>2015-06-20T12:07:34Z</time>
      </trkpt>
      <trkpt lat="41.90355" lon="9.17998">
        <ele>1573.6</ele>
        <time>2015-06-20T12:07:38Z</time>
      </trkpt>
      <trkpt lat="41.90357" lon="9.17997">
        <ele>1573.6</ele>
        <time>2015-06-20T12:07:39Z</time>
      </trkpt>
      <trkpt lat="41.90361" lon="9.17992">
        <ele>1573</ele>
        <time>2015-06-20T12:07:44Z</time>
      </trkpt>
      <trkpt lat="41.90372" lon="9.17982">
        <ele>1571.6</ele>
        <time>2015-06-20T12:07:59Z</time>
      </trkpt>
      <trkpt lat="41.90377" lon="9.17978">
        <ele>1571.8</ele>
        <time>2015-06-20T12:08:04Z</time>
      </trkpt>
      <trkpt lat="41.90384" lon="9.17969">
        <ele>1572</ele>
        <time>2015-06-20T12:08:13Z</time>
      </trkpt>
      <trkpt lat="41.90386" lon="9.17965">
        <ele>1572</ele>
        <time>2015-06-20T12:08:16Z</time>
      </trkpt>
      <trkpt lat="41.90388" lon="9.17963">
        <ele>1571.8</ele>
        <time>2015-06-20T12:08:18Z</time>
      </trkpt>
      <trkpt lat="41.90389" lon="9.17961">
        <ele>1571.8</ele>
        <time>2015-06-20T12:08:20Z</time>
      </trkpt>
      <trkpt lat="41.90393" lon="9.17957">
        <ele>1571.4</ele>
        <time>2015-06-20T12:08:23Z</time>
      </trkpt>
      <trkpt lat="41.90399" lon="9.17953">
        <ele>1570.4</ele>
        <time>2015-06-20T12:08:29Z</time>
      </trkpt>
      <trkpt lat="41.90402" lon="9.1795">
        <ele>1570.2</ele>
        <time>2015-06-20T12:08:32Z</time>
      </trkpt>
      <trkpt lat="41.90406" lon="9.17941">
        <ele>1569.2</ele>
        <time>2015-06-20T12:08:38Z</time>
      </trkpt>
      <trkpt lat="41.9041" lon="9.1793">
        <ele>1568.6</ele>
        <time>2015-06-20T12:08:46Z</time>
      </trkpt>
      <trkpt lat="41.90413" lon="9.17923">
        <ele>1567.6</ele>
        <time>2015-06-20T12:08:54Z</time>
      </trkpt>
      <trkpt lat="41.90414" lon="9.17921">
        <ele>1567.4</ele>
        <time>2015-06-20T12:08:56Z</time>
      </trkpt>
      <trkpt lat="41.90418" lon="9.17915">
        <ele>1566.8</ele>
        <time>2015-06-20T12:09:01Z</time>
      </trkpt>
      <trkpt lat="41.90419" lon="9.17914">
        <ele>1566.6</ele>
        <time>2015-06-20T12:09:02Z</time>
      </trkpt>
      <trkpt lat="41.90422" lon="9.17911">
        <ele>1566</ele>
        <time>2015-06-20T12:09:05Z</time>
      </trkpt>
      <trkpt lat="41.90423" lon="9.1791">
        <ele>1565.6</ele>
        <time>2015-06-20T12:09:07Z</time>
      </trkpt>
      <trkpt lat="41.90423" lon="9.17909">
        <ele>1565.2</ele>
        <time>2015-06-20T12:09:08Z</time>
      </trkpt>
      <trkpt lat="41.90425" lon="9.17905">
        <ele>1564.4</ele>
        <time>2015-06-20T12:09:14Z</time>
      </trkpt>
      <trkpt lat="41.90429" lon="9.17901">
        <ele>1563.4</ele>
        <time>2015-06-20T12:09:20Z</time>
      </trkpt>
      <trkpt lat="41.90431" lon="9.17897">
        <ele>1562.6</ele>
        <time>2015-06-20T12:09:24Z</time>
      </trkpt>
      <trkpt lat="41.90431" lon="9.17896">
        <ele>1562.4</ele>
        <time>2015-06-20T12:09:25Z</time>
      </trkpt>
      <trkpt lat="41.90432" lon="9.17892">
        <ele>1561.4</ele>
        <time>2015-06-20T12:09:30Z</time>
      </trkpt>
      <trkpt lat="41.90432" lon="9.17887">
        <ele>1560.2</ele>
        <time>2015-06-20T12:09:35Z</time>
      </trkpt>
      <trkpt lat="41.90434" lon="9.17881">
        <ele>1559.6</ele>
        <time>2015-06-20T12:09:39Z</time>
      </trkpt>
      <trkpt lat="41.90434" lon="9.17878">
        <ele>1559</ele>
        <time>2015-06-20T12:09:41Z</time>
      </trkpt>
      <trkpt lat="41.90438" lon="9.17871">
        <ele>1558.2</ele>
        <time>2015-06-20T12:09:45Z</time>
      </trkpt>
      <trkpt lat="41.90439" lon="9.17868">
        <ele>1557.8</ele>
        <time>2015-06-20T12:09:46Z</time>
      </trkpt>
      <trkpt lat="41.90444" lon="9.17859">
        <ele>1557</ele>
        <time>2015-06-20T12:09:51Z</time>
      </trkpt>
      <trkpt lat="41.9045" lon="9.17849">
        <ele>1555.2</ele>
        <time>2015-06-20T12:10:01Z</time>
      </trkpt>
      <trkpt lat="41.90458" lon="9.17847">
        <ele>1554.2</ele>
        <time>2015-06-20T12:10:10Z</time>
      </trkpt>
      <trkpt lat="41.90463" lon="9.17842">
        <ele>1553.2</ele>
        <time>2015-06-20T12:10:19Z</time>
      </trkpt>
      <trkpt lat="41.90464" lon="9.17839">
        <ele>1553.2</ele>
        <time>2015-06-20T12:10:21Z</time>
      </trkpt>
      <trkpt lat="41.90467" lon="9.17837">
        <ele>1552.4</ele>
        <time>2015-06-20T12:10:26Z</time>
      </trkpt>
      <trkpt lat="41.90469" lon="9.17835">
        <ele>1552.2</ele>
        <time>2015-06-20T12:10:29Z</time>
      </trkpt>
      <trkpt lat="41.90473" lon="9.17838">
        <ele>1551.8</ele>
        <time>2015-06-20T12:10:33Z</time>
      </trkpt>
      <trkpt lat="41.90476" lon="9.17839">
        <ele>1551.4</ele>
        <time>2015-06-20T12:10:35Z</time>
      </trkpt>
      <trkpt lat="41.90476" lon="9.17839">
        <ele>1551.2</ele>
        <time>2015-06-20T12:10:36Z</time>
      </trkpt>
      <trkpt lat="41.90483" lon="9.1784">
        <ele>1550</ele>
        <time>2015-06-20T12:10:44Z</time>
      </trkpt>
      <trkpt lat="41.90485" lon="9.17843">
        <ele>1549.8</ele>
        <time>2015-06-20T12:10:46Z</time>
      </trkpt>
      <trkpt lat="41.90487" lon="9.17843">
        <ele>1549.8</ele>
        <time>2015-06-20T12:10:47Z</time>
      </trkpt>
      <trkpt lat="41.90491" lon="9.17844">
        <ele>1549.6</ele>
        <time>2015-06-20T12:10:50Z</time>
      </trkpt>
      <trkpt lat="41.90495" lon="9.17844">
        <ele>1549.4</ele>
        <time>2015-06-20T12:10:53Z</time>
      </trkpt>
      <trkpt lat="41.90497" lon="9.17842">
        <ele>1549</ele>
        <time>2015-06-20T12:10:56Z</time>
      </trkpt>
      <trkpt lat="41.90499" lon="9.17842">
        <ele>1548.8</ele>
        <time>2015-06-20T12:10:58Z</time>
      </trkpt>
      <trkpt lat="41.905" lon="9.17842">
        <ele>1548.8</ele>
        <time>2015-06-20T12:11:00Z</time>
      </trkpt>
      <trkpt lat="41.90504" lon="9.1784">
        <ele>1548.2</ele>
        <time>2015-06-20T12:11:04Z</time>
      </trkpt>
      <trkpt lat="41.9051" lon="9.17838">
        <ele>1548</ele>
        <time>2015-06-20T12:11:07Z</time>
      </trkpt>
      <trkpt lat="41.90513" lon="9.17837">
        <ele>1547.2</ele>
        <time>2015-06-20T12:11:10Z</time>
      </trkpt>
      <trkpt lat="41.90516" lon="9.17835">
        <ele>1547</ele>
        <time>2015-06-20T12:11:12Z</time>
      </trkpt>
      <trkpt lat="41.90523" lon="9.17829">
        <ele>1546.6</ele>
        <time>2015-06-20T12:11:18Z</time>
      </trkpt>
      <trkpt lat="41.90529" lon="9.17824">
        <ele>1546.4</ele>
        <time>2015-06-20T12:11:23Z</time>
      </trkpt>
      <trkpt lat="41.90531" lon="9.1782">
        <ele>1546</ele>
        <time>2015-06-20T12:11:25Z</time>
      </trkpt>
      <trkpt lat="41.90553" lon="9.17811">
        <ele>1545.8</ele>
        <time>2015-06-20T12:11:43Z</time>
      </trkpt>
      <trkpt lat="41.90566" lon="9.17804">
        <ele>1545.8</ele>
        <time>2015-06-20T12:11:53Z</time>
      </trkpt>
      <trkpt lat="41.90577" lon="9.1777">
        <ele>1545.2</ele>
        <time>2015-06-20T12:12:20Z</time>
      </trkpt>
      <trkpt lat="41.90574" lon="9.17768">
        <ele>1545.6</ele>
        <time>2015-06-20T12:12:22Z</time>
      </trkpt>
      <trkpt lat="41.90572" lon="9.17763">
        <ele>1546</ele>
        <time>2015-06-20T12:12:27Z</time>
      </trkpt>
      <trkpt lat="41.90572" lon="9.17758">
        <ele>1546.4</ele>
        <time>2015-06-20T12:12:30Z</time>
      </trkpt>
      <trkpt lat="41.90569" lon="9.17749">
        <ele>1547</ele>
        <time>2015-06-20T12:12:37Z</time>
      </trkpt>
      <trkpt lat="41.90567" lon="9.17744">
        <ele>1547.4</ele>
        <time>2015-06-20T12:12:41Z</time>
      </trkpt>
      <trkpt lat="41.90566" lon="9.17735">
        <ele>1548</ele>
        <time>2015-06-20T12:12:48Z</time>
      </trkpt>
      <trkpt lat="41.90575" lon="9.17714">
        <ele>1548.4</ele>
        <time>2015-06-20T12:13:08Z</time>
      </trkpt>
      <trkpt lat="41.90576" lon="9.17712">
        <ele>1548.4</ele>
        <time>2015-06-20T12:13:11Z</time>
      </trkpt>
      <trkpt lat="41.90589" lon="9.17705">
        <ele>1549.4</ele>
        <time>2015-06-20T12:13:24Z</time>
      </trkpt>
      <trkpt lat="41.90605" lon="9.17698">
        <ele>1551</ele>
        <time>2015-06-20T12:13:52Z</time>
      </trkpt>
      <trkpt lat="41.90611" lon="9.17694">
        <ele>1552.4</ele>
        <time>2015-06-20T12:14:08Z</time>
      </trkpt>
      <trkpt lat="41.9062" lon="9.17694">
        <ele>1553</ele>
        <time>2015-06-20T12:14:21Z</time>
      </trkpt>
      <trkpt lat="41.90628" lon="9.17694">
        <ele>1554</ele>
        <time>2015-06-20T12:14:32Z</time>
      </trkpt>
      <trkpt lat="41.90647" lon="9.17693">
        <ele>1555.2</ele>
        <time>2015-06-20T12:14:44Z</time>
      </trkpt>
      <trkpt lat="41.90655" lon="9.17704">
        <ele>1556.2</ele>
        <time>2015-06-20T12:15:02Z</time>
      </trkpt>
      <trkpt lat="41.90661" lon="9.17706">
        <ele>1557.2</ele>
        <time>2015-06-20T12:15:09Z</time>
      </trkpt>
      <trkpt lat="41.90663" lon="9.17707">
        <ele>1557.4</ele>
        <time>2015-06-20T12:15:11Z</time>
      </trkpt>
      <trkpt lat="41.90668" lon="9.17708">
        <ele>1557.6</ele>
        <time>2015-06-20T12:15:14Z</time>
      </trkpt>
      <trkpt lat="41.90673" lon="9.17709">
        <ele>1558</ele>
        <time>2015-06-20T12:15:18Z</time>
      </trkpt>
      <trkpt lat="41.90678" lon="9.17708">
        <ele>1558</ele>
        <time>2015-06-20T12:15:20Z</time>
      </trkpt>
      <trkpt lat="41.90681" lon="9.17708">
        <ele>1558</ele>
        <time>2015-06-20T12:15:24Z</time>
      </trkpt>
      <trkpt lat="41.90687" lon="9.17707">
        <ele>1558.2</ele>
        <time>2015-06-20T12:15:29Z</time>
      </trkpt>
      <trkpt lat="41.9069" lon="9.17709">
        <ele>1559.6</ele>
        <time>2015-06-20T12:15:34Z</time>
      </trkpt>
      <trkpt lat="41.90692" lon="9.17709">
        <ele>1559.6</ele>
        <time>2015-06-20T12:15:36Z</time>
      </trkpt>
      <trkpt lat="41.90693" lon="9.17708">
        <ele>1559.8</ele>
        <time>2015-06-20T12:15:37Z</time>
      </trkpt>
      <trkpt lat="41.90693" lon="9.17708">
        <ele>1560</ele>
        <time>2015-06-20T12:15:38Z</time>
      </trkpt>
      <trkpt lat="41.90696" lon="9.17708">
        <ele>1560.6</ele>
        <time>2015-06-20T12:15:42Z</time>
      </trkpt>
      <trkpt lat="41.90701" lon="9.17708">
        <ele>1561.4</ele>
        <time>2015-06-20T12:15:46Z</time>
      </trkpt>
      <trkpt lat="41.90702" lon="9.17708">
        <ele>1561.4</ele>
        <time>2015-06-20T12:15:47Z</time>
      </trkpt>
      <trkpt lat="41.90705" lon="9.17708">
        <ele>1561.6</ele>
        <time>2015-06-20T12:15:49Z</time>
      </trkpt>
      <trkpt lat="41.9072" lon="9.17711">
        <ele>1562.6</ele>
        <time>2015-06-20T12:16:02Z</time>
      </trkpt>
      <trkpt lat="41.90729" lon="9.17717">
        <ele>1564</ele>
        <time>2015-06-20T12:16:13Z</time>
      </trkpt>
      <trkpt lat="41.9073" lon="9.17718">
        <ele>1564.2</ele>
        <time>2015-06-20T12:16:15Z</time>
      </trkpt>
      <trkpt lat="41.90733" lon="9.1772">
        <ele>1564.4</ele>
        <time>2015-06-20T12:16:18Z</time>
      </trkpt>
      <trkpt lat="41.90733" lon="9.1772">
        <ele>1564.6</ele>
        <time>2015-06-20T12:16:19Z</time>
      </trkpt>
      <trkpt lat="41.90739" lon="9.17723">
        <ele>1565.4</ele>
        <time>2015-06-20T12:16:25Z</time>
      </trkpt>
      <trkpt lat="41.9074" lon="9.17724">
        <ele>1565.6</ele>
        <time>2015-06-20T12:16:27Z</time>
      </trkpt>
      <trkpt lat="41.90742" lon="9.17725">
        <ele>1565.6</ele>
        <time>2015-06-20T12:16:29Z</time>
      </trkpt>
      <trkpt lat="41.90742" lon="9.17729">
        <ele>1566.4</ele>
        <time>2015-06-20T12:16:34Z</time>
      </trkpt>
      <trkpt lat="41.90748" lon="9.17732">
        <ele>1568.4</ele>
        <time>2015-06-20T12:16:45Z</time>
      </trkpt>
      <trkpt lat="41.90755" lon="9.17731">
        <ele>1568.6</ele>
        <time>2015-06-20T12:16:50Z</time>
      </trkpt>
      <trkpt lat="41.90757" lon="9.17734">
        <ele>1569.2</ele>
        <time>2015-06-20T12:16:55Z</time>
      </trkpt>
      <trkpt lat="41.90759" lon="9.17734">
        <ele>1569.8</ele>
        <time>2015-06-20T12:17:00Z</time>
      </trkpt>
      <trkpt lat="41.90764" lon="9.17736">
        <ele>1571.2</ele>
        <time>2015-06-20T12:17:07Z</time>
      </trkpt>
      <trkpt lat="41.90769" lon="9.17737">
        <ele>1572.4</ele>
        <time>2015-06-20T12:17:22Z</time>
      </trkpt>
      <trkpt lat="41.9077" lon="9.17737">
        <ele>1573.2</ele>
        <time>2015-06-20T12:17:27Z</time>
      </trkpt>
      <trkpt lat="41.9078" lon="9.17742">
        <ele>1575</ele>
        <time>2015-06-20T12:17:41Z</time>
      </trkpt>
      <trkpt lat="41.90787" lon="9.17743">
        <ele>1575.8</ele>
        <time>2015-06-20T12:17:46Z</time>
      </trkpt>
      <trkpt lat="41.90787" lon="9.17743">
        <ele>1575.8</ele>
        <time>2015-06-20T12:17:47Z</time>
      </trkpt>
      <trkpt lat="41.90793" lon="9.17748">
        <ele>1576.8</ele>
        <time>2015-06-20T12:17:54Z</time>
      </trkpt>
      <trkpt lat="41.90807" lon="9.17758">
        <ele>1578</ele>
        <time>2015-06-20T12:18:14Z</time>
      </trkpt>
      <trkpt lat="41.90809" lon="9.17761">
        <ele>1578.4</ele>
        <time>2015-06-20T12:18:19Z</time>
      </trkpt>
      <trkpt lat="41.90813" lon="9.1777">
        <ele>1579.6</ele>
        <time>2015-06-20T12:18:31Z</time>
      </trkpt>
      <trkpt lat="41.90814" lon="9.17771">
        <ele>1579.6</ele>
        <time>2015-06-20T12:18:32Z</time>
      </trkpt>
      <trkpt lat="41.90816" lon="9.17773">
        <ele>1580</ele>
        <time>2015-06-20T12:18:34Z</time>
      </trkpt>
      <trkpt lat="41.90823" lon="9.1778">
        <ele>1581</ele>
        <time>2015-06-20T12:18:45Z</time>
      </trkpt>
      <trkpt lat="41.90823" lon="9.17781">
        <ele>1581.2</ele>
        <time>2015-06-20T12:18:46Z</time>
      </trkpt>
      <trkpt lat="41.90825" lon="9.17783">
        <ele>1581.2</ele>
        <time>2015-06-20T12:18:49Z</time>
      </trkpt>
      <trkpt lat="41.90826" lon="9.17784">
        <ele>1581.4</ele>
        <time>2015-06-20T12:18:51Z</time>
      </trkpt>
      <trkpt lat="41.90827" lon="9.17785">
        <ele>1581.4</ele>
        <time>2015-06-20T12:18:53Z</time>
      </trkpt>
      <trkpt lat="41.90829" lon="9.17787">
        <ele>1581.8</ele>
        <time>2015-06-20T12:18:57Z</time>
      </trkpt>
      <trkpt lat="41.90831" lon="9.17786">
        <ele>1582.4</ele>
        <time>2015-06-20T12:19:02Z</time>
      </trkpt>
      <trkpt lat="41.90829" lon="9.17782">
        <ele>1584</ele>
        <time>2015-06-20T12:19:10Z</time>
      </trkpt>
      <trkpt lat="41.90827" lon="9.17764">
        <ele>1585.4</ele>
        <time>2015-06-20T12:19:24Z</time>
      </trkpt>
      <trkpt lat="41.90827" lon="9.17762">
        <ele>1585.4</ele>
        <time>2015-06-20T12:19:25Z</time>
      </trkpt>
      <trkpt lat="41.90827" lon="9.17756">
        <ele>1585.8</ele>
        <time>2015-06-20T12:19:30Z</time>
      </trkpt>
      <trkpt lat="41.9083" lon="9.17754">
        <ele>1586</ele>
        <time>2015-06-20T12:19:34Z</time>
      </trkpt>
      <trkpt lat="41.9083" lon="9.17753">
        <ele>1586.2</ele>
        <time>2015-06-20T12:19:36Z</time>
      </trkpt>
      <trkpt lat="41.90831" lon="9.17752">
        <ele>1586.2</ele>
        <time>2015-06-20T12:19:38Z</time>
      </trkpt>
      <trkpt lat="41.90843" lon="9.17743">
        <ele>1588</ele>
        <time>2015-06-20T12:21:29Z</time>
      </trkpt>
      <trkpt lat="41.90841" lon="9.17739">
        <ele>1588.8</ele>
        <time>2015-06-20T12:21:36Z</time>
      </trkpt>
      <trkpt lat="41.9084" lon="9.17737">
        <ele>1590.2</ele>
        <time>2015-06-20T12:21:44Z</time>
      </trkpt>
      <trkpt lat="41.90841" lon="9.17736">
        <ele>1590.8</ele>
        <time>2015-06-20T12:21:48Z</time>
      </trkpt>
      <trkpt lat="41.90844" lon="9.1773">
        <ele>1592.4</ele>
        <time>2015-06-20T12:21:55Z</time>
      </trkpt>
      <trkpt lat="41.90843" lon="9.17726">
        <ele>1593.8</ele>
        <time>2015-06-20T12:22:05Z</time>
      </trkpt>
      <trkpt lat="41.9085" lon="9.17722">
        <ele>1594.6</ele>
        <time>2015-06-20T12:22:11Z</time>
      </trkpt>
      <trkpt lat="41.90853" lon="9.1772">
        <ele>1595.4</ele>
        <time>2015-06-20T12:22:15Z</time>
      </trkpt>
      <trkpt lat="41.90854" lon="9.17718">
        <ele>1596.2</ele>
        <time>2015-06-20T12:22:20Z</time>
      </trkpt>
      <trkpt lat="41.90856" lon="9.17714">
        <ele>1596.8</ele>
        <time>2015-06-20T12:22:26Z</time>
      </trkpt>
      <trkpt lat="41.90853" lon="9.17705">
        <ele>1598.8</ele>
        <time>2015-06-20T12:22:38Z</time>
      </trkpt>
      <trkpt lat="41.90851" lon="9.17699">
        <ele>1599.4</ele>
        <time>2015-06-20T12:22:45Z</time>
      </trkpt>
      <trkpt lat="41.90853" lon="9.17692">
        <ele>1601</ele>
        <time>2015-06-20T12:22:58Z</time>
      </trkpt>
      <trkpt lat="41.90856" lon="9.17687">
        <ele>1602</ele>
        <time>2015-06-20T12:23:05Z</time>
      </trkpt>
      <trkpt lat="41.90857" lon="9.17682">
        <ele>1603.4</ele>
        <time>2015-06-20T12:23:13Z</time>
      </trkpt>
      <trkpt lat="41.90856" lon="9.1768">
        <ele>1604</ele>
        <time>2015-06-20T12:23:19Z</time>
      </trkpt>
      <trkpt lat="41.90854" lon="9.17675">
        <ele>1605.6</ele>
        <time>2015-06-20T12:23:30Z</time>
      </trkpt>
      <trkpt lat="41.90852" lon="9.17671">
        <ele>1607</ele>
        <time>2015-06-20T12:23:41Z</time>
      </trkpt>
      <trkpt lat="41.90857" lon="9.17666">
        <ele>1608.4</ele>
        <time>2015-06-20T12:23:52Z</time>
      </trkpt>
      <trkpt lat="41.90859" lon="9.1766">
        <ele>1609.4</ele>
        <time>2015-06-20T12:23:59Z</time>
      </trkpt>
      <trkpt lat="41.90863" lon="9.17655">
        <ele>1610</ele>
        <time>2015-06-20T12:24:04Z</time>
      </trkpt>
      <trkpt lat="41.90864" lon="9.1765">
        <ele>1611</ele>
        <time>2015-06-20T12:24:14Z</time>
      </trkpt>
      <trkpt lat="41.90868" lon="9.17644">
        <ele>1611.8</ele>
        <time>2015-06-20T12:24:22Z</time>
      </trkpt>
      <trkpt lat="41.9087" lon="9.17638">
        <ele>1613.4</ele>
        <time>2015-06-20T12:24:31Z</time>
      </trkpt>
      <trkpt lat="41.90876" lon="9.17629">
        <ele>1614.4</ele>
        <time>2015-06-20T12:24:44Z</time>
      </trkpt>
      <trkpt lat="41.90878" lon="9.17625">
        <ele>1614.8</ele>
        <time>2015-06-20T12:24:48Z</time>
      </trkpt>
      <trkpt lat="41.90879" lon="9.17619">
        <ele>1616.8</ele>
        <time>2015-06-20T12:24:58Z</time>
      </trkpt>
      <trkpt lat="41.90885" lon="9.17618">
        <ele>1618</ele>
        <time>2015-06-20T12:25:08Z</time>
      </trkpt>
      <trkpt lat="41.90889" lon="9.17614">
        <ele>1619.2</ele>
        <time>2015-06-20T12:25:17Z</time>
      </trkpt>
      <trkpt lat="41.90893" lon="9.17617">
        <ele>1620.2</ele>
        <time>2015-06-20T12:25:26Z</time>
      </trkpt>
      <trkpt lat="41.90899" lon="9.1762">
        <ele>1621.4</ele>
        <time>2015-06-20T12:25:36Z</time>
      </trkpt>
      <trkpt lat="41.909" lon="9.17621">
        <ele>1621.8</ele>
        <time>2015-06-20T12:25:38Z</time>
      </trkpt>
      <trkpt lat="41.90907" lon="9.17624">
        <ele>1623</ele>
        <time>2015-06-20T12:25:49Z</time>
      </trkpt>
      <trkpt lat="41.90909" lon="9.17624">
        <ele>1623</ele>
        <time>2015-06-20T12:25:51Z</time>
      </trkpt>
      <trkpt lat="41.90912" lon="9.17624">
        <ele>1623.2</ele>
        <time>2015-06-20T12:25:53Z</time>
      </trkpt>
      <trkpt lat="41.90929" lon="9.17618">
        <ele>1623.6</ele>
        <time>2015-06-20T12:26:14Z</time>
      </trkpt>
      <trkpt lat="41.90929" lon="9.17617">
        <ele>1623.8</ele>
        <time>2015-06-20T12:26:15Z</time>
      </trkpt>
      <trkpt lat="41.9093" lon="9.17616">
        <ele>1623.6</ele>
        <time>2015-06-20T12:26:16Z</time>
      </trkpt>
      <trkpt lat="41.90932" lon="9.17613">
        <ele>1624</ele>
        <time>2015-06-20T12:26:20Z</time>
      </trkpt>
      <trkpt lat="41.90933" lon="9.17611">
        <ele>1624</ele>
        <time>2015-06-20T12:26:22Z</time>
      </trkpt>
      <trkpt lat="41.90944" lon="9.17599">
        <ele>1624.6</ele>
        <time>2015-06-20T12:26:46Z</time>
      </trkpt>
      <trkpt lat="41.90945" lon="9.17598">
        <ele>1624.8</ele>
        <time>2015-06-20T12:26:48Z</time>
      </trkpt>
      <trkpt lat="41.90947" lon="9.17597">
        <ele>1624.8</ele>
        <time>2015-06-20T12:26:50Z</time>
      </trkpt>
      <trkpt lat="41.90954" lon="9.17593">
        <ele>1625</ele>
        <time>2015-06-20T12:26:54Z</time>
      </trkpt>
      <trkpt lat="41.90965" lon="9.17589">
        <ele>1625.8</ele>
        <time>2015-06-20T12:27:02Z</time>
      </trkpt>
      <trkpt lat="41.90968" lon="9.17578">
        <ele>1626.2</ele>
        <time>2015-06-20T12:27:13Z</time>
      </trkpt>
      <trkpt lat="41.90973" lon="9.17566">
        <ele>1627.2</ele>
        <time>2015-06-20T12:27:55Z</time>
      </trkpt>
      <trkpt lat="41.90979" lon="9.17563">
        <ele>1628</ele>
        <time>2015-06-20T12:28:03Z</time>
      </trkpt>
      <trkpt lat="41.90981" lon="9.17562">
        <ele>1628.4</ele>
        <time>2015-06-20T12:28:05Z</time>
      </trkpt>
      <trkpt lat="41.90985" lon="9.1756">
        <ele>1628.4</ele>
        <time>2015-06-20T12:28:07Z</time>
      </trkpt>
      <trkpt lat="41.9099" lon="9.17556">
        <ele>1629</ele>
        <time>2015-06-20T12:28:12Z</time>
      </trkpt>
      <trkpt lat="41.90993" lon="9.17554">
        <ele>1629.4</ele>
        <time>2015-06-20T12:28:14Z</time>
      </trkpt>
      <trkpt lat="41.90994" lon="9.17553">
        <ele>1629.8</ele>
        <time>2015-06-20T12:28:16Z</time>
      </trkpt>
      <trkpt lat="41.90998" lon="9.17554">
        <ele>1630.6</ele>
        <time>2015-06-20T12:28:25Z</time>
      </trkpt>
      <trkpt lat="41.91001" lon="9.17551">
        <ele>1631.8</ele>
        <time>2015-06-20T12:28:34Z</time>
      </trkpt>
      <trkpt lat="41.91006" lon="9.17545">
        <ele>1633.4</ele>
        <time>2015-06-20T12:28:47Z</time>
      </trkpt>
      <trkpt lat="41.91012" lon="9.1754">
        <ele>1633.6</ele>
        <time>2015-06-20T12:28:54Z</time>
      </trkpt>
      <trkpt lat="41.91016" lon="9.17536">
        <ele>1633.8</ele>
        <time>2015-06-20T12:28:58Z</time>
      </trkpt>
      <trkpt lat="41.91021" lon="9.17531">
        <ele>1634</ele>
        <time>2015-06-20T12:29:03Z</time>
      </trkpt>
      <trkpt lat="41.91025" lon="9.17527">
        <ele>1634.4</ele>
        <time>2015-06-20T12:29:07Z</time>
      </trkpt>
      <trkpt lat="41.91027" lon="9.17525">
        <ele>1634.6</ele>
        <time>2015-06-20T12:29:10Z</time>
      </trkpt>
      <trkpt lat="41.91027" lon="9.17522">
        <ele>1635</ele>
        <time>2015-06-20T12:29:14Z</time>
      </trkpt>
      <trkpt lat="41.91027" lon="9.17521">
        <ele>1635.2</ele>
        <time>2015-06-20T12:29:15Z</time>
      </trkpt>
      <trkpt lat="41.91026" lon="9.17524">
        <ele>1636.6</ele>
        <time>2015-06-20T12:29:30Z</time>
      </trkpt>
      <trkpt lat="41.91027" lon="9.17524">
        <ele>1636.8</ele>
        <time>2015-06-20T12:29:34Z</time>
      </trkpt>
      <trkpt lat="41.91033" lon="9.17522">
        <ele>1638.8</ele>
        <time>2015-06-20T12:29:43Z</time>
      </trkpt>
      <trkpt lat="41.91033" lon="9.17522">
        <ele>1639</ele>
        <time>2015-06-20T12:29:44Z</time>
      </trkpt>
      <trkpt lat="41.91034" lon="9.17525">
        <ele>1639.4</ele>
        <time>2015-06-20T12:30:39Z</time>
      </trkpt>
      <trkpt lat="41.91033" lon="9.17528">
        <ele>1638.8</ele>
        <time>2015-06-20T12:30:46Z</time>
      </trkpt>
      <trkpt lat="41.91033" lon="9.17536">
        <ele>1638</ele>
        <time>2015-06-20T12:30:53Z</time>
      </trkpt>
      <trkpt lat="41.91033" lon="9.17539">
        <ele>1637.8</ele>
        <time>2015-06-20T12:30:55Z</time>
      </trkpt>
      <trkpt lat="41.91033" lon="9.17543">
        <ele>1637.2</ele>
        <time>2015-06-20T12:30:59Z</time>
      </trkpt>
      <trkpt lat="41.91036" lon="9.17557">
        <ele>1636.4</ele>
        <time>2015-06-20T12:31:12Z</time>
      </trkpt>
      <trkpt lat="41.91041" lon="9.17563">
        <ele>1636.4</ele>
        <time>2015-06-20T12:31:27Z</time>
      </trkpt>
      <trkpt lat="41.91045" lon="9.17563">
        <ele>1637.2</ele>
        <time>2015-06-20T12:31:34Z</time>
      </trkpt>
      <trkpt lat="41.91048" lon="9.17562">
        <ele>1638</ele>
        <time>2015-06-20T12:31:39Z</time>
      </trkpt>
      <trkpt lat="41.91052" lon="9.17562">
        <ele>1639.2</ele>
        <time>2015-06-20T12:31:44Z</time>
      </trkpt>
      <trkpt lat="41.91055" lon="9.17564">
        <ele>1640</ele>
        <time>2015-06-20T12:31:49Z</time>
      </trkpt>
      <trkpt lat="41.91055" lon="9.17568">
        <ele>1641</ele>
        <time>2015-06-20T12:31:55Z</time>
      </trkpt>
      <trkpt lat="41.91055" lon="9.17572">
        <ele>1642.4</ele>
        <time>2015-06-20T12:32:04Z</time>
      </trkpt>
      <trkpt lat="41.91063" lon="9.17579">
        <ele>1643.6</ele>
        <time>2015-06-20T12:32:15Z</time>
      </trkpt>
      <trkpt lat="41.91068" lon="9.17583">
        <ele>1644.6</ele>
        <time>2015-06-20T12:32:23Z</time>
      </trkpt>
      <trkpt lat="41.91071" lon="9.17587">
        <ele>1646.2</ele>
        <time>2015-06-20T12:32:35Z</time>
      </trkpt>
      <trkpt lat="41.91072" lon="9.17591">
        <ele>1647</ele>
        <time>2015-06-20T12:32:43Z</time>
      </trkpt>
      <trkpt lat="41.91075" lon="9.17593">
        <ele>1647.6</ele>
        <time>2015-06-20T12:32:49Z</time>
      </trkpt>
      <trkpt lat="41.9108" lon="9.176">
        <ele>1650</ele>
        <time>2015-06-20T12:33:02Z</time>
      </trkpt>
      <trkpt lat="41.91081" lon="9.17602">
        <ele>1650.8</ele>
        <time>2015-06-20T12:33:09Z</time>
      </trkpt>
      <trkpt lat="41.91082" lon="9.17605">
        <ele>1652</ele>
        <time>2015-06-20T12:33:19Z</time>
      </trkpt>
      <trkpt lat="41.91082" lon="9.17608">
        <ele>1652.8</ele>
        <time>2015-06-20T12:33:25Z</time>
      </trkpt>
      <trkpt lat="41.91086" lon="9.17616">
        <ele>1654.8</ele>
        <time>2015-06-20T12:33:39Z</time>
      </trkpt>
      <trkpt lat="41.9109" lon="9.17622">
        <ele>1656</ele>
        <time>2015-06-20T12:33:53Z</time>
      </trkpt>
      <trkpt lat="41.91089" lon="9.17628">
        <ele>1656.2</ele>
        <time>2015-06-20T12:33:58Z</time>
      </trkpt>
      <trkpt lat="41.9109" lon="9.17629">
        <ele>1656.6</ele>
        <time>2015-06-20T12:34:00Z</time>
      </trkpt>
      <trkpt lat="41.9109" lon="9.17632">
        <ele>1656.6</ele>
        <time>2015-06-20T12:34:02Z</time>
      </trkpt>
      <trkpt lat="41.9109" lon="9.17634">
        <ele>1656.8</ele>
        <time>2015-06-20T12:34:04Z</time>
      </trkpt>
      <trkpt lat="41.91092" lon="9.17636">
        <ele>1657</ele>
        <time>2015-06-20T12:34:06Z</time>
      </trkpt>
      <trkpt lat="41.91093" lon="9.17639">
        <ele>1657.4</ele>
        <time>2015-06-20T12:34:10Z</time>
      </trkpt>
      <trkpt lat="41.91092" lon="9.17642">
        <ele>1658.2</ele>
        <time>2015-06-20T12:34:15Z</time>
      </trkpt>
      <trkpt lat="41.91088" lon="9.17664">
        <ele>1659</ele>
        <time>2015-06-20T12:34:42Z</time>
      </trkpt>
      <trkpt lat="41.91088" lon="9.17666">
        <ele>1659.2</ele>
        <time>2015-06-20T12:34:43Z</time>
      </trkpt>
      <trkpt lat="41.91088" lon="9.17671">
        <ele>1659.6</ele>
        <time>2015-06-20T12:34:46Z</time>
      </trkpt>
      <trkpt lat="41.91084" lon="9.17682">
        <ele>1661</ele>
        <time>2015-06-20T12:34:55Z</time>
      </trkpt>
      <trkpt lat="41.9108" lon="9.17691">
        <ele>1661.8</ele>
        <time>2015-06-20T12:35:05Z</time>
      </trkpt>
      <trkpt lat="41.91079" lon="9.17694">
        <ele>1661.8</ele>
        <time>2015-06-20T12:35:07Z</time>
      </trkpt>
      <trkpt lat="41.91077" lon="9.17702">
        <ele>1662.2</ele>
        <time>2015-06-20T12:35:12Z</time>
      </trkpt>
      <trkpt lat="41.91071" lon="9.1774">
        <ele>1664</ele>
        <time>2015-06-20T12:35:38Z</time>
      </trkpt>
      <trkpt lat="41.91097" lon="9.17787">
        <ele>1664</ele>
        <time>2015-06-20T12:36:20Z</time>
      </trkpt>
      <trkpt lat="41.91137" lon="9.17814">
        <ele>1664.2</ele>
        <time>2015-06-20T12:36:58Z</time>
      </trkpt>
      <trkpt lat="41.91139" lon="9.17814">
        <ele>1664.6</ele>
        <time>2015-06-20T12:37:00Z</time>
      </trkpt>
      <trkpt lat="41.91141" lon="9.17815">
        <ele>1664.8</ele>
        <time>2015-06-20T12:37:03Z</time>
      </trkpt>
      <trkpt lat="41.91145" lon="9.17818">
        <ele>1665.6</ele>
        <time>2015-06-20T12:37:08Z</time>
      </trkpt>
      <trkpt lat="41.91159" lon="9.17831">
        <ele>1667.2</ele>
        <time>2015-06-20T12:37:29Z</time>
      </trkpt>
      <trkpt lat="41.91164" lon="9.17835">
        <ele>1667.4</ele>
        <time>2015-06-20T12:37:35Z</time>
      </trkpt>
      <trkpt lat="41.91165" lon="9.17836">
        <ele>1667.4</ele>
        <time>2015-06-20T12:37:37Z</time>
      </trkpt>
      <trkpt lat="41.91167" lon="9.17837">
        <ele>1667.6</ele>
        <time>2015-06-20T12:37:39Z</time>
      </trkpt>
      <trkpt lat="41.91169" lon="9.17839">
        <ele>1667.4</ele>
        <time>2015-06-20T12:37:41Z</time>
      </trkpt>
      <trkpt lat="41.91173" lon="9.17844">
        <ele>1667.6</ele>
        <time>2015-06-20T12:37:48Z</time>
      </trkpt>
      <trkpt lat="41.91175" lon="9.17848">
        <ele>1667.8</ele>
        <time>2015-06-20T12:37:53Z</time>
      </trkpt>
      <trkpt lat="41.91182" lon="9.17857">
        <ele>1669.2</ele>
        <time>2015-06-20T12:38:06Z</time>
      </trkpt>
      <trkpt lat="41.91185" lon="9.1786">
        <ele>1669.2</ele>
        <time>2015-06-20T12:38:09Z</time>
      </trkpt>
      <trkpt lat="41.9119" lon="9.17862">
        <ele>1669.8</ele>
        <time>2015-06-20T12:38:15Z</time>
      </trkpt>
      <trkpt lat="41.91192" lon="9.17863">
        <ele>1670.6</ele>
        <time>2015-06-20T12:38:19Z</time>
      </trkpt>
      <trkpt lat="41.91194" lon="9.17862">
        <ele>1670.8</ele>
        <time>2015-06-20T12:38:21Z</time>
      </trkpt>
      <trkpt lat="41.91195" lon="9.17862">
        <ele>1671</ele>
        <time>2015-06-20T12:38:23Z</time>
      </trkpt>
      <trkpt lat="41.91197" lon="9.17863">
        <ele>1671.2</ele>
        <time>2015-06-20T12:38:27Z</time>
      </trkpt>
      <trkpt lat="41.91197" lon="9.17865">
        <ele>1671.8</ele>
        <time>2015-06-20T12:38:32Z</time>
      </trkpt>
      <trkpt lat="41.912" lon="9.1787">
        <ele>1673.4</ele>
        <time>2015-06-20T12:38:44Z</time>
      </trkpt>
      <trkpt lat="41.91203" lon="9.17871">
        <ele>1674.2</ele>
        <time>2015-06-20T12:38:52Z</time>
      </trkpt>
      <trkpt lat="41.91206" lon="9.17874">
        <ele>1675.6</ele>
        <time>2015-06-20T12:39:05Z</time>
      </trkpt>
      <trkpt lat="41.91208" lon="9.17876">
        <ele>1676.6</ele>
        <time>2015-06-20T12:39:12Z</time>
      </trkpt>
      <trkpt lat="41.91211" lon="9.17882">
        <ele>1678</ele>
        <time>2015-06-20T12:39:37Z</time>
      </trkpt>
      <trkpt lat="41.91212" lon="9.17882">
        <ele>1678.6</ele>
        <time>2015-06-20T12:39:43Z</time>
      </trkpt>
      <trkpt lat="41.91214" lon="9.17883">
        <ele>1679.8</ele>
        <time>2015-06-20T12:39:51Z</time>
      </trkpt>
      <trkpt lat="41.91214" lon="9.17886">
        <ele>1681</ele>
        <time>2015-06-20T12:39:58Z</time>
      </trkpt>
      <trkpt lat="41.91215" lon="9.1789">
        <ele>1681.6</ele>
        <time>2015-06-20T12:40:03Z</time>
      </trkpt>
      <trkpt lat="41.91213" lon="9.17892">
        <ele>1681.6</ele>
        <time>2015-06-20T12:40:05Z</time>
      </trkpt>
      <trkpt lat="41.9122" lon="9.17895">
        <ele>1683.4</ele>
        <time>2015-06-20T12:40:15Z</time>
      </trkpt>
      <trkpt lat="41.9122" lon="9.17898">
        <ele>1684.4</ele>
        <time>2015-06-20T12:40:25Z</time>
      </trkpt>
      <trkpt lat="41.9122" lon="9.179">
        <ele>1686.2</ele>
        <time>2015-06-20T12:40:39Z</time>
      </trkpt>
      <trkpt lat="41.91221" lon="9.17902">
        <ele>1686.4</ele>
        <time>2015-06-20T12:40:43Z</time>
      </trkpt>
      <trkpt lat="41.91229" lon="9.17905">
        <ele>1688.2</ele>
        <time>2015-06-20T12:40:59Z</time>
      </trkpt>
      <trkpt lat="41.9123" lon="9.17905">
        <ele>1689.4</ele>
        <time>2015-06-20T12:41:10Z</time>
      </trkpt>
      <trkpt lat="41.9123" lon="9.17906">
        <ele>1690.2</ele>
        <time>2015-06-20T12:41:21Z</time>
      </trkpt>
      <trkpt lat="41.91232" lon="9.17909">
        <ele>1691.6</ele>
        <time>2015-06-20T12:41:31Z</time>
      </trkpt>
      <trkpt lat="41.91234" lon="9.17915">
        <ele>1692.6</ele>
        <time>2015-06-20T12:41:42Z</time>
      </trkpt>
      <trkpt lat="41.91241" lon="9.17918">
        <ele>1693.6</ele>
        <time>2015-06-20T12:41:49Z</time>
      </trkpt>
      <trkpt lat="41.91242" lon="9.17917">
        <ele>1693.6</ele>
        <time>2015-06-20T12:41:51Z</time>
      </trkpt>
      <trkpt lat="41.9125" lon="9.17916">
        <ele>1694.8</ele>
        <time>2015-06-20T12:42:02Z</time>
      </trkpt>
      <trkpt lat="41.91252" lon="9.17916">
        <ele>1695</ele>
        <time>2015-06-20T12:42:05Z</time>
      </trkpt>
      <trkpt lat="41.9125" lon="9.17921">
        <ele>1696</ele>
        <time>2015-06-20T12:42:14Z</time>
      </trkpt>
      <trkpt lat="41.9125" lon="9.17928">
        <ele>1697.6</ele>
        <time>2015-06-20T12:42:27Z</time>
      </trkpt>
      <trkpt lat="41.91253" lon="9.17931">
        <ele>1697.8</ele>
        <time>2015-06-20T12:42:31Z</time>
      </trkpt>
      <trkpt lat="41.91258" lon="9.17933">
        <ele>1699.6</ele>
        <time>2015-06-20T12:42:46Z</time>
      </trkpt>
      <trkpt lat="41.91259" lon="9.17933">
        <ele>1701</ele>
        <time>2015-06-20T12:42:59Z</time>
      </trkpt>
      <trkpt lat="41.9126" lon="9.17935">
        <ele>1701.8</ele>
        <time>2015-06-20T12:43:06Z</time>
      </trkpt>
      <trkpt lat="41.91261" lon="9.17938">
        <ele>1703</ele>
        <time>2015-06-20T12:43:16Z</time>
      </trkpt>
      <trkpt lat="41.91259" lon="9.17941">
        <ele>1704</ele>
        <time>2015-06-20T12:43:23Z</time>
      </trkpt>
      <trkpt lat="41.91258" lon="9.17949">
        <ele>1705.2</ele>
        <time>2015-06-20T12:43:33Z</time>
      </trkpt>
      <trkpt lat="41.91267" lon="9.17957">
        <ele>1706.6</ele>
        <time>2015-06-20T12:43:43Z</time>
      </trkpt>
      <trkpt lat="41.91269" lon="9.17956">
        <ele>1706.8</ele>
        <time>2015-06-20T12:43:45Z</time>
      </trkpt>
      <trkpt lat="41.9127" lon="9.17957">
        <ele>1707</ele>
        <time>2015-06-20T12:43:47Z</time>
      </trkpt>
      <trkpt lat="41.91272" lon="9.17961">
        <ele>1707.8</ele>
        <time>2015-06-20T12:43:57Z</time>
      </trkpt>
      <trkpt lat="41.91277" lon="9.17969">
        <ele>1709</ele>
        <time>2015-06-20T12:44:09Z</time>
      </trkpt>
      <trkpt lat="41.91281" lon="9.17972">
        <ele>1710</ele>
        <time>2015-06-20T12:44:18Z</time>
      </trkpt>
      <trkpt lat="41.9129" lon="9.1798">
        <ele>1711.8</ele>
        <time>2015-06-20T12:44:39Z</time>
      </trkpt>
      <trkpt lat="41.91293" lon="9.17989">
        <ele>1712.6</ele>
        <time>2015-06-20T12:44:50Z</time>
      </trkpt>
      <trkpt lat="41.91298" lon="9.17995">
        <ele>1713.8</ele>
        <time>2015-06-20T12:45:00Z</time>
      </trkpt>
      <trkpt lat="41.91304" lon="9.17996">
        <ele>1714.8</ele>
        <time>2015-06-20T12:45:07Z</time>
      </trkpt>
      <trkpt lat="41.91309" lon="9.18">
        <ele>1715.2</ele>
        <time>2015-06-20T12:45:17Z</time>
      </trkpt>
      <trkpt lat="41.91316" lon="9.18007">
        <ele>1716.2</ele>
        <time>2015-06-20T12:45:29Z</time>
      </trkpt>
      <trkpt lat="41.91319" lon="9.18011">
        <ele>1717.2</ele>
        <time>2015-06-20T12:45:37Z</time>
      </trkpt>
      <trkpt lat="41.91322" lon="9.18016">
        <ele>1718.2</ele>
        <time>2015-06-20T12:45:47Z</time>
      </trkpt>
      <trkpt lat="41.91331" lon="9.18021">
        <ele>1719.6</ele>
        <time>2015-06-20T12:45:56Z</time>
      </trkpt>
      <trkpt lat="41.91334" lon="9.18024">
        <ele>1721</ele>
        <time>2015-06-20T12:46:05Z</time>
      </trkpt>
      <trkpt lat="41.91339" lon="9.18026">
        <ele>1722</ele>
        <time>2015-06-20T12:46:12Z</time>
      </trkpt>
      <trkpt lat="41.91347" lon="9.18028">
        <ele>1723.6</ele>
        <time>2015-06-20T12:46:31Z</time>
      </trkpt>
      <trkpt lat="41.91356" lon="9.1803">
        <ele>1724.6</ele>
        <time>2015-06-20T12:46:46Z</time>
      </trkpt>
      <trkpt lat="41.91362" lon="9.18033">
        <ele>1725.2</ele>
        <time>2015-06-20T12:46:56Z</time>
      </trkpt>
      <trkpt lat="41.91368" lon="9.18035">
        <ele>1726.4</ele>
        <time>2015-06-20T12:47:07Z</time>
      </trkpt>
      <trkpt lat="41.91372" lon="9.1804">
        <ele>1727.8</ele>
        <time>2015-06-20T12:47:22Z</time>
      </trkpt>
      <trkpt lat="41.91373" lon="9.18042">
        <ele>1728.4</ele>
        <time>2015-06-20T12:47:26Z</time>
      </trkpt>
      <trkpt lat="41.9138" lon="9.18046">
        <ele>1729.8</ele>
        <time>2015-06-20T12:47:38Z</time>
      </trkpt>
      <trkpt lat="41.9138" lon="9.18047">
        <ele>1730</ele>
        <time>2015-06-20T12:47:40Z</time>
      </trkpt>
      <trkpt lat="41.91384" lon="9.1805">
        <ele>1731</ele>
        <time>2015-06-20T12:47:49Z</time>
      </trkpt>
      <trkpt lat="41.91389" lon="9.18052">
        <ele>1732</ele>
        <time>2015-06-20T12:47:57Z</time>
      </trkpt>
      <trkpt lat="41.91399" lon="9.1806">
        <ele>1733</ele>
        <time>2015-06-20T12:48:14Z</time>
      </trkpt>
      <trkpt lat="41.91429" lon="9.18081">
        <ele>1734.4</ele>
        <time>2015-06-20T12:49:04Z</time>
      </trkpt>
      <trkpt lat="41.91436" lon="9.18089">
        <ele>1735.2</ele>
        <time>2015-06-20T12:49:22Z</time>
      </trkpt>
      <trkpt lat="41.91441" lon="9.18094">
        <ele>1736.2</ele>
        <time>2015-06-20T12:49:38Z</time>
      </trkpt>
      <trkpt lat="41.91443" lon="9.18096">
        <ele>1737</ele>
        <time>2015-06-20T12:49:46Z</time>
      </trkpt>
      <trkpt lat="41.91446" lon="9.18098">
        <ele>1737.4</ele>
        <time>2015-06-20T12:49:49Z</time>
      </trkpt>
      <trkpt lat="41.91447" lon="9.18099">
        <ele>1737.6</ele>
        <time>2015-06-20T12:49:51Z</time>
      </trkpt>
      <trkpt lat="41.91449" lon="9.181">
        <ele>1738.4</ele>
        <time>2015-06-20T12:49:56Z</time>
      </trkpt>
      <trkpt lat="41.91451" lon="9.18104">
        <ele>1739.2</ele>
        <time>2015-06-20T12:50:08Z</time>
      </trkpt>
      <trkpt lat="41.91453" lon="9.18106">
        <ele>1740.8</ele>
        <time>2015-06-20T12:50:20Z</time>
      </trkpt>
      <trkpt lat="41.91456" lon="9.18108">
        <ele>1741.6</ele>
        <time>2015-06-20T12:50:31Z</time>
      </trkpt>
      <trkpt lat="41.91457" lon="9.1811">
        <ele>1742.8</ele>
        <time>2015-06-20T12:50:42Z</time>
      </trkpt>
      <trkpt lat="41.91455" lon="9.18111">
        <ele>1743.6</ele>
        <time>2015-06-20T12:50:49Z</time>
      </trkpt>
      <trkpt lat="41.91457" lon="9.18111">
        <ele>1745</ele>
        <time>2015-06-20T12:50:58Z</time>
      </trkpt>
      <trkpt lat="41.91461" lon="9.18114">
        <ele>1746</ele>
        <time>2015-06-20T12:51:12Z</time>
      </trkpt>
      <trkpt lat="41.91462" lon="9.1812">
        <ele>1746.8</ele>
        <time>2015-06-20T12:51:26Z</time>
      </trkpt>
      <trkpt lat="41.91461" lon="9.18122">
        <ele>1748.2</ele>
        <time>2015-06-20T12:51:39Z</time>
      </trkpt>
      <trkpt lat="41.91463" lon="9.18122">
        <ele>1748.4</ele>
        <time>2015-06-20T12:51:42Z</time>
      </trkpt>
      <trkpt lat="41.91462" lon="9.18122">
        <ele>1748.8</ele>
        <time>2015-06-20T12:51:44Z</time>
      </trkpt>
      <trkpt lat="41.91461" lon="9.18126">
        <ele>1749.6</ele>
        <time>2015-06-20T12:51:54Z</time>
      </trkpt>
      <trkpt lat="41.91463" lon="9.18127">
        <ele>1750.4</ele>
        <time>2015-06-20T12:52:01Z</time>
      </trkpt>
      <trkpt lat="41.91462" lon="9.18131">
        <ele>1751.8</ele>
        <time>2015-06-20T12:52:19Z</time>
      </trkpt>
      <trkpt lat="41.91462" lon="9.18131">
        <ele>1753</ele>
        <time>2015-06-20T12:52:25Z</time>
      </trkpt>
      <trkpt lat="41.91462" lon="9.18133">
        <ele>1754</ele>
        <time>2015-06-20T12:52:36Z</time>
      </trkpt>
      <trkpt lat="41.91462" lon="9.18137">
        <ele>1755.6</ele>
        <time>2015-06-20T12:52:48Z</time>
      </trkpt>
      <trkpt lat="41.91464" lon="9.18138">
        <ele>1756.4</ele>
        <time>2015-06-20T12:52:56Z</time>
      </trkpt>
      <trkpt lat="41.91465" lon="9.1814">
        <ele>1757.6</ele>
        <time>2015-06-20T12:53:03Z</time>
      </trkpt>
      <trkpt lat="41.9146" lon="9.18155">
        <ele>1759.2</ele>
        <time>2015-06-20T12:53:58Z</time>
      </trkpt>
      <trkpt lat="41.9146" lon="9.18158">
        <ele>1760</ele>
        <time>2015-06-20T12:54:10Z</time>
      </trkpt>
      <trkpt lat="41.91462" lon="9.18162">
        <ele>1761.4</ele>
        <time>2015-06-20T12:54:21Z</time>
      </trkpt>
      <trkpt lat="41.91462" lon="9.18162">
        <ele>1761.6</ele>
        <time>2015-06-20T12:54:23Z</time>
      </trkpt>
      <trkpt lat="41.91462" lon="9.18165">
        <ele>1762.2</ele>
        <time>2015-06-20T12:54:31Z</time>
      </trkpt>
      <trkpt lat="41.9146" lon="9.18171">
        <ele>1763.6</ele>
        <time>2015-06-20T12:54:42Z</time>
      </trkpt>
      <trkpt lat="41.91463" lon="9.18174">
        <ele>1763.8</ele>
        <time>2015-06-20T12:54:44Z</time>
      </trkpt>
      <trkpt lat="41.91464" lon="9.18174">
        <ele>1763.8</ele>
        <time>2015-06-20T12:54:45Z</time>
      </trkpt>
      <trkpt lat="41.91463" lon="9.18177">
        <ele>1764.6</ele>
        <time>2015-06-20T12:55:01Z</time>
      </trkpt>
      <trkpt lat="41.91463" lon="9.18182">
        <ele>1765.4</ele>
        <time>2015-06-20T12:55:12Z</time>
      </trkpt>
      <trkpt lat="41.91459" lon="9.18185">
        <ele>1767</ele>
        <time>2015-06-20T12:55:21Z</time>
      </trkpt>
      <trkpt lat="41.9146" lon="9.18188">
        <ele>1768</ele>
        <time>2015-06-20T12:55:29Z</time>
      </trkpt>
      <trkpt lat="41.91461" lon="9.18193">
        <ele>1769.2</ele>
        <time>2015-06-20T12:55:38Z</time>
      </trkpt>
      <trkpt lat="41.91466" lon="9.18198">
        <ele>1770</ele>
        <time>2015-06-20T12:55:45Z</time>
      </trkpt>
      <trkpt lat="41.91469" lon="9.18206">
        <ele>1770.4</ele>
        <time>2015-06-20T12:56:01Z</time>
      </trkpt>
      <trkpt lat="41.91472" lon="9.18208">
        <ele>1770.8</ele>
        <time>2015-06-20T12:56:05Z</time>
      </trkpt>
      <trkpt lat="41.91473" lon="9.18209">
        <ele>1771.2</ele>
        <time>2015-06-20T12:56:08Z</time>
      </trkpt>
      <trkpt lat="41.91478" lon="9.18214">
        <ele>1772.8</ele>
        <time>2015-06-20T12:56:21Z</time>
      </trkpt>
      <trkpt lat="41.91482" lon="9.18219">
        <ele>1774.4</ele>
        <time>2015-06-20T12:56:36Z</time>
      </trkpt>
      <trkpt lat="41.91483" lon="9.18225">
        <ele>1775.6</ele>
        <time>2015-06-20T12:56:50Z</time>
      </trkpt>
      <trkpt lat="41.91492" lon="9.1824">
        <ele>1777</ele>
        <time>2015-06-20T12:57:07Z</time>
      </trkpt>
      <trkpt lat="41.91492" lon="9.1824">
        <ele>1777</ele>
        <time>2015-06-20T12:57:08Z</time>
      </trkpt>
      <trkpt lat="41.91495" lon="9.18244">
        <ele>1777.2</ele>
        <time>2015-06-20T12:57:12Z</time>
      </trkpt>
      <trkpt lat="41.91499" lon="9.18246">
        <ele>1777.2</ele>
        <time>2015-06-20T12:57:15Z</time>
      </trkpt>
      <trkpt lat="41.91509" lon="9.18262">
        <ele>1778</ele>
        <time>2015-06-20T12:57:37Z</time>
      </trkpt>
      <trkpt lat="41.91514" lon="9.18272">
        <ele>1779</ele>
        <time>2015-06-20T12:57:48Z</time>
      </trkpt>
      <trkpt lat="41.91513" lon="9.18274">
        <ele>1779.6</ele>
        <time>2015-06-20T12:57:53Z</time>
      </trkpt>
      <trkpt lat="41.91514" lon="9.18276">
        <ele>1779.8</ele>
        <time>2015-06-20T12:57:55Z</time>
      </trkpt>
      <trkpt lat="41.91515" lon="9.18281">
        <ele>1781.2</ele>
        <time>2015-06-20T12:58:05Z</time>
      </trkpt>
      <trkpt lat="41.91516" lon="9.18283">
        <ele>1782</ele>
        <time>2015-06-20T12:58:10Z</time>
      </trkpt>
      <trkpt lat="41.91519" lon="9.18289">
        <ele>1782.8</ele>
        <time>2015-06-20T12:58:28Z</time>
      </trkpt>
      <trkpt lat="41.9152" lon="9.1829">
        <ele>1782.2</ele>
        <time>2015-06-20T12:58:35Z</time>
      </trkpt>
      <trkpt lat="41.91526" lon="9.18293">
        <ele>1781</ele>
        <time>2015-06-20T12:58:45Z</time>
      </trkpt>
      <trkpt lat="41.91528" lon="9.18296">
        <ele>1780.2</ele>
        <time>2015-06-20T12:58:53Z</time>
      </trkpt>
      <trkpt lat="41.91531" lon="9.18296">
        <ele>1779.8</ele>
        <time>2015-06-20T12:58:55Z</time>
      </trkpt>
      <trkpt lat="41.91531" lon="9.18296">
        <ele>1779.8</ele>
        <time>2015-06-20T12:58:57Z</time>
      </trkpt>
      <trkpt lat="41.91531" lon="9.18297">
        <ele>1779.4</ele>
        <time>2015-06-20T12:58:59Z</time>
      </trkpt>
      <trkpt lat="41.91537" lon="9.18297">
        <ele>1778.2</ele>
        <time>2015-06-20T12:59:06Z</time>
      </trkpt>
      <trkpt lat="41.91539" lon="9.18297">
        <ele>1778.2</ele>
        <time>2015-06-20T12:59:07Z</time>
      </trkpt>
      <trkpt lat="41.9154" lon="9.18297">
        <ele>1777.8</ele>
        <time>2015-06-20T12:59:10Z</time>
      </trkpt>
      <trkpt lat="41.91542" lon="9.18298">
        <ele>1777.4</ele>
        <time>2015-06-20T12:59:12Z</time>
      </trkpt>
      <trkpt lat="41.91542" lon="9.18301">
        <ele>1777.2</ele>
        <time>2015-06-20T12:59:14Z</time>
      </trkpt>
      <trkpt lat="41.91543" lon="9.18305">
        <ele>1776.2</ele>
        <time>2015-06-20T12:59:19Z</time>
      </trkpt>
      <trkpt lat="41.91547" lon="9.18306">
        <ele>1775.2</ele>
        <time>2015-06-20T12:59:26Z</time>
      </trkpt>
      <trkpt lat="41.91548" lon="9.18313">
        <ele>1773.2</ele>
        <time>2015-06-20T12:59:36Z</time>
      </trkpt>
      <trkpt lat="41.91545" lon="9.18313">
        <ele>1773</ele>
        <time>2015-06-20T12:59:42Z</time>
      </trkpt>
      <trkpt lat="41.91545" lon="9.18319">
        <ele>1771.8</ele>
        <time>2015-06-20T12:59:48Z</time>
      </trkpt>
      <trkpt lat="41.91546" lon="9.1832">
        <ele>1771.8</ele>
        <time>2015-06-20T12:59:50Z</time>
      </trkpt>
      <trkpt lat="41.91562" lon="9.18348">
        <ele>1770.2</ele>
        <time>2015-06-20T13:00:30Z</time>
      </trkpt>
      <trkpt lat="41.91561" lon="9.18351">
        <ele>1770.2</ele>
        <time>2015-06-20T13:00:31Z</time>
      </trkpt>
      <trkpt lat="41.91573" lon="9.18377">
        <ele>1769</ele>
        <time>2015-06-20T13:00:55Z</time>
      </trkpt>
      <trkpt lat="41.9158" lon="9.18383">
        <ele>1768</ele>
        <time>2015-06-20T13:01:08Z</time>
      </trkpt>
      <trkpt lat="41.91583" lon="9.18388">
        <ele>1767.2</ele>
        <time>2015-06-20T13:01:16Z</time>
      </trkpt>
      <trkpt lat="41.91585" lon="9.18391">
        <ele>1766.6</ele>
        <time>2015-06-20T13:01:21Z</time>
      </trkpt>
      <trkpt lat="41.91592" lon="9.18394">
        <ele>1765.2</ele>
        <time>2015-06-20T13:01:28Z</time>
      </trkpt>
      <trkpt lat="41.91595" lon="9.18395">
        <ele>1764.8</ele>
        <time>2015-06-20T13:01:31Z</time>
      </trkpt>
      <trkpt lat="41.91613" lon="9.18403">
        <ele>1764.2</ele>
        <time>2015-06-20T13:01:57Z</time>
      </trkpt>
      <trkpt lat="41.91614" lon="9.18405">
        <ele>1765.2</ele>
        <time>2015-06-20T13:02:03Z</time>
      </trkpt>
      <trkpt lat="41.91642" lon="9.18421">
        <ele>1766.2</ele>
        <time>2015-06-20T13:02:43Z</time>
      </trkpt>
      <trkpt lat="41.91646" lon="9.18424">
        <ele>1767</ele>
        <time>2015-06-20T13:02:56Z</time>
      </trkpt>
      <trkpt lat="41.91647" lon="9.18425">
        <ele>1767.6</ele>
        <time>2015-06-20T13:02:59Z</time>
      </trkpt>
      <trkpt lat="41.91663" lon="9.18423">
        <ele>1769.2</ele>
        <time>2015-06-20T13:03:24Z</time>
      </trkpt>
      <trkpt lat="41.9167" lon="9.18427">
        <ele>1770.2</ele>
        <time>2015-06-20T13:03:43Z</time>
      </trkpt>
      <trkpt lat="41.91674" lon="9.18429">
        <ele>1770.8</ele>
        <time>2015-06-20T13:03:48Z</time>
      </trkpt>
      <trkpt lat="41.91691" lon="9.18439">
        <ele>1772</ele>
        <time>2015-06-20T13:04:10Z</time>
      </trkpt>
      <trkpt lat="41.91698" lon="9.18444">
        <ele>1773</ele>
        <time>2015-06-20T13:04:19Z</time>
      </trkpt>
      <trkpt lat="41.91704" lon="9.18448">
        <ele>1774</ele>
        <time>2015-06-20T13:04:31Z</time>
      </trkpt>
      <trkpt lat="41.91709" lon="9.1845">
        <ele>1774.8</ele>
        <time>2015-06-20T13:04:39Z</time>
      </trkpt>
      <trkpt lat="41.91726" lon="9.18448">
        <ele>1776.2</ele>
        <time>2015-06-20T13:05:00Z</time>
      </trkpt>
      <trkpt lat="41.9174" lon="9.1845">
        <ele>1777.4</ele>
        <time>2015-06-20T13:05:16Z</time>
      </trkpt>
      <trkpt lat="41.91756" lon="9.18451">
        <ele>1777.8</ele>
        <time>2015-06-20T13:05:39Z</time>
      </trkpt>
      <trkpt lat="41.93514" lon="9.20587">
        <ele>1715.6</ele>
        <time>2015-06-20T14:49:49Z</time>
      </trkpt>
      <trkpt lat="41.93514" lon="9.20588">
        <ele>1715.8</ele>
        <time>2015-06-20T14:49:52Z</time>
      </trkpt>
    </trkseg>
  </trk>
</gpx>